GFSSE_con_mucape_003.txt.gz
CAPE
620 681 772 662 869 888 838 758 735 752 844 882 821 617 576 583 603 639 649 758 616 246 187 230 271 283 371 437 498 521 572 618 659 834 995 1123 934 963 1047 692 909 544 1224
885 834 774 802 841 987 916 851 850 950 977 814 754 629 576 566 636 574 390 483 439 75 54 81 110 94 100 118 156 177 217 250 317 415 383 360 387 796 1144 833 1177 597 1250
1092 1027 800 682 881 1080 1024 1083 1131 1138 888 778 803 691 563 548 505 421 328 534 280 58 34 11 0 0 0 0 5 3 6 10 68 65 66 213 307 628 1207 1181 1197 1244 1058
1211 1084 729 709 941 1156 1109 1291 1229 1134 903 913 871 675 580 470 381 351 325 423 111 27 3 0 0 0 0 0 0 0 0 12 0 0 0 65 535 778 1040 1018 1035 887 796
1229 1095 871 788 902 1119 1233 1115 1324 1321 1291 1306 927 657 549 392 213 188 115 126 4 0 0 0 0 0 0 0 0 0 0 11 0 0 3 231 808 794 1127 1204 870 828 819
1037 970 824 786 944 1059 1238 1516 1471 1380 1303 1246 1004 683 524 324 151 66 13 0 0 0 0 0 0 0 0 0 0 5 4 9 0 0 0 16 477 1080 1169 1020 846 862 912
1040 1135 1095 940 954 1099 1410 1568 1428 1239 1098 1127 994 766 519 339 144 17 0 0 0 0 0 0 0 0 1 49 71 60 8 38 0 0 0 0 127 940 882 876 962 691 696
1095 1143 1108 1067 1133 1347 1421 1342 1105 953 978 978 907 687 496 384 164 18 24 5 0 0 13 14 0 21 72 142 152 176 102 31 0 0 0 0 145 732 894 803 1246 1175 1082
1412 1441 1413 1401 1470 1195 1137 1105 1005 867 915 879 804 707 535 372 228 121 121 185 198 100 143 182 155 182 188 283 246 202 201 2 0 0 0 0 29 267 540 722 857 917 628
1613 1448 1377 1539 1454 1469 1513 1165 1038 911 815 781 699 593 374 335 292 277 269 133 321 395 327 401 362 360 343 370 224 133 155 2 0 0 0 0 16 29 40 390 557 447 347
1182 1297 1320 1228 1400 1601 1533 1248 903 783 716 694 588 485 329 348 323 339 211 323 487 397 463 608 572 490 387 276 122 112 62 12 15 0 0 0 0 24 41 153 736 611 237
1081 1364 1250 1620 1418 1401 1104 1055 872 663 476 449 428 533 520 547 533 467 463 343 463 445 627 496 380 336 318 267 168 14 0 0 0 0 0 0 0 0 15 272 506 636 595
935 1321 1144 1076 1080 985 910 762 563 399 378 388 483 461 553 598 820 788 727 596 531 197 116 11 16 51 123 68 0 0 0 0 0 0 0 0 0 0 0 11 342 498 556
861 789 903 654 644 536 422 407 234 228 288 380 505 618 761 703 467 146 77 22 14 7 11 0 0 0 0 0 0 0 0 0 0 0 0 0 0 0 3 43 67 184 426
611 581 362 207 181 119 117 138 144 232 384 504 620 766 757 546 185 33 0 0 0 0 0 0 0 0 0 0 0 0 0 0 0 0 0 0 0 0 0 6 18 56 101
364 324 130 30 38 52 79 111 103 70 152 318 351 383 315 139 60 12 0 4 12 9 6 1 0 0 0 0 0 0 0 0 0 0 0 0 0 0 0 0 0 0 4
207 153 75 102 95 94 84 134 32 38 20 70 250 259 155 60 30 18 22 10 15 2 0 0 0 0 0 0 0 0 0 0 0 0 0 0 0 0 0 0 0 0 0
171 206 71 140 50 24 9 1 5 8 1 17 90 36 10 11 3 0 0 0 0 0 0 0 0 0 0 0 0 0 0 0 0 0 0 0 0 0 0 0 0 0 0
386 272 187 82 44 14 10 19 10 15 10 1 22 10 1 0 0 0 0 0 0 0 0 0 0 0 0 0 0 0 0 0 0 0 0 0 0 0 0 0 0 0 0
374 163 203 89 68 38 12 8 38 0 0 0 0 6 3 0 0 0 0 0 0 0 0 0 0 0 0 0 0 0 0 0 0 0 0 0 0 0 0 0 0 0 0
206 169 197 64 82 2 0 0 0 0 0 8 0 0 0 0 0 0 0 0 0 0 0 0 0 0 0 0 0 0 0 0 0 0 0 0 0 0 0 0 0 0 0
522 512 305 90 11 0 0 0 0 0 0 0 0 0 0 0 0 0 0 0 0 0 0 0 1 0 0 0 0 0 0 0 0 0 0 0 0 0 0 0 0 0 0
503 171 24 0 0 0 0 0 0 0 0 0 0 0 0 0 0 0 0 0 0 2 4 0 0 0 0 0 0 0 0 0 0 0 0 0 0 0 0 0 0 0 0
0 0 0 0 0 0 0 0 0 0 0 0 0 0 0 0 0 0 0 0 0 0 0 0 0 0 0 0 0 0 0 0 0 0 0 0 0 0 0 0 0 0 3
0 0 0 0 0 0 0 0 0 0 0 0 0 0 0 0 0 0 0 0 0 0 0 0 0 0 0 0 2 0 0 0 0 0 0 0 0 0 0 0 0 0 0
0 0 0 0 0 0 0 0 0 0 0 0 0 0 0 0 0 0 0 0 0 0 1 8 4 3 0 0 0 0 0 0 0 0 0 0 0 0 0 0 0 0 0

GFSSE_con_mucape_006.txt.gz
CAPE
756 644 817 941 986 985 829 774 753 780 849 907 823 576 512 490 513 417 331 476 383 99 82 127 150 121 90 94 83 90 112 120 231 275 292 459 520 811 794 390 887 308 929
913 733 650 804 892 965 877 880 933 974 1022 797 712 570 507 505 398 262 290 358 272 35 21 5 0 0 0 0 0 0 0 1 3 49 104 306 663 737 904 490 1074 491 874
1032 918 522 783 978 998 991 1112 1129 1163 885 788 685 538 471 388 310 287 250 304 71 7 0 0 0 0 0 0 0 0 0 0 0 0 23 89 310 922 765 775 1047 819 659
1140 1154 691 680 890 1109 1174 1187 1173 1116 949 894 668 523 407 313 278 271 150 160 4 0 0 0 0 0 0 0 0 0 0 1 0 2 0 85 421 653 523 422 616 668 525
1134 1000 901 803 873 766 1090 1019 1095 1277 1375 993 713 527 385 222 192 116 36 0 0 0 0 0 0 0 0 0 0 0 0 8 14 4 0 22 249 806 635 567 650 745 663
1105 1190 536 642 631 607 946 1037 1489 1457 1344 1110 882 548 365 205 59 1 0 0 0 0 0 0 0 0 0 40 34 0 0 0 1 0 0 0 138 892 863 785 605 475 891
827 1160 894 706 597 698 1023 1356 1488 1333 1228 1041 755 576 393 170 0 0 0 0 0 0 0 0 0 15 46 97 98 87 22 0 0 0 0 0 4 579 816 637 320 425 383
1122 1129 923 750 824 776 1035 1216 1081 1005 1024 922 735 554 384 144 35 30 18 14 29 20 26 22 26 65 107 136 132 91 137 0 0 0 0 0 62 213 520 705 621 416 371
1399 1315 1061 998 952 1101 1035 946 813 851 900 829 696 556 339 176 128 110 143 203 187 104 112 167 156 227 237 257 177 107 91 17 0 0 0 0 24 37 44 393 587 456 277
1323 1371 1357 1244 1230 1168 1246 974 860 807 802 768 568 419 309 301 231 264 123 240 288 307 327 362 494 551 444 432 202 105 72 101 0 0 0 0 1 30 52 69 406 287 166
1274 1249 1006 1085 1106 1037 1070 1114 802 768 676 545 466 351 206 262 297 201 164 273 492 516 545 624 486 362 332 363 87 26 46 0 0 0 0 0 0 7 19 48 162 202 156
1235 1181 1234 1205 1054 1113 814 761 538 322 192 175 352 581 407 810 823 601 407 456 477 326 472 58 7 63 131 17 0 0 0 0 0 0 0 0 0 13 58 20 403 592 568
919 1223 988 944 922 867 620 386 112 68 216 474 724 853 894 1038 1079 735 431 290 326 50 91 6 4 0 17 0 0 0 0 0 0 0 0 0 0 0 3 60 121 191 364
805 943 801 622 711 641 203 137 258 317 571 692 946 1090 1196 1117 1115 481 301 198 208 59 9 1 0 0 0 0 0 0 0 0 0 0 0 0 0 0 0 9 21 36 77
526 643 596 481 426 325 316 464 587 726 854 961 1140 1212 890 319 331 401 300 79 1 2 6 7 0 0 0 0 0 0 0 0 0 0 0 0 0 0 0 0 0 0 0
536 563 412 248 358 587 769 867 429 286 311 618 952 575 194 180 35 117 35 12 17 27 23 6 0 0 0 0 0 0 0 0 0 0 0 0 0 0 0 0 0 0 0
603 493 392 487 666 489 344 303 182 57 70 145 388 418 225 83 12 10 16 30 17 0 0 0 0 0 0 0 0 0 0 0 0 0 0 0 0 0 0 0 0 0 0
642 573 375 436 445 276 93 0 2 22 25 29 21 27 41 42 2 3 0 0 0 0 0 0 0 0 0 0 0 0 0 0 0 0 0 0 0 0 0 0 0 0 0
681 650 602 437 76 9 16 5 1 2 14 18 23 8 0 0 0 0 0 0 0 0 0 0 0 0 0 0 0 0 0 0 0 1 17 12 3 2 0 0 0 0 0
849 813 598 353 287 402 157 2 25 34 8 7 5 0 0 0 0 0 0 0 0 0 0 0 0 0 0 0 0 0 3 0 0 8 28 25 12 12 3 5 3 0 0
979 850 670 458 307 364 76 39 0 0 0 0 0 0 0 0 0 0 0 0 0 0 0 0 0 0 0 0 0 0 0 0 2 18 34 15 10 8 2 3 1 2 0
767 701 598 456 377 46 9 0 0 0 0 0 0 0 0 0 0 0 0 0 0 0 0 0 0 0 0 5 5 0 0 0 0 9 6 3 7 18 3 0 3 0 0
961 927 615 215 1 0 0 0 0 0 0 0 0 0 0 0 0 0 0 0 0 0 0 0 0 0 0 0 10 3 0 0 0 0 4 0 2 0 1 0 0 0 0
1004 500 26 0 0 0 0 0 0 0 0 0 0 0 0 0 0 0 0 0 0 0 1 4 0 0 0 0 1 0 1 0 0 0 1 10 0 0 0 0 0 0 0
0 0 0 0 0 0 0 0 0 0 0 0 0 0 0 0 0 0 0 0 0 0 7 10 3 0 0 0 1 0 0 0 2 0 0 0 0 3 0 2 5 10 2
0 0 0 0 0 0 0 0 0 0 0 0 0 0 0 0 0 0 0 0 8 15 30 6 0 1 4 1 0 0 1 0 0 0 0 0 0 0 7 9 11 9 7

GFSSE_con_mucape_012.txt.gz
CAPE
489 408 753 843 812 713 615 559 616 701 824 887 745 611 473 346 457 451 375 291 176 10 0 0 0 0 0 0 0 0 0 0 0 0 65 324 553 510 585 1099 750 89 982
308 293 676 786 745 720 706 773 876 946 955 816 669 491 397 394 436 434 349 237 85 0 0 0 0 0 0 0 0 0 0 0 46 93 30 382 662 623 555 1037 1060 520 990
243 311 349 731 757 791 918 1077 1081 1107 913 698 492 389 344 234 193 293 262 102 39 0 0 0 0 0 0 0 0 0 0 33 129 246 239 270 316 496 330 1055 914 843 885
267 165 318 766 710 846 966 1041 952 1085 748 596 428 283 282 164 90 130 138 110 117 0 0 0 0 0 0 0 15 3 57 109 123 146 0 110 281 750 476 789 825 473 886
257 163 576 749 512 604 819 800 835 962 773 578 418 213 73 26 1 0 215 200 56 0 0 0 0 19 62 253 234 187 159 93 59 37 0 27 31 653 448 448 427 463 813
623 330 437 362 327 528 584 888 1001 900 686 544 448 295 9 0 0 0 234 183 19 24 19 16 32 99 304 258 205 167 150 98 73 1 0 19 59 731 572 187 628 622 626
289 171 228 167 370 537 575 1045 953 873 681 543 454 257 89 0 0 32 205 182 37 42 43 56 84 272 348 324 250 185 123 84 0 3 0 0 63 393 481 493 607 634 308
178 192 137 203 331 296 656 799 746 700 620 528 423 217 138 219 232 272 341 340 324 328 398 415 426 439 397 333 228 122 62 85 0 2 0 3 307 116 32 200 778 694 392
327 244 118 256 622 520 481 479 529 571 533 521 407 257 287 323 340 404 477 467 465 495 568 649 602 524 463 390 255 164 73 56 0 9 12 11 307 120 49 51 311 419 399
103 163 185 285 200 674 457 399 419 430 409 404 298 220 239 280 323 360 442 503 485 401 397 468 226 128 231 278 213 266 120 33 0 0 0 34 197 113 157 82 228 503 474
65 256 270 404 624 771 572 432 445 501 386 380 230 218 167 173 214 287 355 365 338 134 139 221 60 69 141 183 304 428 305 0 0 0 0 23 58 0 52 148 253 534 649
160 375 467 625 588 632 348 388 204 152 74 212 218 240 391 595 105 38 313 345 438 178 196 252 203 255 156 0 8 121 0 0 0 0 0 0 0 0 0 48 117 176 199
478 602 668 698 791 636 392 313 88 193 304 679 631 761 717 780 671 523 477 547 385 251 220 157 134 53 17 0 0 0 0 0 0 0 0 0 0 0 0 0 0 2 6
691 702 710 636 421 227 86 53 150 347 609 639 801 675 793 888 701 480 239 68 64 109 133 131 58 25 2 0 0 0 0 0 0 0 0 0 0 0 0 0 0 0 0
504 371 357 434 433 471 392 691 846 834 914 951 960 928 801 546 303 152 88 91 145 96 35 16 15 0 0 0 0 0 0 0 0 0 0 0 0 0 2 0 0 0 0
320 395 414 312 526 712 918 586 544 532 539 530 884 1031 781 555 312 130 75 17 8 1 17 0 0 0 0 0 0 0 0 0 0 0 0 2 14 23 8 7 0 0 0
405 341 252 400 1075 812 657 499 289 0 115 390 596 753 768 504 222 24 0 0 0 0 0 0 0 0 0 0 0 0 0 0 0 0 0 0 20 47 33 8 0 0 0
308 295 419 698 774 499 238 11 78 289 116 0 2 0 0 0 0 0 0 0 0 0 0 0 0 0 0 0 0 0 0 0 0 0 1 0 0 17 17 10 6 0 0
318 468 759 791 532 125 254 191 289 70 0 0 0 0 0 0 0 0 0 0 0 0 0 0 0 0 0 0 0 0 0 0 0 0 0 0 1 14 23 59 39 43 4
496 508 810 731 624 338 504 78 6 0 0 0 0 0 0 0 0 0 0 0 0 0 0 0 0 0 1 0 0 0 0 0 0 0 0 0 0 2 7 9 4 0 8
832 665 763 697 571 604 321 1 0 0 0 0 0 0 0 0 0 0 0 0 0 0 0 0 0 0 0 0 0 0 0 0 0 0 0 0 0 0 6 1 0 0 0
1010 873 884 688 657 682 182 44 59 0 0 0 0 0 0 0 0 0 0 0 0 0 0 0 0 0 0 0 0 0 0 0 0 0 0 0 0 0 0 0 0 0 0
1058 1044 988 655 719 127 2 0 0 0 0 0 0 0 0 0 0 0 0 0 0 0 0 0 0 0 0 0 0 0 0 0 0 0 0 0 0 0 0 0 0 0 0
1024 997 798 620 87 0 0 0 0 0 0 0 0 0 0 0 0 0 0 0 0 0 0 0 0 0 0 0 0 0 0 0 0 0 0 0 0 0 0 0 0 0 0
821 1007 559 205 11 0 0 0 0 0 0 0 0 0 0 0 0 0 0 0 0 0 0 0 7 2 1 0 0 0 0 0 0 0 0 0 0 0 0 6 0 0 0
820 458 190 73 0 0 0 0 0 0 0 0 0 0 0 0 0 0 0 0 0 0 0 4 0 0 0 1 1 9 0 0 0 0 0 0 0 0 0 0 0 0 0

GFSSE_con_mucape_018.txt.gz
CAPE
768 833 800 809 736 641 665 784 743 615 509 432 403 325 232 152 125 71 39 19 48 0 0 0 0 0 0 0 0 0 0 0 0 200 585 505 273 376 276 384 507 343 531
627 725 654 714 693 720 957 895 822 673 577 444 404 316 214 143 123 100 65 115 43 0 0 0 0 0 0 0 0 4 0 0 124 309 590 338 286 493 333 419 694 403 421
657 644 543 553 693 896 1075 971 774 613 377 229 189 223 154 55 85 161 159 181 191 16 0 0 0 0 0 0 75 108 294 430 342 502 481 35 59 356 296 296 513 350 427
535 508 394 575 755 1055 1012 888 550 367 253 245 174 97 130 75 95 274 239 243 278 42 6 0 0 0 0 63 151 105 194 105 165 208 29 52 36 139 133 47 0 0 51
252 276 416 593 859 1074 909 686 492 471 368 317 221 105 109 130 108 199 304 330 249 46 26 10 4 0 82 169 148 41 56 10 0 0 75 115 90 91 117 89 50 0 0
241 323 412 536 960 899 838 652 537 395 288 238 192 208 217 145 164 345 358 329 92 52 29 27 23 53 184 205 187 62 47 0 0 0 0 47 71 213 58 139 84 41 78
241 154 157 297 397 436 632 632 494 350 261 195 156 263 293 287 230 398 369 353 234 103 106 93 103 249 182 305 239 94 57 0 0 0 0 35 88 100 47 58 79 73 51
95 113 145 223 179 231 358 489 375 329 237 160 180 304 344 333 345 423 446 452 434 378 286 182 123 127 112 177 214 113 3 0 0 0 0 0 371 125 103 139 279 624 351
78 86 67 13 55 184 226 294 340 269 175 198 223 267 295 312 359 425 454 459 346 210 54 20 31 41 64 95 168 135 0 0 0 0 0 0 542 138 118 187 270 341 372
81 35 0 21 1 105 254 272 212 208 149 182 224 221 210 265 350 385 326 279 185 4 0 3 29 19 46 150 137 53 0 0 0 0 0 0 173 0 0 93 51 5 23
104 31 2 17 132 136 251 192 201 182 108 124 169 148 56 45 49 66 32 60 39 3 0 8 33 77 0 15 27 0 0 0 0 0 0 25 28 0 0 20 0 0 0
1 2 17 17 145 171 176 123 50 59 24 33 67 101 74 33 16 16 55 25 23 35 47 12 41 0 0 0 0 0 0 0 0 0 0 0 14 0 0 0 5 0 0
0 0 0 53 98 149 84 32 15 6 104 124 150 179 97 26 65 55 61 13 0 0 0 0 0 0 0 0 0 0 0 0 0 0 0 0 7 0 0 1 16 14 4
34 8 58 113 247 190 36 3 28 34 132 260 220 175 164 139 80 11 0 8 8 1 0 1 0 0 0 5 0 0 0 0 0 0 0 0 0 0 6 13 36 17 3
184 123 39 184 306 156 18 18 73 243 322 366 286 214 184 116 3 0 0 0 0 0 3 0 0 0 0 0 0 0 0 0 0 0 0 0 5 9 26 59 22 0 0
322 330 246 284 347 124 74 76 180 334 435 422 398 324 263 25 0 0 0 0 0 0 0 0 0 0 0 0 0 0 0 0 0 0 0 0 0 8 27 14 1 0 0
419 314 374 314 317 148 175 390 491 484 369 353 271 165 85 98 8 0 0 0 0 0 0 0 0 0 0 0 0 0 0 0 0 0 0 0 0 1 11 0 0 0 0
445 285 123 177 206 229 287 282 299 201 244 331 269 186 83 8 0 0 0 0 0 0 0 0 0 0 0 0 0 0 0 0 0 0 0 0 0 0 0 6 0 0 0
458 333 303 306 284 244 226 146 15 30 4 0 0 0 0 0 0 0 0 0 0 0 0 0 0 0 0 0 0 0 0 0 0 0 0 0 0 0 0 0 0 0 0
286 193 354 324 265 225 135 33 13 0 0 0 0 0 0 0 0 0 0 0 0 0 0 0 0 0 0 0 0 0 0 0 0 0 0 0 0 0 0 0 0 1 3
179 282 482 497 414 319 24 22 24 0 0 0 0 0 0 0 0 0 0 0 0 0 0 0 0 0 0 0 0 0 0 0 0 0 0 0 0 0 0 0 0 0 0
309 365 648 644 500 217 10 7 8 0 0 0 0 0 0 0 0 0 0 0 0 0 0 0 0 0 0 0 0 0 0 0 0 0 0 0 0 0 0 0 0 0 0
420 562 707 542 248 123 99 48 20 0 0 0 0 0 0 0 0 0 0 0 0 0 0 0 0 0 0 0 0 0 0 0 0 0 0 0 0 0 0 0 0 0 0
536 722 671 407 220 113 100 184 95 0 0 0 0 0 0 0 0 0 0 0 0 0 0 0 0 0 0 0 0 0 0 0 0 0 0 0 0 0 0 0 0 0 0
616 738 648 529 418 145 243 358 71 1 0 0 0 0 0 0 0 0 0 0 0 0 0 0 0 0 0 0 0 0 0 0 0 0 0 0 0 0 0 0 0 0 0
658 718 607 684 588 391 393 283 29 13 2 3 0 0 0 0 0 0 0 0 0 0 0 0 0 0 0 0 0 0 0 0 0 0 0 0 0 0 0 0 0 0 0

GFSSE_con_mucape_021.txt.gz
CAPE
674 757 782 742 697 739 728 570 392 362 356 310 208 86 85 43 57 107 97 24 8 0 0 0 0 0 0 0 0 0 0 35 404 518 599 409 324 223 219 298 271 139 290
621 718 733 677 735 881 826 663 518 487 386 242 210 106 82 96 114 161 97 107 104 0 0 0 0 0 0 24 200 222 66 185 519 495 272 374 298 199 214 174 442 179 329
678 669 604 620 831 966 939 753 611 453 332 133 106 112 80 121 175 184 195 198 143 70 0 0 0 0 0 60 467 604 512 521 530 389 112 10 0 41 0 0 0 0 65
768 632 439 670 920 989 808 664 508 310 165 189 98 69 115 98 155 259 278 232 200 97 1 0 0 0 0 85 166 243 313 150 166 21 12 10 13 55 42 2 0 0 0
639 509 568 794 877 976 706 497 410 401 332 226 151 128 117 148 112 192 325 288 219 22 25 11 7 10 81 62 118 108 55 0 0 0 51 35 5 11 42 0 0 0 0
516 438 488 859 906 876 712 621 545 410 261 194 238 309 274 269 134 297 330 279 59 32 41 48 25 167 171 38 79 42 0 0 0 0 0 0 0 46 0 0 0 0 44
392 310 358 669 672 582 725 604 474 382 281 263 359 414 462 456 296 408 323 306 226 79 64 48 153 245 170 23 35 28 0 0 0 0 0 0 2 59 20 80 85 97 90
86 26 128 291 257 224 467 475 359 339 298 340 411 447 486 462 433 425 409 404 370 307 256 160 86 186 253 67 0 11 0 0 0 0 0 0 328 95 96 158 207 207 119
20 38 48 91 30 27 239 270 224 267 279 366 398 404 400 368 365 379 404 372 298 179 114 73 90 144 277 59 0 0 0 0 0 0 0 0 217 0 6 18 0 18 71
33 45 61 49 30 133 173 166 154 180 229 287 351 307 279 308 351 322 289 251 109 41 61 79 150 48 297 3 0 0 0 0 0 0 0 0 47 5 9 2 0 0 0
15 19 10 8 0 47 120 172 199 199 207 243 233 225 131 99 65 15 87 33 10 1 22 94 18 0 0 0 0 0 0 0 0 0 0 0 0 1 0 0 0 0 0
16 29 8 1 2 168 310 185 82 74 83 55 40 23 10 6 21 0 40 33 30 17 17 0 0 0 0 0 0 0 0 0 0 0 0 0 0 0 0 15 0 0 0
69 26 12 27 95 211 181 76 11 11 3 12 71 96 51 32 8 7 0 0 0 0 0 0 0 0 0 0 0 0 0 0 0 0 0 0 0 0 0 14 17 8 0
38 28 12 40 171 231 104 26 8 3 87 159 182 110 54 61 50 35 44 14 0 0 0 0 0 0 0 0 0 0 0 0 0 0 0 0 5 4 6 41 52 10 0
20 51 15 33 259 236 58 0 0 152 238 269 184 163 188 132 76 19 0 0 0 0 0 0 0 0 0 0 0 0 0 0 0 0 0 0 2 14 6 69 43 14 4
75 63 125 177 316 264 13 18 73 208 379 313 296 237 226 115 13 0 0 0 0 0 0 0 0 0 0 0 0 0 0 0 0 0 0 0 2 59 57 30 11 5 12
192 171 159 224 359 256 0 12 218 360 405 387 322 305 271 96 0 0 0 0 0 0 0 0 0 0 0 0 0 0 0 0 0 0 0 0 0 1 0 0 0 2 4
330 311 270 280 373 219 44 117 177 483 503 452 306 152 65 44 0 0 0 0 0 0 0 0 0 0 0 0 0 0 0 0 0 0 0 0 0 0 0 0 0 0 0
456 373 360 354 333 239 205 433 471 498 284 268 227 207 115 0 0 0 0 0 0 0 0 0 0 0 0 0 0 0 0 0 0 0 0 0 0 0 0 0 0 0 0
478 363 384 468 341 210 281 398 319 79 29 30 9 0 0 0 0 0 0 0 0 0 0 0 0 0 0 0 0 0 0 0 0 0 0 0 0 0 0 0 0 0 0
422 456 311 241 280 298 284 316 226 17 0 0 0 0 0 0 0 0 0 0 0 0 0 0 0 0 0 0 0 0 0 0 0 0 0 0 0 0 0 0 0 0 0
565 462 345 334 356 360 313 226 106 18 5 0 0 0 0 0 0 0 0 0 0 0 0 0 0 0 0 0 0 0 0 0 0 0 0 0 0 0 0 0 0 0 0
527 372 334 427 402 304 268 182 18 23 16 0 0 0 0 0 0 0 0 0 0 0 0 0 0 0 0 0 0 0 0 0 0 0 0 0 0 0 0 0 0 0 0
469 297 281 468 466 433 407 250 17 16 27 0 0 0 0 0 0 0 0 0 0 0 0 2 0 0 0 0 0 0 0 0 0 0 0 0 0 0 0 0 0 0 0
411 254 219 470 651 651 434 154 44 45 45 8 0 0 0 0 0 0 0 0 0 0 1 0 0 0 0 0 0 0 0 0 0 0 0 0 0 0 0 0 0 0 0
485 314 315 658 773 584 225 217 72 102 111 63 22 7 5 3 0 0 0 0 0 0 0 0 0 0 0 0 0 0 0 0 0 0 0 0 0 0 0 0 0 0 0

GFSSE_con_mucape_024.txt.gz
CAPE
680 851 763 808 779 660 490 413 391 370 320 237 177 109 50 12 75 26 57 56 93 61 0 0 0 44 114 117 31 27 274 378 502 601 442 143 109 236 142 150 149 132 236
771 810 724 791 781 678 519 456 402 360 268 229 160 112 94 125 89 122 142 141 143 123 4 7 52 180 347 264 111 277 357 407 350 249 122 4 5 0 0 0 42 2 98
827 768 638 754 868 779 660 579 463 354 267 152 140 144 195 196 209 240 167 168 178 158 3 0 46 279 374 425 531 569 345 247 286 228 0 0 0 2 0 0 0 0 0
835 665 598 952 935 766 647 556 401 258 200 218 176 179 277 226 228 302 207 180 205 187 0 0 0 26 86 332 432 333 286 169 93 0 0 0 0 0 0 0 0 0 0
792 589 706 927 841 801 655 479 370 315 258 237 224 201 253 247 184 253 283 263 311 255 3 2 0 4 56 111 126 165 27 8 0 0 0 0 0 0 0 0 0 0 0
722 518 592 702 798 761 681 593 475 344 254 251 309 349 373 320 186 390 323 303 264 173 20 12 0 13 150 44 48 27 0 0 0 0 0 0 0 0 1 1 1 2 2
681 349 341 422 539 649 825 674 488 353 330 408 466 455 456 487 428 463 393 419 333 226 166 85 126 40 102 44 51 14 0 0 0 0 0 0 1 23 38 80 20 4 2
473 340 208 195 244 344 549 475 378 409 469 565 581 601 618 531 499 486 487 437 352 256 236 300 270 75 52 102 36 0 0 0 0 0 0 0 86 8 7 49 55 43 30
314 262 125 59 21 163 276 318 318 380 475 551 555 524 512 475 437 440 404 392 342 282 217 257 437 130 12 4 10 0 0 0 0 0 0 0 62 2 0 0 16 33 44
147 53 47 71 59 1 158 222 239 283 338 377 408 372 303 337 388 314 278 312 237 197 243 170 222 32 0 0 0 0 0 0 0 0 0 0 46 16 0 0 0 0 0
39 25 36 57 13 0 148 223 250 300 264 275 255 237 104 100 78 1 61 86 82 64 121 40 0 0 0 0 0 0 0 0 0 0 0 8 20 20 17 0 0 0 0
64 15 7 10 5 7 212 152 51 94 76 75 76 60 37 11 0 4 24 91 64 47 0 0 0 0 0 0 0 0 0 0 0 0 0 13 0 1 28 17 21 21 21
44 6 10 3 14 2 166 127 44 33 7 9 12 4 13 21 0 0 4 6 2 0 0 0 0 0 0 0 0 0 0 0 0 0 0 1 7 5 22 53 41 24 16
0 0 0 0 69 127 101 15 0 0 0 23 54 61 45 11 9 15 14 10 0 0 0 0 0 0 0 0 0 0 0 0 0 0 0 0 13 9 4 73 51 30 5
5 0 2 0 68 167 96 0 0 0 0 55 68 20 24 61 58 44 18 0 0 0 0 0 0 0 0 0 0 0 0 0 0 0 0 0 31 22 21 74 27 15 14
20 8 0 0 141 256 54 0 0 4 117 213 199 106 140 74 67 34 0 0 0 0 0 0 0 0 0 0 0 0 0 0 0 0 0 0 0 0 2 5 0 6 16
40 39 0 0 196 294 69 0 48 190 377 317 214 222 197 108 91 0 0 0 0 0 0 0 0 0 0 0 0 0 0 0 0 0 0 0 0 0 0 0 0 1 1
87 66 23 129 242 335 92 0 20 220 339 286 310 255 269 254 37 0 0 0 0 0 0 0 0 0 0 0 0 0 0 0 0 0 0 0 0 0 0 0 0 0 0
184 191 162 165 245 317 78 21 150 334 380 374 408 350 176 53 39 5 0 0 0 0 0 0 0 0 0 0 0 0 0 0 0 0 0 0 0 0 0 0 0 0 0
284 264 228 274 295 289 119 138 137 366 450 482 199 90 91 71 20 0 0 0 0 0 0 0 0 0 0 0 0 0 0 0 0 0 0 0 0 0 0 0 0 0 0
403 333 268 340 314 365 234 269 403 446 394 129 114 90 43 13 0 0 0 0 0 0 0 0 0 0 0 0 0 0 0 0 0 0 0 0 0 0 0 0 0 0 0
514 447 332 441 493 472 293 272 360 293 34 17 7 0 0 0 0 0 0 0 0 0 0 0 0 0 0 0 0 0 0 0 0 0 0 0 0 0 0 0 0 0 0
597 502 419 411 349 362 214 231 309 263 55 19 4 0 0 0 0 0 0 0 0 0 0 0 0 0 0 0 0 0 0 0 0 0 0 0 0 0 0 0 0 0 0
658 599 513 370 248 236 285 342 333 218 32 7 10 0 0 0 0 0 0 0 0 0 0 0 0 0 0 0 0 0 0 0 0 0 0 0 0 0 0 0 0 0 0
615 641 614 540 353 316 384 368 265 231 104 25 19 6 0 0 0 0 0 0 0 0 0 0 0 0 0 0 0 0 0 0 0 0 0 0 0 0 0 0 0 0 0
603 548 592 524 395 422 423 330 249 308 122 56 54 38 37 19 6 29 53 14 0 0 0 0 0 0 4 0 0 0 0 0 0 0 0 0 0 0 0 0 0 0 0

GFSSE_con_mucape_030.txt.gz
CAPE
608 488 909 1066 1135 1098 966 835 696 515 397 205 145 194 202 153 180 187 214 235 287 314 159 185 219 363 46 11 260 252 253 348 324 220 178 2 0 0 0 40 96 65 192
707 362 873 953 1093 1082 918 724 552 411 276 204 252 181 178 261 290 269 324 323 421 367 270 245 374 250 30 36 115 144 110 197 223 221 195 0 0 0 0 0 0 1 5
689 328 782 908 977 936 852 669 491 356 290 332 226 230 321 373 369 365 344 480 765 921 486 301 369 196 57 82 242 199 94 110 132 0 2 0 0 0 0 0 10 1 2
713 443 245 956 922 866 709 574 456 374 397 312 318 416 444 462 481 426 406 459 872 1031 766 449 376 184 131 295 330 224 65 38 0 0 0 4 0 5 4 2 1 5 5
1040 540 687 872 842 851 676 542 352 323 379 360 507 579 567 555 561 537 471 362 618 780 540 521 276 142 256 298 221 121 19 13 0 9 6 25 26 25 17 23 39 23 6
1174 800 678 749 852 830 688 486 353 358 333 418 538 590 632 657 665 612 541 400 365 419 221 222 34 100 211 183 153 49 28 0 0 2 11 22 26 24 23 30 34 32 40
1184 1062 975 697 817 741 649 485 422 417 353 464 499 494 619 730 743 729 530 451 296 345 245 151 88 193 221 133 12 7 5 0 0 0 11 18 28 17 16 18 48 52 39
1061 877 593 565 397 438 437 384 385 388 465 535 519 572 661 651 574 515 487 533 410 263 332 278 246 185 77 0 0 0 0 0 0 0 3 9 18 4 8 7 21 26 28
536 454 415 365 67 19 206 300 419 495 527 587 628 591 480 442 361 380 363 411 425 261 205 282 254 66 0 0 0 0 0 0 0 0 0 11 0 2 2 1 2 8 8
550 399 247 175 4 3 117 345 430 444 488 505 500 344 335 291 332 325 302 351 473 276 159 169 71 0 0 0 0 0 0 0 0 0 0 11 26 0 0 0 7 6 4
411 269 173 70 7 1 104 261 452 572 441 339 342 280 145 44 28 59 183 293 339 160 43 1 0 0 0 0 0 0 0 0 0 0 0 23 27 23 10 9 21 22 20
302 230 100 41 12 0 85 143 349 384 228 261 226 138 107 194 62 34 153 123 29 2 0 0 0 0 0 0 0 0 0 0 0 0 0 0 0 41 33 33 33 23 11
53 67 36 6 0 0 51 140 227 197 253 266 197 122 154 206 139 165 132 4 0 0 0 0 0 0 0 0 0 0 0 0 0 0 0 0 0 4 53 32 24 27 23
53 46 47 27 3 1 0 49 84 104 125 151 147 162 227 148 166 93 50 3 0 0 0 0 0 0 0 0 0 0 0 0 0 0 0 0 14 0 114 38 18 19 19
27 16 10 13 10 4 3 11 79 151 123 62 87 112 97 46 115 36 12 3 0 0 0 0 0 0 0 0 0 0 0 0 0 0 0 0 1 29 72 51 37 23 13
15 4 9 5 4 21 77 122 57 80 30 69 221 354 292 84 65 0 28 3 0 0 0 0 0 0 0 0 0 0 0 0 0 0 0 0 0 0 0 3 20 32 12
39 2 0 41 88 20 150 254 10 75 39 130 380 516 368 89 54 29 18 0 0 0 0 0 0 0 0 0 0 0 0 0 0 0 0 0 0 0 0 0 0 0 0
60 22 35 71 149 176 267 206 0 53 117 290 511 592 323 103 96 67 7 0 0 0 0 0 0 0 0 0 0 0 0 0 0 0 0 0 0 0 0 0 0 0 0
19 12 44 117 214 441 587 187 10 142 425 702 742 597 295 150 136 99 0 0 0 0 0 0 0 0 0 0 0 0 0 0 0 0 0 0 0 0 0 0 0 0 0
131 166 200 299 447 687 619 228 42 329 646 853 778 541 220 189 215 105 0 0 0 0 0 0 0 0 0 0 0 0 0 0 0 0 0 0 0 0 0 0 0 0 0
434 303 289 303 425 749 647 171 92 439 663 825 765 456 312 203 203 10 0 0 0 0 0 0 0 0 0 0 0 0 0 0 0 0 0 0 0 0 0 0 0 0 0
423 532 524 517 605 766 501 156 176 375 623 819 575 355 337 322 68 9 7 0 0 0 0 0 0 0 0 0 0 0 0 0 0 0 0 0 0 0 0 0 0 0 0
366 476 544 630 710 711 479 250 437 555 298 473 299 254 253 157 25 32 1 0 0 0 0 0 0 0 9 2 1 0 0 0 0 0 0 0 0 0 0 0 0 0 0
658 594 647 615 723 805 749 522 411 459 525 432 216 149 120 48 16 3 0 0 0 0 0 0 9 10 11 0 0 0 0 0 0 0 0 0 0 0 0 0 0 0 0
1001 885 1035 984 902 840 847 650 582 688 746 683 117 48 48 21 19 21 25 0 0 0 0 6 11 1 0 0 0 0 0 0 0 0 0 0 0 0 0 0 0 0 0
1303 1164 1096 1213 1099 920 944 862 844 861 888 388 45 67 57 63 54 44 32 28 0 0 1 17 26 16 0 0 0 0 0 0 0 0 0 0 0 0 0 0 2 4 7

GFSSE_con_mucape_033.txt.gz
CAPE
797 912 1356 1509 1410 1323 1204 1026 812 594 437 316 307 356 296 221 220 346 362 387 439 453 281 342 66 70 134 94 128 160 180 278 231 204 118 8 1 0 0 52 23 31 155
932 962 1232 1463 1476 1425 1253 965 709 506 418 425 480 372 294 320 401 449 494 553 626 582 473 181 0 0 7 48 89 129 91 158 265 222 41 0 1 2 3 0 1 8 10
867 1040 1374 1354 1418 1321 1131 879 642 475 509 540 442 442 465 450 539 575 701 737 772 773 477 122 0 0 21 68 165 119 44 52 4 111 101 0 3 10 6 19 43 2 6
755 996 1434 1235 1197 1094 906 724 565 578 570 498 536 576 544 606 599 764 1100 1140 945 937 493 137 60 53 91 147 154 137 58 0 9 150 23 11 3 21 23 9 0 21 14
577 746 1297 1036 1003 977 793 638 547 638 467 525 646 720 705 630 602 702 1065 1165 1136 1079 444 135 102 91 137 223 180 79 27 59 32 21 4 11 12 22 18 23 40 30 32
693 631 882 899 907 890 794 639 634 460 470 623 691 761 768 673 661 525 647 919 1147 974 180 140 67 48 212 199 98 9 0 20 124 30 14 9 8 17 22 26 38 54 43
805 1174 1048 870 896 910 778 694 614 500 641 702 699 714 744 722 696 531 416 571 657 556 263 111 52 93 132 55 0 0 4 3 1 15 11 7 11 10 10 13 16 5 4
1076 925 816 961 836 689 591 577 500 571 672 690 730 837 903 753 638 618 418 450 542 395 348 286 213 106 0 0 0 0 0 0 0 11 13 4 21 8 7 10 8 8 9
660 612 615 363 443 344 277 316 389 529 658 717 754 640 460 397 411 413 341 296 355 348 350 239 114 13 0 0 0 0 0 0 0 0 10 2 0 2 6 10 12 8 7
472 482 368 453 82 384 328 358 433 520 611 572 439 353 330 340 382 367 348 294 298 363 310 94 9 0 0 0 0 0 0 0 0 0 0 9 20 7 12 15 15 11 9
474 425 409 303 31 78 184 427 562 610 424 373 334 237 146 121 108 151 324 360 249 196 130 25 0 0 0 0 0 0 0 0 0 0 0 28 18 17 13 22 23 23 17
316 268 230 156 36 3 0 17 68 77 143 220 137 221 140 270 299 133 223 206 94 7 0 0 0 0 0 0 0 0 0 0 0 0 0 10 23 41 35 32 27 21 17
270 273 174 198 134 7 2 0 84 167 243 301 373 311 361 371 283 277 97 9 0 0 0 0 0 0 0 0 0 0 0 0 0 0 0 0 0 33 38 29 19 20 14
185 44 55 21 2 3 3 29 121 105 186 249 265 311 457 401 488 442 219 47 13 0 0 0 0 0 0 0 0 0 0 0 0 0 0 0 0 0 51 25 22 20 10
71 39 35 17 6 4 3 5 63 103 139 163 292 306 286 370 445 272 207 62 2 0 0 0 0 0 0 0 0 0 0 0 0 0 0 0 1 11 59 37 22 17 7
30 42 18 29 22 12 1 1 59 185 96 167 248 252 208 212 418 216 161 14 1 0 0 0 0 0 0 0 0 0 0 0 0 0 0 0 0 0 0 12 26 21 8
14 26 17 24 15 3 7 0 33 61 140 177 167 599 370 173 314 232 146 42 0 0 0 0 0 0 0 0 0 0 0 0 0 0 0 0 0 0 0 0 0 0 0
29 6 0 0 11 16 49 88 141 126 123 107 302 604 586 402 330 243 142 42 0 0 0 0 0 0 0 0 0 0 0 0 0 0 0 0 0 0 0 0 0 0 0
0 0 18 73 13 73 242 214 120 181 194 237 748 909 686 475 284 261 152 32 0 0 0 0 0 0 0 0 0 0 0 0 0 0 0 0 0 0 0 0 0 0 0
76 30 86 183 158 149 356 344 109 15 126 358 712 777 765 504 274 260 130 0 0 0 0 0 0 0 0 0 0 0 0 0 0 0 0 0 0 0 0 0 0 0 0
120 67 55 110 193 377 402 285 49 15 163 551 784 845 697 464 254 197 79 8 0 0 0 0 0 0 0 0 0 0 0 0 0 0 0 0 0 0 0 0 0 0 0
267 283 220 189 301 379 258 258 30 64 163 547 1029 793 708 577 226 144 109 0 0 0 0 0 0 0 0 0 0 0 0 0 0 0 0 0 0 0 0 0 0 0 0
451 397 400 397 434 548 427 280 39 40 360 482 690 778 755 534 244 95 63 0 1 0 0 0 0 0 0 0 0 0 0 0 0 0 0 0 0 0 0 0 0 0 0
456 585 535 504 485 532 531 333 107 228 294 561 691 702 602 538 290 77 13 3 0 0 0 0 0 0 0 3 0 0 0 0 0 0 0 0 0 0 0 0 0 0 0
571 564 728 609 627 649 728 640 463 438 477 538 691 730 561 597 227 48 7 11 7 17 0 0 0 0 0 10 1 0 0 0 0 0 0 0 0 0 0 0 0 0 0
766 1002 1040 710 639 715 861 942 1264 886 768 769 1171 703 573 259 35 44 30 30 27 34 34 1 0 0 0 0 3 0 0 0 0 0 0 0 0 0 0 0 0 0 1

GFSSE_con_mucape_036.txt.gz
CAPE
1051 1327 1393 1388 1355 1211 1114 948 797 625 476 462 428 361 312 410 539 569 541 519 680 564 31 94 2 0 0 0 0 15 179 173 82 18 7 7 0 0 0 47 19 10 193
1230 1626 1438 1423 1508 1413 1196 935 729 569 583 606 528 393 476 587 576 650 665 644 831 326 0 0 0 0 0 0 27 139 151 208 59 38 27 11 11 21 19 2 20 4 14
1248 1808 1686 1450 1543 1458 1169 929 746 711 772 660 538 539 622 687 747 800 751 772 829 306 0 0 0 0 0 0 79 58 47 100 155 165 24 0 16 21 18 30 41 13 13
1440 1754 1696 1369 1315 1233 1015 794 754 826 795 686 712 728 799 867 1022 976 897 834 739 405 0 0 0 0 0 44 103 87 100 91 118 84 1 0 4 39 39 23 30 25 21
1215 1501 1465 1212 1126 1081 874 743 750 756 688 738 780 917 884 1110 1360 1268 992 950 821 484 68 0 0 0 7 52 29 21 28 47 26 0 0 0 3 20 20 30 29 35 35
476 1221 1097 1033 931 899 827 892 801 677 720 744 811 869 863 1151 1376 1305 1126 1068 830 447 83 0 0 0 60 11 0 28 43 50 21 0 0 0 0 20 21 16 16 23 20
20 939 974 974 782 874 976 928 785 836 817 855 878 812 784 834 976 1062 1129 945 491 419 126 12 0 5 13 0 0 0 3 20 0 0 0 0 0 13 18 12 8 7 6
227 523 785 879 775 719 800 770 766 820 862 907 894 916 933 685 627 798 777 566 448 370 306 211 145 14 0 0 0 0 0 8 7 0 0 0 10 6 9 9 7 6 6
1 167 323 418 568 498 487 566 620 692 807 883 863 709 605 461 394 558 651 516 441 340 240 175 66 0 0 0 0 0 0 5 0 0 0 0 12 12 16 16 14 10 9
16 91 87 75 238 298 365 475 541 611 570 418 397 332 298 338 350 348 389 419 391 282 172 32 0 0 0 0 0 0 0 0 0 0 0 1 20 11 13 8 12 13 12
250 192 79 119 59 150 187 335 361 483 349 284 247 234 113 89 58 174 291 394 371 221 93 0 0 0 0 0 0 0 0 0 0 0 0 28 22 16 15 16 7 6 13
213 274 224 112 60 85 33 145 169 206 170 100 64 136 149 192 170 253 253 272 229 133 30 0 0 0 0 0 0 0 0 0 0 0 0 0 23 26 26 23 11 8 13
293 249 105 152 23 17 69 0 28 72 173 203 226 205 270 217 209 198 88 38 3 1 0 0 0 0 0 0 0 0 0 0 0 0 0 0 2 27 26 18 19 20 12
143 172 141 76 118 2 7 2 0 23 139 299 252 361 415 355 299 149 76 51 0 0 0 0 0 0 0 0 0 0 0 0 0 0 0 0 0 18 38 28 29 18 8
16 60 84 83 61 48 8 11 1 46 128 170 333 371 403 336 394 235 167 66 0 8 0 0 0 0 0 0 0 0 0 0 0 0 0 0 1 83 52 40 40 17 6
21 24 55 14 8 7 14 45 16 73 73 135 284 330 359 389 365 334 313 216 89 0 0 0 0 0 0 0 0 0 0 0 0 0 0 0 0 4 27 33 43 26 11
6 0 10 10 30 4 4 5 21 17 3 58 220 296 321 162 231 351 153 166 91 3 1 0 0 0 0 0 0 0 0 0 0 0 0 0 0 0 0 0 0 0 0
8 15 16 0 11 0 0 1 3 5 87 154 160 370 365 321 360 480 285 150 57 0 0 0 0 0 0 0 0 0 0 0 0 0 0 0 0 0 0 0 0 0 0
0 0 0 0 0 2 1 0 4 56 211 214 158 569 555 551 379 348 283 158 39 0 0 0 0 0 0 0 0 0 0 0 0 0 0 0 0 0 0 0 0 0 0
0 0 0 0 0 0 7 20 4 25 81 54 129 467 423 442 402 343 380 129 21 0 0 0 0 0 0 0 0 0 0 0 0 0 0 0 0 0 0 0 0 0 0
0 0 0 0 0 18 15 7 109 0 2 11 331 483 494 490 338 328 288 77 26 0 0 0 0 0 0 0 0 0 0 0 0 0 0 0 0 0 0 0 0 0 0
0 0 0 3 5 8 18 122 103 0 0 21 472 521 397 333 274 295 246 84 21 0 0 0 0 0 0 0 0 0 0 0 0 0 0 0 0 0 0 0 0 0 0
32 7 52 116 95 67 118 181 153 10 3 2 565 652 565 476 447 185 142 85 30 6 0 0 0 0 0 0 0 0 0 0 0 0 0 0 0 0 0 0 0 0 0
205 130 89 41 45 98 173 89 142 2 0 56 533 585 588 646 493 258 152 115 44 14 3 0 0 0 0 0 0 0 0 0 0 0 0 0 0 0 0 0 0 0 0
388 346 278 263 244 270 345 368 284 37 3 35 512 558 646 573 508 292 199 58 28 21 32 35 23 4 0 0 0 0 0 0 0 0 0 0 0 0 0 0 0 0 0
405 517 588 459 442 376 449 411 494 145 191 346 493 577 521 380 463 369 136 50 19 32 28 11 11 0 0 0 0 0 0 0 0 0 0 0 0 0 0 0 0 0 0

GFSSE_con_mucape_039.txt.gz
CAPE
678 1440 1469 1547 1475 1309 1041 808 662 580 545 487 421 529 719 862 748 752 719 352 403 251 0 0 0 0 0 0 0 4 40 35 14 1 16 14 4 2 3 0 4 9 54
288 829 1402 1509 1483 1335 1074 790 602 625 590 500 558 732 813 811 737 869 560 315 309 148 0 0 0 0 0 0 27 146 65 45 29 52 17 11 22 25 12 9 17 6 18
12 31 1273 1456 1578 1378 1040 806 748 766 629 632 761 782 865 909 851 957 455 254 234 123 0 0 0 0 0 0 32 83 119 35 41 26 0 12 8 30 40 23 31 15 15
0 271 970 1392 1493 1260 877 804 779 756 718 833 883 925 986 1011 986 1019 394 287 285 128 0 0 0 0 0 10 32 34 36 22 10 0 0 0 16 39 35 42 40 36 24
568 931 1193 1193 1276 1031 824 816 690 708 779 887 962 1141 1141 1157 1186 1024 498 414 402 153 0 0 0 0 0 14 17 22 27 6 0 0 0 0 7 22 34 34 37 46 42
734 905 907 958 1000 982 896 877 762 757 760 849 996 1350 1476 1457 1314 1031 633 608 415 85 0 0 0 0 0 0 11 10 8 0 0 0 0 0 0 17 18 21 21 21 17
666 735 593 769 674 887 1068 959 893 772 818 857 1121 1421 1533 1472 1394 1130 671 562 298 143 6 0 0 0 0 0 14 10 8 0 0 0 0 0 1 10 15 15 13 14 14
242 124 37 399 684 755 762 763 947 917 837 828 911 1126 1391 1405 1328 942 623 485 321 247 131 31 0 0 0 0 1 0 0 0 0 0 0 0 16 15 15 14 12 11 11
406 389 309 232 477 232 231 528 746 791 810 851 726 701 740 834 857 702 608 492 336 237 125 20 0 0 0 0 0 0 0 0 0 0 0 0 21 17 19 12 12 13 13
171 111 185 123 147 214 284 522 616 605 455 339 324 229 237 474 630 510 400 342 242 184 86 0 0 0 0 0 0 0 0 0 0 0 0 0 15 22 28 22 22 16 14
69 87 107 105 82 124 131 368 500 456 229 178 136 56 32 87 152 212 325 308 227 112 34 0 0 0 0 0 0 0 0 0 0 0 0 26 20 19 24 18 16 15 19
87 54 46 25 14 18 50 148 262 124 48 13 5 9 10 62 92 205 278 258 186 97 37 12 0 0 0 0 0 0 0 0 0 0 0 19 26 25 26 21 21 18 13
230 146 74 16 21 0 34 5 76 73 14 23 46 46 88 105 74 87 124 89 51 11 0 0 0 0 0 0 0 0 0 0 0 0 0 2 27 24 23 15 21 19 16
121 106 105 10 55 25 1 1 20 22 28 53 89 110 104 99 61 47 13 0 2 4 0 0 0 0 0 0 0 0 0 0 0 0 0 0 1 12 19 19 17 12 7
113 24 2 4 3 23 9 0 13 15 68 107 154 169 174 117 68 44 12 0 5 0 0 0 0 0 0 0 0 0 0 0 0 0 0 0 0 36 33 37 16 16 6
24 18 7 15 16 15 5 9 0 26 52 33 153 162 201 194 100 50 80 54 1 0 0 0 0 0 0 0 0 0 0 0 0 0 0 0 1 47 49 45 25 11 3
21 26 7 3 8 11 5 9 0 28 16 24 86 170 144 183 181 200 177 102 26 0 0 0 0 0 0 0 0 0 0 0 0 0 0 0 0 0 10 32 1 0 0
6 2 0 13 9 7 4 1 5 0 0 3 9 64 113 134 153 159 112 75 3 0 0 0 0 0 0 0 0 0 0 0 0 0 0 0 0 0 0 0 0 0 0
0 0 2 1 9 1 6 4 0 5 0 2 0 1 91 179 114 163 94 76 0 0 0 0 0 0 0 0 0 0 0 0 0 0 0 0 0 0 0 0 0 0 0
0 0 0 0 1 3 6 7 10 0 0 0 21 91 161 180 202 156 138 93 12 0 0 0 0 0 0 0 0 0 0 0 0 0 0 0 0 0 0 0 0 0 0
0 0 0 0 0 0 0 0 0 0 0 6 7 202 246 200 351 258 155 167 35 0 0 0 0 0 0 0 0 0 0 0 0 0 0 0 0 0 0 0 0 0 0
0 0 0 0 0 0 0 0 0 0 9 0 0 61 229 258 292 270 156 116 68 19 1 0 0 0 0 0 0 0 0 0 0 0 0 0 0 0 0 0 0 0 0
0 0 0 0 0 0 0 0 0 2 22 0 0 39 194 270 219 128 181 147 92 48 2 0 0 0 0 0 0 0 0 0 0 0 3 11 0 0 0 0 0 0 0
0 0 0 0 0 0 0 0 0 0 0 0 0 130 198 237 104 71 206 152 160 57 10 16 16 22 11 7 0 0 0 0 5 0 0 1 0 0 0 0 0 0 0
0 0 0 0 0 0 0 0 0 0 0 0 0 185 220 180 243 283 156 98 93 50 30 35 5 1 8 4 0 0 1 1 0 0 0 0 0 0 0 0 0 0 0
16 11 0 0 0 0 0 0 12 17 12 1 0 272 269 307 340 359 232 191 119 65 51 32 15 0 0 2 3 1 7 0 0 0 0 0 0 0 0 0 0 0 0

GFSSE_con_mucape_042.txt.gz
CAPE
1152 1129 1332 1362 1545 1370 867 695 603 552 590 640 841 845 965 889 591 540 516 362 275 137 0 0 3 3 1 1 0 3 13 10 17 28 26 12 11 18 20 21 56 36 72
1109 1066 992 1138 1391 1149 895 700 683 578 676 923 981 931 1083 810 647 611 420 317 170 34 1 5 6 3 4 3 35 57 58 46 18 19 29 27 17 16 14 14 31 27 56
766 1105 877 678 1252 1130 906 833 722 701 956 1099 997 972 1177 794 650 546 397 208 56 6 0 3 3 5 20 36 109 65 39 13 8 20 10 0 8 27 32 21 38 22 36
606 657 450 531 967 1027 886 769 658 887 1026 1121 1084 1106 1265 815 684 537 360 177 41 0 0 0 0 0 0 6 11 53 0 0 0 0 0 4 21 43 44 40 38 26 19
110 92 461 594 584 939 943 704 662 846 939 1013 1085 1300 1409 884 794 623 361 214 86 2 0 0 0 0 0 0 0 8 6 0 0 0 0 0 1 9 36 33 29 35 35
386 501 816 614 747 843 675 795 840 889 809 906 1049 1375 1455 971 885 676 366 243 73 0 0 0 0 0 1 26 21 10 0 0 0 0 0 0 0 17 22 20 13 18 17
809 707 708 481 347 521 337 730 973 890 912 1010 1142 1265 1302 1050 965 706 334 154 40 0 0 0 0 0 0 27 10 0 0 0 0 0 0 0 5 24 22 18 18 17 18
633 695 680 748 548 321 205 795 758 847 1100 1223 1198 1253 1331 1079 852 638 330 207 131 52 0 0 0 0 0 0 0 0 0 0 0 0 0 0 18 15 19 16 16 21 21
528 529 427 197 79 245 14 454 529 700 825 1050 1136 1183 1173 699 679 555 399 256 79 34 0 0 0 0 0 0 0 0 0 0 0 0 0 0 20 21 23 19 18 17 16
450 342 161 390 70 38 61 424 455 457 501 653 725 716 519 536 543 416 209 163 72 27 7 0 0 0 0 0 0 0 0 0 0 0 0 3 23 23 21 21 20 13 13
366 240 119 23 34 11 28 315 296 324 250 393 476 485 224 129 99 23 84 141 63 29 2 0 0 0 0 0 0 0 0 0 0 0 0 19 19 13 12 11 19 13 12
145 65 6 0 64 60 70 95 78 37 71 155 179 215 104 28 35 28 63 64 39 37 20 0 0 0 0 0 0 0 0 0 0 0 0 17 23 17 24 29 5 21 16
100 55 33 0 20 25 29 80 48 2 0 1 12 61 26 29 51 45 33 6 0 11 0 0 0 0 0 0 0 0 0 0 0 0 0 2 25 36 34 21 16 12 10
116 63 56 32 7 0 0 5 0 0 0 0 14 30 6 12 30 23 6 0 5 0 0 0 0 0 0 0 0 0 0 0 0 0 0 0 42 33 31 23 11 11 8
64 35 71 39 18 14 13 1 0 0 3 24 25 6 9 10 12 2 0 0 3 6 0 0 0 0 0 0 0 0 0 0 0 0 0 0 19 29 27 24 17 8 19
76 51 32 71 42 41 36 17 0 18 30 51 23 22 33 15 3 5 0 0 0 2 0 0 0 0 0 0 0 0 0 0 0 0 0 0 0 20 26 27 21 10 7
8 23 47 5 35 29 59 11 8 1 45 41 65 49 51 35 29 6 15 12 0 0 0 0 0 0 0 0 0 0 0 0 0 0 0 0 0 0 19 36 3 4 0
19 24 18 26 7 1 11 4 2 0 6 12 44 48 114 118 111 119 112 50 17 0 0 0 0 0 0 0 0 0 0 0 0 0 0 0 0 0 0 0 0 0 0
1 8 8 22 6 13 8 4 3 1 1 9 18 22 72 88 122 159 110 92 43 14 0 0 0 0 0 0 0 0 0 0 0 0 0 0 0 0 0 0 0 0 0
0 0 0 0 13 9 8 3 5 4 8 2 0 2 13 35 44 48 33 27 1 0 0 0 0 0 0 0 0 0 0 0 0 0 0 0 0 0 0 0 0 0 0
0 0 0 0 0 0 8 1 0 0 0 2 0 0 21 0 83 57 24 46 40 0 0 0 0 0 0 0 0 0 0 0 0 0 0 0 0 0 0 0 0 0 0
0 0 0 0 0 0 0 0 1 0 0 0 0 0 6 95 48 134 94 66 39 5 1 0 0 0 0 0 0 0 0 0 0 0 0 0 0 0 0 0 0 0 0
0 0 0 0 0 0 0 0 0 0 0 0 0 0 0 66 131 122 210 108 57 62 26 13 19 5 10 4 0 0 1 0 0 0 0 0 0 0 0 0 0 0 0
0 0 0 0 0 0 0 0 0 0 0 0 0 0 0 13 86 129 159 151 103 92 28 47 45 21 27 8 0 2 13 6 0 0 0 3 5 6 2 0 0 0 0
0 0 0 0 0 0 0 0 0 0 0 0 0 0 0 0 21 162 215 82 148 136 114 62 44 22 23 2 5 4 17 1 0 40 0 0 3 1 3 0 0 0 0
0 0 0 0 0 0 0 0 0 0 0 0 3 0 0 0 21 114 180 33 104 143 103 72 37 25 28 13 10 15 16 9 19 0 1 0 0 0 0 0 0 1 4

GFSSE_con_mucape_045.txt.gz
CAPE
1118 1189 1161 1132 1282 1104 983 933 891 843 805 633 751 997 804 741 628 513 387 243 169 260 52 12 7 5 7 11 20 19 19 36 27 29 36 25 30 22 48 57 61 41 76
1200 1160 1036 621 1058 1095 1117 1019 961 1054 1055 1137 1184 934 841 755 661 524 333 263 390 329 67 39 14 11 8 6 6 7 1 12 28 41 37 22 26 28 22 24 48 49 67
1205 1199 1005 1072 1094 765 887 1017 1133 1269 1253 1372 1127 980 959 727 633 400 255 368 476 437 107 64 29 24 8 59 9 14 7 12 27 27 21 14 7 20 23 23 25 24 36
1260 946 848 1045 917 664 543 733 1166 1367 1295 1460 1203 990 841 676 493 269 197 350 533 440 100 58 30 21 7 16 60 13 1 0 4 3 7 3 19 47 40 37 27 23 25
1272 912 582 906 645 378 200 444 1165 1194 1176 1450 1154 1039 812 666 489 239 120 269 503 218 13 0 0 0 26 183 23 9 0 0 0 0 0 0 10 15 40 35 18 16 21
1210 930 712 794 562 387 184 219 1089 1139 1026 1311 984 930 814 607 445 242 80 226 458 45 0 0 0 2 21 14 10 0 0 0 0 0 0 2 4 28 23 23 22 22 24
664 392 551 638 444 402 236 253 1089 1008 1023 1072 925 814 675 541 427 166 97 136 50 0 0 0 200 55 9 0 0 0 0 0 0 0 0 0 7 24 28 25 8 7 8
854 490 375 504 436 228 126 116 853 984 984 1020 903 799 778 497 306 150 88 13 0 0 0 0 22 0 0 0 0 0 0 0 0 0 0 0 26 25 27 25 25 22 27
851 710 451 331 258 108 36 28 327 908 855 840 853 783 696 324 181 143 15 0 0 0 0 0 0 0 0 0 0 0 0 0 0 0 0 3 24 25 17 22 25 21 18
670 604 482 320 123 14 30 95 363 757 885 1002 936 614 372 249 137 24 0 0 0 0 0 0 0 6 12 0 0 0 0 0 0 0 0 5 26 19 18 19 14 16 15
502 339 306 234 121 13 5 2 226 724 850 871 567 364 111 10 0 0 0 0 0 0 0 0 0 11 4 0 0 0 0 0 0 0 0 27 16 20 11 14 12 14 14
375 279 128 61 26 7 6 6 120 452 321 325 256 112 0 0 0 0 0 0 0 0 0 0 0 0 0 0 0 0 0 0 0 0 0 21 22 21 25 23 12 14 16
121 85 96 0 9 5 6 66 92 93 103 209 199 27 0 0 0 0 0 0 0 0 0 0 0 0 0 0 0 0 0 0 0 0 0 17 26 21 29 28 10 10 10
111 45 11 19 6 9 11 20 24 87 190 268 126 0 0 0 0 0 0 0 0 0 0 0 0 0 0 0 0 0 0 0 0 0 0 0 42 35 38 27 20 8 9
99 88 19 60 37 0 20 0 0 69 147 165 79 0 0 0 0 0 0 0 0 0 0 0 0 0 0 0 0 0 0 0 0 0 0 0 33 41 32 20 17 11 5
32 45 69 19 18 7 6 2 20 53 54 51 2 0 0 0 0 0 0 2 3 0 0 0 0 0 0 0 0 0 0 0 0 0 0 0 8 29 42 23 20 6 7
7 13 14 50 34 28 10 11 0 0 11 0 0 0 0 0 0 0 4 8 8 3 0 0 0 0 0 0 0 0 0 0 0 0 0 0 0 0 9 29 12 5 0
7 16 32 34 35 18 38 12 10 36 40 45 8 0 0 0 3 5 6 6 5 1 0 0 0 0 0 0 0 0 0 0 0 0 0 0 0 0 0 0 4 0 0
10 11 14 24 11 27 31 17 11 42 51 61 40 24 12 9 24 65 88 73 19 13 2 0 0 0 0 0 0 0 0 0 0 0 0 0 0 0 0 0 0 0 0
6 19 6 15 25 18 1 5 6 69 65 76 73 88 79 67 96 120 83 111 85 40 7 0 0 0 0 0 0 0 0 0 0 0 0 0 0 0 0 0 0 0 0
0 6 26 0 6 3 3 4 1 14 13 17 11 23 65 73 96 101 93 111 97 58 5 0 0 0 0 0 0 0 0 0 0 0 0 0 0 0 0 0 0 0 0
0 0 0 10 0 8 8 7 3 7 8 12 0 0 1 15 18 35 55 48 60 22 0 0 0 3 0 0 1 1 0 0 0 0 2 1 0 0 0 0 2 0 0
0 0 0 0 4 0 1 0 3 1 3 2 1 0 0 0 8 48 51 79 63 43 51 10 17 19 3 11 10 15 4 0 0 9 4 6 5 11 10 6 8 5 0
0 0 0 0 0 0 0 0 0 0 0 0 0 0 0 0 6 78 121 133 128 191 70 54 33 38 49 40 34 19 11 0 0 10 3 0 14 0 10 11 11 9 0
0 0 0 0 0 0 0 0 0 0 0 0 0 0 0 0 0 11 130 189 164 223 149 95 78 69 51 41 34 26 8 12 17 14 9 8 1 13 9 12 12 0 0
0 0 0 0 0 0 0 0 0 0 0 0 0 0 0 0 0 0 0 28 160 203 194 168 133 87 45 54 27 18 4 14 22 29 17 3 1 0 1 0 0 0 0

GFSSE_con_mucape_048.txt.gz
CAPE
634 109 1507 1371 1256 1128 913 917 981 1113 1303 1319 1159 1235 1036 1010 966 843 544 385 344 346 68 26 24 27 30 27 16 13 20 30 37 47 104 58 67 73 69 64 61 52 93
1097 1320 1436 1437 1326 1057 1113 1032 957 932 1031 1205 1230 1086 1025 959 857 553 402 454 451 327 20 16 16 10 10 12 21 28 33 39 36 42 49 36 38 30 53 46 67 39 64
1261 1232 906 1383 1377 1263 1070 1200 1166 1203 1394 1369 1134 1023 979 889 625 482 520 501 487 419 89 97 71 36 17 11 21 31 24 27 32 19 28 5 8 21 18 13 28 9 20
1446 1053 999 1380 1355 1314 1311 1422 1406 1626 1588 1286 1173 1033 943 778 581 674 531 454 516 492 154 178 220 102 26 56 61 24 12 12 12 19 20 38 41 58 47 33 18 12 25
1335 1087 1239 1166 946 1073 1192 1396 1462 1607 1375 1204 1183 1013 904 711 754 729 538 469 555 441 149 171 157 73 50 44 21 13 0 0 0 0 1 4 9 30 20 17 18 17 20
1319 1168 1266 932 911 798 858 1244 1250 1447 1223 1111 1019 951 775 601 746 678 427 453 358 39 0 0 32 166 14 1 1 0 0 0 0 0 3 9 0 27 21 16 12 9 10
1508 1100 993 810 685 632 565 595 831 1013 1179 981 894 708 564 455 462 516 372 178 14 7 17 111 65 24 0 0 0 0 0 0 0 0 0 1 8 31 12 22 25 22 18
1224 1104 760 840 754 478 110 35 266 416 805 832 748 631 512 333 342 392 86 0 10 368 337 232 19 0 0 0 0 0 0 0 0 0 0 2 31 22 26 16 19 15 17
757 741 624 509 493 283 67 4 100 313 596 774 674 570 459 296 177 102 1 0 1 189 92 19 0 0 0 0 0 0 0 0 0 0 0 2 32 18 21 17 17 17 16
793 739 212 394 169 100 40 7 11 150 279 656 680 569 359 238 104 0 0 0 0 0 0 7 3 0 0 0 0 0 0 0 0 0 0 8 24 15 16 16 12 11 11
637 605 354 315 136 31 77 60 4 25 310 555 658 400 202 69 0 0 0 0 0 0 0 17 29 2 0 0 0 0 0 0 0 0 2 33 20 15 14 11 11 6 6
443 537 318 225 166 74 69 18 3 5 164 375 362 257 111 8 0 0 0 0 0 0 0 28 28 16 0 0 0 0 0 0 0 0 1 29 28 17 11 7 7 6 5
195 230 161 183 130 71 25 21 0 49 69 228 260 185 60 1 0 0 0 0 0 0 0 0 0 0 0 0 0 0 0 0 0 0 12 28 19 16 13 10 6 11 8
438 130 28 89 87 36 32 11 5 3 15 117 199 95 46 18 0 0 0 0 0 0 0 0 0 0 0 0 0 0 0 0 0 0 1 22 29 20 18 17 16 10 8
85 59 63 46 26 0 2 6 16 24 41 110 114 78 73 9 1 2 0 0 0 0 0 0 0 0 0 0 0 0 0 0 0 0 0 5 29 26 27 25 25 13 9
77 72 92 29 17 1 2 10 0 20 72 78 85 79 27 4 10 11 10 1 0 0 0 0 0 0 0 0 0 0 0 0 0 0 0 0 8 41 48 28 20 14 11
25 59 22 69 15 9 2 1 2 3 4 5 77 74 27 14 9 14 18 13 3 0 0 0 0 0 0 0 0 0 0 0 0 0 0 0 0 8 34 53 18 9 1
46 20 40 17 15 7 6 6 4 4 2 16 57 83 29 8 3 7 13 12 5 14 15 3 0 0 0 0 0 0 0 0 0 0 0 0 0 0 5 22 38 18 2
7 4 36 25 35 16 23 1 26 28 22 53 101 67 34 17 3 8 14 10 7 12 17 33 4 0 0 0 0 0 0 0 0 0 0 0 0 0 0 0 6 5 0
4 21 2 27 15 7 27 31 56 70 78 54 65 46 38 27 16 15 26 42 17 27 46 63 14 8 0 0 0 0 0 0 0 0 0 0 0 0 0 0 0 0 0
0 8 0 6 7 14 12 27 4 0 8 14 58 89 79 62 57 61 79 82 53 47 88 72 4 1 0 0 0 0 0 0 0 0 0 0 0 0 0 0 0 0 0
0 1 1 3 21 18 10 9 2 4 7 78 116 82 141 117 109 103 119 98 181 97 112 81 24 11 0 0 0 0 0 0 0 0 0 1 1 2 11 2 8 5 0
0 0 1 0 0 8 9 2 5 1 1 0 43 68 51 83 71 39 73 93 142 112 104 77 30 14 5 1 3 3 2 2 1 3 0 1 0 2 4 6 0 11 12
0 0 0 0 2 0 3 0 0 5 0 0 8 9 3 7 6 6 10 47 88 73 95 122 89 43 13 13 32 23 32 34 13 0 0 2 26 16 23 10 20 4 10
0 0 0 0 0 0 0 0 0 0 0 0 5 0 0 0 0 0 2 5 79 101 98 156 153 94 54 61 41 41 40 38 20 9 23 3 36 22 18 5 4 9 0
0 0 0 0 0 0 0 0 0 0 0 0 0 0 0 0 0 0 0 0 3 106 165 209 178 153 130 58 58 52 86 42 33 28 21 33 41 1 11 1 1 11 5

GFSSE_con_mucape_051.txt.gz
CAPE
392 503 1225 1255 1448 1564 1663 1661 1535 1449 1443 1521 1337 1220 1284 1343 1210 1108 1070 952 891 768 217 64 92 75 22 26 34 29 76 172 201 182 148 135 76 72 55 87 79 51 92
274 831 1259 1258 1433 1562 1754 1829 1668 1604 1640 1543 1363 1277 1279 1315 1188 889 748 698 642 505 71 46 38 22 29 22 24 63 62 49 55 75 85 50 50 46 34 34 75 39 36
337 913 1028 1299 1555 1620 1698 1825 1835 1831 1690 1600 1381 1318 1296 1093 804 642 522 412 380 292 23 27 23 26 44 38 101 58 22 13 12 18 29 15 14 17 9 28 28 15 22
824 1351 1292 1414 1345 1611 1603 1579 1619 1841 1767 1532 1428 1268 1162 878 774 688 519 394 397 344 33 36 27 23 37 67 87 53 27 32 35 29 8 10 17 26 23 19 20 20 19
1376 1351 1460 1550 1495 1649 1677 1576 1705 1693 1524 1391 1280 1199 963 900 852 757 567 585 477 336 111 64 49 37 37 62 23 18 14 9 17 14 28 30 23 18 27 18 21 24 23
1285 1382 1460 1482 1537 1739 1809 1721 1733 1497 1325 1184 1126 996 958 1006 956 755 600 497 533 487 355 96 15 10 59 13 14 5 2 2 2 3 6 11 20 25 20 22 23 26 23
1272 1560 1351 1099 1156 1671 1862 1866 1725 1422 1255 1100 1036 794 883 987 823 644 517 468 433 404 303 221 4 6 6 0 0 0 0 0 0 2 6 13 22 29 28 24 26 24 13
1111 1238 1286 1086 955 1161 1433 1499 1403 1263 1174 1051 839 667 827 753 562 478 253 153 150 286 442 257 60 2 0 0 0 0 0 0 0 3 9 20 30 19 19 16 13 10 10
848 799 719 840 575 395 633 767 827 906 833 753 570 422 461 449 379 202 140 359 333 418 281 150 2 0 0 0 0 0 0 0 0 1 4 8 16 14 16 12 12 10 8
623 693 371 256 558 176 231 246 446 510 317 253 420 258 260 250 150 55 224 474 427 289 190 55 14 1 4 0 0 0 0 0 0 2 4 10 24 20 18 17 11 12 8
620 674 517 666 445 173 104 3 128 358 262 174 325 203 146 118 0 0 54 258 220 109 63 30 14 10 4 0 0 0 0 1 2 5 5 32 28 24 21 14 12 10 7
332 437 294 273 194 83 56 33 48 166 133 123 334 254 97 39 0 0 21 58 85 90 68 55 24 6 0 0 0 0 0 0 1 6 8 34 26 23 18 11 7 7 4
201 284 226 156 189 172 79 34 31 10 59 94 343 159 47 0 0 1 2 14 32 57 52 22 4 0 0 0 0 0 0 0 3 10 16 38 19 15 19 12 7 7 7
114 138 153 127 136 149 61 41 13 7 40 91 310 88 0 10 0 3 2 0 0 9 63 12 0 0 0 0 0 0 0 0 1 8 15 36 37 10 13 9 0 0 0
185 140 104 190 101 88 49 11 8 3 42 93 195 72 6 12 5 0 0 0 0 0 0 0 0 0 0 0 0 0 0 0 1 6 17 22 43 29 20 18 4 0 0
24 54 68 52 75 32 4 9 10 10 39 99 141 79 74 25 6 0 0 0 0 0 0 0 0 0 0 0 0 0 0 0 0 0 6 14 15 37 35 22 22 19 0
43 61 2 18 23 1 12 24 18 28 41 84 90 91 107 17 12 3 0 0 0 0 0 0 0 0 0 0 0 0 0 0 0 0 0 3 10 2 30 37 20 19 13
33 52 41 6 34 4 7 1 23 20 19 33 60 94 49 26 10 8 16 16 10 4 0 0 0 0 0 0 0 0 0 0 0 0 0 0 0 0 2 16 33 33 21
25 19 5 8 3 0 9 2 13 16 12 17 40 78 58 42 17 31 38 41 42 32 14 18 7 0 0 0 0 0 0 0 0 0 0 0 0 0 0 1 10 17 26
4 0 2 21 5 18 7 8 8 6 11 15 52 58 55 43 25 17 29 41 28 26 26 59 51 7 0 0 0 0 0 0 0 0 0 0 0 0 4 23 48 22 3
0 4 0 7 9 0 2 0 8 7 0 0 93 75 77 77 65 58 34 15 18 7 47 69 65 46 7 0 0 0 0 0 0 0 0 0 0 0 0 4 48 21 3
0 0 3 0 14 7 15 13 1 4 4 3 21 60 86 91 64 81 84 53 38 39 32 52 67 40 25 11 5 1 0 0 0 0 5 6 0 7 0 0 0 3 4
0 0 0 0 20 3 7 3 2 4 2 1 37 51 37 71 67 115 146 146 102 114 37 51 75 53 29 7 31 23 0 0 0 0 5 4 13 0 0 5 0 0 0
1 0 0 0 1 16 1 3 18 2 7 0 7 6 59 60 70 116 183 136 90 134 129 114 92 71 43 18 8 28 27 33 27 6 9 9 4 13 18 8 0 0 0
3 0 0 0 0 3 10 6 5 3 8 6 8 1 29 27 33 56 62 111 141 119 112 82 58 61 112 83 75 55 61 31 41 26 17 5 31 16 5 9 0 1 0
0 0 0 0 0 0 1 0 2 4 4 0 2 3 1 24 9 10 7 65 104 114 99 57 61 75 92 148 126 66 26 28 30 28 21 14 3 39 20 29 11 2 3

GFSSE_con_mucape_054.txt.gz
CAPE
914 906 1242 1557 1903 1819 1625 1542 1484 1482 1514 1556 1337 1317 1235 1267 1246 1121 1005 891 767 761 308 227 101 55 197 145 139 126 184 282 281 371 307 249 155 175 123 277 202 74 98
1101 890 1109 1499 1817 1905 1756 1653 1670 1683 1729 1659 1398 1465 1352 1375 1376 1353 1201 772 768 657 218 77 24 20 50 27 52 183 239 256 235 262 263 97 98 87 49 51 117 39 30
1093 1172 1176 1515 1637 2140 1992 1912 1869 1965 1878 1669 1623 1611 1525 1464 1412 1209 978 789 699 595 126 21 22 26 28 24 75 58 46 61 95 50 83 29 15 29 21 13 29 15 18
907 1259 1035 1560 1579 2131 2110 2030 2010 2127 1965 1710 1785 1664 1512 1244 1065 892 602 459 382 332 26 29 34 25 24 72 78 73 48 1 0 30 15 39 25 25 19 17 15 11 13
1125 1095 928 1526 1744 1826 2123 2121 2056 1948 1812 1694 1674 1536 1349 1199 984 760 417 305 334 223 24 24 38 34 31 40 25 13 16 21 16 10 8 12 21 19 15 12 15 13 12
1517 1405 1384 1385 1640 1736 1945 2021 1997 1819 1601 1458 1398 1303 1309 1274 1038 758 403 387 501 382 68 20 26 26 23 17 12 6 6 0 13 0 2 11 7 13 10 9 7 10 9
1401 1690 1477 1313 1530 1321 1072 2009 1891 1676 1463 1415 1251 1217 1240 1228 1021 754 476 514 510 438 78 18 19 5 1 1 0 0 0 0 0 0 3 7 25 21 21 19 8 12 8
1231 1785 1549 1444 1290 1153 1275 1168 1482 1369 1129 1264 1189 1216 1263 1107 836 656 597 508 341 331 144 100 23 2 0 0 0 0 0 0 1 1 6 8 27 19 19 10 9 7 7
927 1120 1547 1401 1037 946 804 1115 1176 1102 1031 1019 1120 1150 1011 801 641 518 372 368 423 338 175 116 12 0 0 0 0 0 0 3 2 2 2 7 16 19 17 14 12 12 11
1089 951 638 633 866 839 1009 293 698 851 831 778 875 748 569 520 291 300 299 511 497 305 148 111 28 0 0 0 0 0 0 0 4 1 4 10 26 24 23 17 16 12 12
621 717 446 154 137 355 304 248 637 663 561 523 537 390 305 294 192 112 105 413 351 132 101 99 26 0 0 0 0 0 0 1 3 2 6 35 32 23 23 18 16 13 15
383 502 564 100 233 219 109 89 54 215 377 257 112 181 326 335 141 38 347 312 211 100 103 74 22 0 0 0 0 0 3 3 6 5 7 38 28 26 25 19 14 11 11
374 272 582 234 255 61 5 11 6 89 30 13 9 93 238 225 53 243 417 286 173 53 8 9 0 0 0 0 0 0 4 5 10 8 13 39 25 16 20 17 11 6 5
107 165 305 305 169 145 45 59 42 97 64 35 18 94 405 192 169 143 142 156 108 52 34 13 2 0 0 0 0 0 4 7 19 17 16 37 36 19 19 15 11 0 0
22 127 83 139 157 148 156 116 49 36 20 32 85 171 206 147 140 61 107 129 127 141 94 45 17 11 0 0 0 0 2 2 16 15 12 22 31 27 15 17 15 0 0
65 136 88 73 77 71 127 83 10 26 12 67 80 182 104 98 101 24 33 12 29 97 89 23 15 4 0 0 0 0 0 1 4 10 15 19 21 42 40 21 16 10 4
23 9 13 74 94 74 68 15 12 12 15 93 131 184 92 63 79 63 3 6 6 10 18 1 6 0 0 0 0 0 0 0 0 3 6 19 13 19 35 46 22 14 4
54 16 51 20 3 13 0 2 3 15 43 82 139 132 70 16 63 51 9 6 2 2 3 0 3 0 0 0 0 0 0 0 0 0 0 3 25 24 20 41 48 45 9
8 22 43 36 6 1 0 0 7 7 11 37 138 96 60 21 4 26 8 15 28 10 6 0 0 0 0 0 0 0 0 0 0 0 0 0 0 2 50 14 25 25 54
3 13 8 1 17 2 0 3 8 4 3 35 64 122 94 32 41 38 16 34 53 27 27 1 0 0 0 0 0 0 0 0 0 0 0 0 0 0 1 27 45 24 14
15 2 0 6 3 1 2 0 0 12 0 0 2 75 174 58 53 70 32 56 51 73 73 52 43 27 0 0 0 0 0 0 0 0 0 0 0 0 1 2 18 52 22
14 2 0 2 0 3 17 0 0 0 1 3 5 50 135 171 60 88 64 49 46 101 146 128 93 44 40 19 0 17 7 1 0 0 0 0 0 0 0 2 0 4 20
15 21 0 0 4 14 8 2 6 0 1 1 0 68 144 190 114 104 114 103 85 87 127 194 187 164 175 57 56 110 94 49 79 0 0 0 0 0 0 0 0 0 0
5 19 27 5 0 4 0 0 0 1 0 0 0 29 93 168 150 115 133 157 204 151 131 207 215 206 276 198 21 52 102 159 144 93 0 0 3 0 0 0 0 0 0
0 13 13 16 0 0 4 1 5 1 1 0 1 0 113 155 146 107 133 208 274 346 302 354 300 302 289 483 163 159 45 46 26 22 149 32 1 24 20 27 8 0 0
0 6 8 17 0 1 1 4 3 12 7 3 0 0 0 31 132 180 173 268 303 292 361 490 467 398 372 306 388 308 231 149 74 27 14 28 8 5 8 19 22 17 6

GFSSE_con_mucape_057.txt.gz
CAPE
1226 1320 1340 1643 1981 1660 1649 1476 1450 1452 1521 1476 1373 1340 1482 1336 1250 1052 881 842 890 931 597 515 386 327 330 292 200 248 405 339 284 360 367 358 239 231 164 394 261 42 84
1275 1391 1315 1620 2129 1964 1805 1636 1579 1635 1716 1638 1505 1435 1515 1397 1308 1145 1100 1024 975 816 316 234 312 216 168 147 164 375 334 268 242 309 355 125 85 94 58 179 143 14 9
1346 1544 1183 1445 1935 2089 1960 1798 1789 1843 1856 1720 1592 1603 1618 1489 1406 1290 1057 925 925 697 115 57 163 110 79 48 196 217 224 256 224 93 101 27 21 23 11 10 27 15 19
1313 1611 1194 1549 1657 2081 1969 1819 1819 1850 1875 1772 1699 1745 1650 1405 1287 1214 991 890 815 525 18 17 65 55 8 8 4 21 60 103 143 88 21 15 19 25 12 15 14 17 11
1528 1525 1462 1549 1669 1952 1985 1897 1842 1884 1725 1794 1755 1918 1618 1370 1332 1100 753 686 639 366 51 14 28 17 14 10 0 0 0 0 8 37 10 22 14 20 16 11 11 13 19
1676 1320 1306 1422 1650 1976 1850 1939 1883 1780 1490 1300 1459 1774 1617 1431 1184 885 539 488 478 273 100 70 26 10 0 0 0 0 0 0 43 5 4 15 18 27 17 4 9 8 11
1768 1635 1449 1279 1548 1637 1751 1697 1569 1472 1252 1361 1556 1517 1385 1169 988 686 491 344 337 265 189 50 12 0 0 0 0 0 0 0 1 0 5 10 21 22 18 20 14 15 12
1689 1929 1603 1367 1263 1243 1330 769 677 865 1074 1284 1374 1400 1318 1000 728 667 659 555 266 188 195 95 11 4 6 0 0 0 0 3 7 4 7 11 34 24 21 16 15 16 14
1485 1811 1894 1610 1256 840 610 585 376 916 1097 1203 1171 1142 1031 761 658 669 690 540 257 184 142 31 14 12 0 0 0 0 0 10 4 4 2 7 25 18 20 15 16 13 12
1390 1185 1429 1319 1159 804 1021 289 224 329 569 991 1074 963 873 709 690 585 419 435 251 205 133 34 8 14 0 0 0 0 0 0 5 3 4 12 27 17 15 12 12 13 13
1100 950 734 874 883 751 596 307 372 322 327 766 970 641 591 611 579 320 267 370 227 79 53 3 5 0 0 0 0 0 0 17 19 7 5 35 28 19 14 12 12 12 13
790 870 470 526 440 438 366 110 203 171 213 445 747 621 215 253 322 247 296 265 118 42 0 2 0 0 0 0 0 0 8 29 23 7 10 38 26 21 18 12 9 8 8
549 698 302 137 80 197 56 250 157 861 619 300 84 2 0 198 274 352 430 365 61 1 0 0 0 0 0 0 0 8 10 25 22 7 10 37 27 18 16 9 7 7 6
549 405 297 169 63 75 65 119 81 56 69 22 12 6 58 142 278 443 307 211 22 0 0 0 0 14 0 0 5 13 19 35 22 8 14 32 38 20 18 11 6 3 4
238 350 105 161 190 31 6 33 22 99 35 34 11 15 51 171 241 386 309 221 65 87 1 3 10 5 2 4 9 16 27 38 21 8 10 26 34 30 17 19 9 1 0
24 30 50 87 96 67 0 8 14 50 23 23 18 3 53 183 205 310 319 290 188 170 69 20 32 4 1 3 7 16 22 27 42 13 8 14 27 29 31 9 10 8 0
149 15 44 11 75 43 34 63 68 29 18 15 9 42 126 182 265 393 369 306 256 242 158 57 16 3 0 1 3 3 8 14 17 45 15 12 13 17 35 32 19 4 3
19 6 2 39 16 24 23 33 68 23 15 13 5 113 156 168 224 284 164 130 84 152 83 31 0 1 0 0 1 0 1 3 4 6 34 54 9 22 8 30 36 24 0
8 0 1 3 4 0 16 2 20 25 19 10 44 144 171 126 88 114 28 85 92 81 59 13 9 6 1 0 1 0 0 0 0 0 2 8 56 26 20 0 2 18 23
15 0 0 0 4 1 0 0 21 26 4 31 73 110 79 59 84 117 102 187 77 40 15 6 60 8 10 1 0 0 0 0 0 0 0 0 1 10 72 90 0 1 13
12 22 22 0 0 0 0 0 0 5 1 14 83 89 107 69 72 110 69 190 169 98 69 135 13 3 1 1 0 0 0 0 0 0 0 0 0 3 3 9 90 13 2
9 22 5 1 4 2 1 0 0 1 0 7 27 120 122 145 63 95 110 78 156 151 261 227 168 34 5 2 0 0 0 0 0 0 0 0 1 0 0 9 25 85 70
17 18 0 0 7 0 2 21 0 20 2 2 0 29 108 163 72 78 119 144 167 239 327 333 239 200 92 61 68 70 82 59 92 33 21 0 0 0 0 0 1 3 41
2 11 19 0 0 0 3 2 0 0 0 0 0 3 45 137 114 52 130 253 293 229 352 426 319 297 341 253 157 67 331 261 221 59 38 1 0 0 3 8 20 2 9
24 11 17 3 1 1 0 0 0 0 0 4 0 0 67 130 75 101 193 296 327 314 371 405 440 463 378 367 343 270 229 242 288 206 175 76 12 10 22 21 19 20 2
36 35 16 27 0 0 0 0 0 0 1 1 0 0 11 93 154 125 186 241 346 468 498 437 436 529 549 474 428 351 300 193 181 250 222 203 186 47 16 5 10 25 19

GFSSE_con_mucape_060.txt.gz
CAPE
1594 1201 1475 1770 1643 1526 1465 1379 1346 1371 1310 1299 1396 1445 1449 1252 930 797 769 681 625 888 635 543 467 374 415 398 349 530 528 449 382 467 468 454 207 217 186 256 119 31 320
1719 1182 1567 1828 1870 1756 1686 1564 1493 1547 1516 1475 1524 1540 1478 1316 1054 943 1001 1044 1091 977 601 513 439 311 302 308 417 453 406 301 261 332 384 203 116 72 31 63 33 9 17
1350 1507 1449 1809 1975 1985 1852 1774 1727 1776 1738 1623 1661 1588 1524 1389 1278 1228 1177 1020 969 969 573 455 299 190 227 234 374 354 329 326 279 162 136 9 11 24 15 14 21 11 17
1181 1502 1522 1558 2026 2042 1849 1762 1767 1859 1848 1741 1767 1679 1556 1505 1492 1268 1062 883 874 780 456 356 241 127 117 258 227 301 252 96 82 70 10 15 7 28 23 21 19 18 14
1303 1735 1487 1413 1633 2035 1857 1764 1628 1653 1619 1605 1709 1807 1659 1648 1396 1053 1028 837 745 576 250 246 108 34 52 56 95 88 120 145 221 10 5 11 12 35 14 10 10 17 20
1552 1721 1424 1316 1440 1693 1891 1719 1634 1452 1427 1477 1556 1634 1685 1610 1422 1175 918 749 614 369 103 122 59 25 27 21 1 0 0 21 38 7 4 21 4 30 16 14 16 19 17
1597 1983 1386 1272 1507 1747 1682 1552 1556 1377 1357 1429 1502 1532 1482 1440 1264 1046 861 734 661 459 200 53 6 1 3 0 0 0 0 9 2 0 0 2 4 11 26 21 20 16 16
1562 1994 1813 1232 1409 1188 1586 1305 944 690 835 1226 1337 1438 1419 1094 907 817 693 627 534 352 191 78 15 1 0 0 0 0 0 43 0 0 0 6 33 27 22 18 12 12 12
1448 1642 1926 1722 1353 836 746 575 314 60 99 727 1185 1116 984 756 724 740 827 582 439 251 144 62 3 0 0 0 0 0 0 31 0 0 1 7 32 23 22 16 14 12 11
1571 1656 1415 1370 1313 643 553 282 67 104 0 38 906 792 552 597 712 761 510 441 317 196 132 41 0 0 0 0 0 0 0 27 0 0 0 11 29 22 19 15 14 11 11
1121 1176 897 1131 1234 870 447 232 67 25 1 53 591 483 342 392 441 414 258 283 212 104 66 10 0 0 0 0 0 0 3 2 0 0 0 37 25 19 14 13 11 9 6
772 1067 635 770 674 392 244 164 97 76 2 100 360 284 324 360 246 235 155 205 158 66 7 0 0 0 0 0 0 0 0 11 0 0 1 38 23 15 13 9 8 6 5
621 877 730 381 446 228 154 119 93 40 128 66 149 157 278 249 208 169 107 74 13 1 0 0 0 0 0 0 0 0 10 8 0 0 12 37 22 12 13 9 8 7 2
498 430 384 297 167 130 184 139 39 41 70 97 42 52 52 32 122 169 108 3 0 0 0 0 0 0 0 0 0 4 13 5 0 0 3 26 30 16 12 7 6 3 1
220 417 185 15 26 120 126 180 79 66 3 9 17 8 4 15 53 116 83 1 0 0 0 0 0 0 0 0 16 14 29 8 0 0 1 17 21 23 10 7 7 5 0
57 51 103 41 78 135 110 78 113 49 11 3 1 18 11 8 33 110 136 22 0 0 0 0 1 0 0 0 4 6 26 12 0 0 0 2 11 20 23 10 5 4 4
47 0 2 25 44 14 37 57 51 38 10 10 7 2 2 26 23 148 151 107 27 6 0 0 5 0 4 2 2 7 3 26 3 0 0 0 0 5 17 18 11 3 1
46 2 22 0 58 22 6 3 20 50 27 11 8 2 5 26 91 140 149 126 66 53 35 37 1 0 2 1 0 0 0 0 14 3 0 0 0 0 5 21 19 9 2
45 46 0 0 2 3 23 12 11 33 24 4 13 2 2 18 78 70 90 107 111 70 41 19 1 0 0 6 0 0 0 0 0 1 4 0 0 0 0 0 0 1 0
0 91 3 0 2 0 4 0 0 0 24 16 4 10 19 16 38 7 41 24 34 39 29 10 5 4 3 2 0 0 0 0 0 0 0 2 1 0 0 0 0 0 0
0 20 0 0 0 0 0 0 0 0 5 3 3 1 40 39 34 56 43 57 32 14 3 23 36 13 7 0 9 1 0 0 0 0 0 0 0 0 10 7 0 0 0
6 3 13 0 0 0 0 0 0 1 3 2 1 0 2 38 41 30 50 60 73 119 102 50 15 25 5 0 0 0 0 0 0 0 0 0 0 0 0 1 3 0 0
20 6 7 0 0 0 0 0 0 5 2 0 0 0 4 17 3 15 58 91 96 118 84 71 73 49 0 0 0 0 0 0 0 0 0 0 0 0 0 0 0 3 2
24 1 3 4 0 0 0 0 0 0 0 0 0 0 0 79 30 32 62 79 70 47 126 140 139 127 104 2 0 0 20 107 67 15 17 2 1 0 0 0 0 0 6
28 1 1 6 0 2 0 0 0 0 0 1 0 0 0 59 121 39 54 104 67 42 46 100 150 165 154 152 52 82 51 97 138 103 8 9 6 0 0 2 15 0 16
16 27 1 2 7 0 0 0 0 0 0 0 1 3 2 11 93 99 49 68 112 123 74 109 158 178 168 225 171 159 134 136 113 120 101 67 24 6 7 4 0 2 12

GFSSE_con_mucape_063.txt.gz
CAPE
1130 1355 1511 1448 1429 1467 1423 1387 1337 1231 1335 1492 1520 1391 1278 1131 982 848 730 595 533 730 686 686 636 401 493 634 612 720 636 536 491 526 488 417 144 124 90 96 221 110 508
1286 1276 1674 1548 1548 1647 1601 1553 1513 1392 1525 1605 1596 1429 1170 1099 1043 911 803 958 943 956 688 462 416 219 246 459 636 501 434 369 319 321 337 183 76 78 63 38 138 112 250
1318 1353 1704 1783 1672 1713 1666 1690 1714 1661 1671 1711 1675 1488 1233 1225 1168 1158 1234 1190 1219 1181 691 390 482 272 356 493 462 377 254 131 59 45 38 14 30 59 33 25 76 31 25
1365 1298 1641 1925 1806 1811 1700 1764 1805 1835 1799 1856 1779 1566 1408 1515 1499 1353 1203 1176 1233 1093 667 585 377 416 439 415 336 312 131 116 25 31 8 8 23 39 17 12 12 11 13
1273 1483 1575 1935 1904 1861 1770 1807 1832 1799 1695 1800 1727 1685 1678 1706 1604 1429 1156 1179 1148 1158 714 497 255 269 412 328 193 119 126 56 5 5 8 6 8 30 21 15 11 11 17
1139 1428 1471 1735 1946 1894 1860 1823 1696 1696 1479 1615 1619 1681 1805 1748 1577 1316 1024 958 1063 1114 469 215 219 211 60 50 88 67 36 39 0 2 8 14 14 28 11 18 9 17 14
1100 1394 1413 1342 1725 1871 1932 1822 1604 1520 1194 1547 1604 1740 1662 1538 1337 1100 878 855 912 885 526 166 167 68 12 22 0 4 2 0 0 0 0 4 11 14 16 7 14 17 8
1190 1486 1455 1211 1410 1438 1626 1380 1366 1358 948 970 1331 1491 1529 1265 1083 887 788 618 558 465 267 166 57 24 9 0 0 2 9 0 0 0 0 8 19 7 16 16 19 18 13
944 1177 1504 1137 985 960 895 782 550 491 230 293 393 1209 1068 844 817 819 840 677 504 270 151 77 41 0 0 0 0 0 0 0 0 0 0 7 18 24 25 21 17 15 15
788 1131 1240 1115 994 874 492 555 459 245 265 37 55 104 546 372 637 675 600 546 362 184 124 82 24 0 0 0 0 0 0 0 0 0 0 8 27 25 21 16 16 15 13
761 738 585 906 917 728 619 381 209 133 83 28 8 29 373 381 381 324 337 337 202 80 49 7 0 0 0 0 0 0 0 0 0 0 0 26 26 23 20 17 15 12 13
399 462 434 632 773 687 566 216 124 92 61 21 17 10 248 279 208 224 186 176 99 40 22 0 0 0 0 0 0 0 0 0 0 0 0 31 26 23 20 13 12 11 12
413 488 265 468 490 517 276 127 95 57 43 39 127 98 192 251 196 66 66 53 21 3 0 0 0 0 0 0 0 0 0 0 0 0 2 27 24 14 16 16 12 9 7
411 433 321 326 276 349 180 95 39 12 38 14 40 115 130 218 82 38 33 28 6 0 0 0 0 0 0 0 2 1 0 0 0 0 2 11 23 15 14 12 8 4 1
300 277 166 224 178 75 59 51 37 35 23 35 53 28 59 78 49 29 6 3 0 0 0 0 0 0 0 0 0 1 0 0 0 0 0 6 17 20 12 10 7 4 0
152 72 65 37 146 149 29 16 2 38 21 17 28 19 18 83 25 10 0 0 0 0 0 0 0 0 0 0 1 7 7 0 0 0 0 0 6 14 11 7 5 2 0
27 37 188 228 52 95 37 12 0 9 6 3 1 0 0 8 2 13 0 0 0 0 0 0 0 0 0 0 3 5 3 0 0 0 0 0 0 0 8 8 5 3 3
20 0 68 127 83 77 26 14 23 0 6 13 33 5 17 4 1 36 5 0 2 0 0 0 0 0 0 0 4 4 2 0 0 0 0 0 0 0 0 3 2 3 3
15 0 5 57 50 33 39 25 25 16 9 36 38 12 7 1 1 20 26 1 23 0 2 5 0 0 0 0 0 0 0 0 0 0 0 0 0 0 0 0 0 0 0
18 0 0 4 8 34 5 4 5 19 24 37 32 42 16 11 6 34 44 31 48 36 31 29 12 4 0 0 0 0 0 0 0 0 0 0 0 0 0 0 0 0 0
0 0 2 2 5 6 23 25 31 1 21 34 42 19 11 4 7 34 35 43 25 67 51 23 25 0 0 0 0 0 0 0 0 0 0 0 0 0 0 0 0 0 0
0 0 0 2 4 2 5 0 0 0 0 18 9 3 12 3 8 4 5 23 18 47 43 35 12 11 8 2 0 1 0 0 0 0 0 0 0 0 12 8 0 0 0
0 0 0 1 3 0 0 0 0 0 2 0 1 5 3 0 6 11 1 11 22 13 10 41 16 11 9 5 1 4 0 0 0 0 0 0 0 0 0 5 11 3 3
0 0 0 2 3 0 0 0 0 0 0 1 9 2 2 3 2 11 9 1 1 2 49 27 13 3 0 4 2 0 0 0 0 0 0 0 0 0 0 0 0 0 0
0 0 0 3 3 0 0 0 0 0 0 3 11 21 1 1 5 11 0 2 4 25 71 20 8 1 15 6 0 0 0 0 14 13 5 14 10 6 7 0 0 0 0
13 0 0 1 5 4 0 0 0 0 0 0 2 0 10 5 3 0 0 5 6 1 13 85 35 17 19 69 40 0 0 0 0 25 24 26 0 0 0 0 0 0 0

GFSSE_con_mucape_066.txt.gz
CAPE
1170 1320 1375 1470 1528 1502 1426 1326 1263 1421 1504 1450 1410 1334 1277 1251 1154 1024 975 929 993 1222 937 783 1038 925 794 732 850 911 798 637 468 484 435 456 285 196 233 285 346 176 611
1127 1485 1362 1498 1614 1621 1500 1499 1411 1562 1658 1596 1504 1350 1211 1114 1012 957 957 983 1149 1249 745 746 914 770 676 607 767 668 580 457 380 413 392 203 157 217 196 197 398 303 486
1199 1620 1444 1478 1666 1756 1704 1679 1648 1803 1810 1695 1548 1397 1288 1214 1051 917 875 1012 1193 1167 757 633 743 736 493 634 555 453 341 208 129 123 30 12 26 79 65 65 157 141 145
1151 1516 1691 1537 1674 1784 1747 1740 1739 1864 1875 1747 1517 1449 1366 1295 1535 1434 1263 1145 1202 1061 580 388 745 567 574 516 295 224 166 92 47 34 5 20 23 44 23 20 16 17 17
1221 1429 1801 1629 1657 1718 1767 1740 1715 1763 1808 1712 1518 1568 1536 1673 1677 1582 1414 1322 1338 1282 861 707 560 597 555 291 205 164 77 18 10 6 6 11 10 29 15 8 7 10 12
1320 1459 1794 1780 1689 1757 1799 1794 1760 1701 1662 1620 1504 1678 1770 1781 1720 1594 1342 1319 1249 1185 937 663 564 643 257 139 125 40 0 0 0 1 6 9 5 13 16 11 14 10 23
1216 1359 1648 1884 1815 1785 1824 1823 1749 1607 1594 1624 1605 1719 1779 1732 1575 1362 1131 1099 1037 1136 975 774 640 398 166 59 16 4 0 0 0 2 2 4 11 15 17 7 12 12 10
1172 1280 1430 1846 1907 1738 1550 1417 1569 1419 1469 1540 1566 1686 1756 1488 1249 1159 1076 973 992 735 618 453 158 75 21 0 2 0 0 0 0 0 1 9 31 23 18 8 16 6 4
1257 1204 1299 1417 1504 1255 1276 1125 913 692 829 792 277 745 1160 989 930 1015 981 900 639 480 451 237 97 12 10 0 0 0 0 0 0 0 0 4 21 9 20 17 13 15 22
795 1199 1029 896 1054 947 900 862 775 439 247 192 147 80 269 551 771 735 637 582 464 367 256 165 41 23 2 1 0 0 0 0 0 0 0 4 21 21 19 15 17 18 18
774 735 729 900 957 889 832 495 561 398 281 180 47 19 85 132 290 429 337 340 310 139 121 81 10 15 0 0 0 0 0 0 0 0 2 39 23 20 16 16 19 16 15
703 461 428 709 848 831 727 584 417 324 156 113 46 24 46 61 195 293 267 211 125 116 90 40 0 0 0 0 0 0 0 0 0 0 4 38 22 17 13 19 15 15 12
280 319 398 626 677 570 637 672 281 161 62 82 41 8 2 122 157 210 126 69 53 81 9 0 0 0 0 0 0 0 0 0 0 0 5 30 25 13 16 19 14 13 11
404 309 340 436 526 442 335 250 145 59 52 50 17 7 13 58 100 85 56 11 14 0 0 0 0 0 0 0 0 0 0 0 0 0 5 20 24 15 13 12 12 9 9
334 238 220 306 402 388 289 48 34 34 36 54 41 7 25 59 43 24 24 5 2 0 0 0 0 0 0 0 0 0 0 0 0 0 0 11 15 16 10 12 8 5 5
222 168 210 268 313 231 168 64 39 55 36 19 69 33 68 9 23 15 1 0 0 0 0 0 0 0 0 0 0 0 0 0 0 0 0 0 9 18 17 7 6 4 4
102 41 60 134 143 156 190 28 23 29 29 41 67 51 31 22 17 17 0 0 1 0 0 0 0 0 0 0 0 0 0 0 0 0 0 0 0 3 12 12 3 3 1
20 0 23 51 118 42 31 2 1 21 39 57 20 34 29 53 15 17 2 0 0 0 0 0 0 0 0 0 0 0 0 0 0 0 0 0 0 0 0 5 8 9 1
30 0 1 29 94 72 105 0 3 16 43 47 44 37 24 57 49 28 7 0 0 0 0 0 0 0 0 0 0 0 2 0 0 0 0 0 0 0 0 0 0 0 4
14 0 0 1 30 55 43 7 8 1 48 44 44 31 45 64 49 28 18 0 0 0 0 0 0 0 0 0 5 2 4 3 0 0 0 0 0 0 0 0 0 0 0
0 0 0 3 6 6 13 19 23 12 16 41 18 21 37 7 13 32 26 8 2 0 0 1 0 0 0 2 11 21 5 2 0 0 0 0 0 0 0 0 0 0 0
6 0 0 0 13 2 4 5 2 2 14 33 50 34 33 6 3 28 17 12 19 2 2 7 3 1 10 16 11 28 22 2 0 0 0 0 0 0 0 0 0 0 0
6 0 0 0 4 46 6 6 9 10 19 23 14 40 9 6 10 8 22 10 36 49 2 10 17 15 0 17 18 8 1 0 7 0 0 0 0 0 0 2 6 7 2
8 1 0 0 2 3 5 1 0 0 0 0 4 3 4 24 12 15 23 46 32 59 50 45 45 6 0 21 34 28 16 4 0 0 0 0 0 0 5 21 21 12 6
19 0 0 0 1 4 0 0 0 0 0 0 0 0 19 12 10 10 21 46 41 78 55 40 14 20 0 14 8 0 4 3 0 0 0 0 0 0 0 0 0 0 2
30 7 0 0 1 2 7 1 0 0 0 0 0 1 3 5 4 6 23 51 45 10 13 9 0 32 13 28 0 0 0 0 0 11 18 21 22 19 7 0 0 0 0

GFSSE_con_mucape_069.txt.gz
CAPE
970 1087 1329 1466 1464 1402 1262 1344 1314 1354 1486 1617 1646 1598 1526 1489 1428 1333 1233 1282 1329 1406 1082 936 1436 1258 906 908 777 736 823 733 651 629 650 587 474 350 368 374 482 289 672
990 1210 1320 1545 1562 1408 1304 1466 1450 1483 1570 1641 1641 1608 1529 1448 1362 1262 1314 1384 1394 1402 945 1018 1510 1305 866 848 911 755 648 515 485 529 557 417 387 384 390 339 499 421 624
1250 1331 1326 1495 1646 1623 1491 1603 1689 1669 1687 1625 1588 1540 1471 1384 1310 1269 1302 1362 1346 1347 1139 1043 1007 1009 881 863 748 664 560 437 342 252 92 42 104 275 293 374 495 388 435
1372 1402 1337 1512 1647 1744 1657 1668 1750 1842 1779 1673 1565 1491 1393 1350 1303 1274 1301 1296 1313 1329 1193 1138 1107 929 717 698 525 387 349 229 138 48 0 7 24 95 56 50 107 197 243
1349 1484 1380 1534 1603 1742 1729 1727 1771 1784 1724 1604 1527 1519 1382 1267 1251 1345 1300 1247 1304 1318 1194 1045 894 733 600 391 310 255 147 61 16 0 0 12 11 34 31 20 13 13 13
1135 1553 1570 1485 1532 1764 1785 1764 1743 1756 1545 1504 1473 1463 1505 1623 1573 1490 1303 1248 1240 1165 1267 1069 680 462 390 291 144 85 37 0 0 0 0 9 11 26 11 13 20 20 16
1178 1393 1681 1506 1512 1729 1844 1795 1681 1690 1511 1382 1419 1438 1636 1701 1697 1563 1350 1354 1249 1161 1195 944 608 365 348 144 66 17 0 0 0 0 0 3 2 13 10 14 14 12 11
1261 1241 1477 1674 1512 1638 1719 1410 1393 1534 1488 1392 1469 1547 1638 1574 1494 1394 1319 1140 978 914 707 544 323 296 119 50 6 0 0 0 0 0 0 0 22 14 20 15 8 15 13
1088 1183 1319 1654 1855 1527 1482 1316 976 881 910 1086 977 704 849 923 1154 1157 1202 1075 948 657 517 358 257 43 89 23 0 0 0 0 0 0 0 11 22 30 18 13 7 10 9
1018 1090 1296 1420 1085 892 1048 1091 853 479 141 85 183 299 282 245 517 765 809 886 745 531 386 222 45 22 64 0 0 0 0 0 0 0 0 14 27 25 25 21 18 18 16
873 932 930 1008 864 832 918 975 979 620 287 23 139 180 140 13 172 304 428 401 474 250 209 80 10 28 18 0 0 0 0 0 0 0 0 34 29 29 28 23 23 15 12
625 708 645 738 661 633 627 632 766 617 369 111 74 100 54 21 113 106 242 304 249 177 108 34 9 14 0 0 0 0 0 0 0 0 1 39 27 26 24 21 11 12 15
616 545 363 544 656 712 570 381 639 526 306 117 137 51 22 14 103 95 136 146 118 90 5 0 0 0 0 0 0 0 0 0 0 0 8 36 32 24 22 20 16 11 4
499 191 247 549 893 498 389 404 593 534 394 151 109 54 38 0 44 100 112 61 45 35 0 0 0 0 0 0 0 0 0 0 0 0 10 31 32 18 23 22 14 9 10
199 215 239 417 613 239 270 294 268 299 191 142 90 48 35 23 74 82 72 47 19 15 1 0 0 0 0 0 0 0 0 0 0 0 1 22 29 30 22 17 12 10 7
254 172 152 133 129 181 206 159 52 41 58 43 43 70 55 43 89 44 64 22 0 8 0 0 0 0 0 0 0 0 0 0 0 0 0 4 18 31 24 11 9 8 11
211 98 82 74 88 151 161 67 31 19 31 35 53 55 55 96 84 42 17 0 0 0 0 0 0 0 0 0 0 0 0 0 0 0 0 0 1 6 19 15 5 5 6
160 83 70 76 165 84 116 83 26 238 3 7 19 41 16 85 44 24 2 0 0 0 0 0 0 0 0 0 0 0 0 0 0 0 0 0 0 0 1 7 11 5 3
129 37 20 33 53 33 94 49 3 3 1 61 4 28 12 25 17 44 8 0 0 0 0 0 0 0 0 3 0 0 0 0 0 0 0 0 0 0 0 0 1 3 6
72 26 0 237 23 41 64 23 4 76 4 29 13 45 29 42 57 44 18 0 0 0 1 0 0 0 6 4 1 0 2 0 0 0 0 0 0 0 0 0 0 0 0
60 27 0 91 244 238 43 11 14 24 0 8 5 32 35 60 61 64 15 6 1 0 0 0 0 5 0 1 7 5 6 4 6 4 0 0 0 0 0 0 0 0 0
63 22 0 19 61 36 9 1 9 7 2 19 12 47 37 17 57 57 59 1 0 0 0 0 0 0 0 0 0 1 9 10 10 14 8 0 0 0 0 0 0 0 0
71 36 3 0 15 51 10 24 0 52 8 3 10 31 32 22 60 66 34 7 3 7 0 1 1 0 0 0 10 6 17 9 26 20 3 0 0 0 0 0 0 0 0
75 42 6 0 0 1 6 7 5 5 4 5 8 32 10 13 37 17 39 26 1 5 12 25 20 6 2 4 6 30 28 15 0 4 29 30 25 2 0 0 0 0 0
72 47 15 0 0 0 2 19 19 48 5 13 18 22 3 17 22 28 12 15 2 3 17 65 87 45 23 22 22 12 4 5 8 0 0 1 18 12 7 4 0 0 4
81 59 22 0 0 1 2 1 1 0 0 0 0 0 5 1 10 15 14 32 6 5 43 37 66 71 60 33 39 28 18 9 0 0 0 4 2 2 3 0 0 0 3

GFSSE_con_mucape_072.txt.gz
CAPE
849 804 1207 1343 1326 1297 1351 1392 1460 1632 1760 1690 1685 1701 1716 1709 1641 1433 1322 1335 1420 1457 1605 1523 1476 1442 1135 1019 842 1069 926 821 738 787 779 841 661 499 616 576 592 394 777
816 1064 1219 1381 1416 1366 1442 1477 1556 1726 1933 1945 1873 1828 1775 1713 1618 1513 1539 1511 1528 1611 1439 1727 1507 1236 1018 853 938 932 832 686 637 637 745 691 511 581 629 548 632 523 695
969 1115 1258 1236 1432 1501 1543 1550 1711 1867 2031 2011 1918 1847 1818 1803 1673 1643 1654 1575 1561 1576 1153 1323 1269 1184 1105 971 848 813 769 711 606 551 395 190 281 603 524 472 720 641 632
997 1093 1240 1359 1352 1549 1603 1599 1715 1930 1850 2024 1972 1925 1855 1772 1723 1779 1666 1579 1553 1355 1291 1349 1277 1113 953 889 731 679 535 392 235 143 72 95 193 473 550 490 396 374 396
1218 1108 1217 1448 1450 1599 1585 1648 1664 1879 1745 1845 1936 1950 1832 1770 1765 1816 1633 1578 1538 1550 1693 1362 1178 975 857 616 517 401 214 71 27 12 9 12 16 95 132 118 151 161 213
1284 1181 1247 1426 1493 1618 1614 1664 1696 1670 1588 1664 1699 1819 1887 1852 1827 1780 1554 1475 1437 1459 1404 1086 1094 780 571 437 317 154 40 12 2 0 0 9 9 23 12 17 20 21 24
1305 1237 1222 1433 1487 1661 1715 1744 1698 1616 1537 1524 1620 1672 1671 1758 1782 1630 1466 1422 1489 1517 1318 1157 919 630 405 291 153 32 1 0 0 0 0 1 4 19 12 12 14 16 13
1130 1395 1615 1558 1454 1595 1646 1591 1324 1548 1524 1491 1537 1532 1576 1376 1154 1357 1366 1248 1223 1287 979 909 697 496 290 154 49 3 4 0 0 0 0 1 23 8 16 15 10 14 24
1216 1178 1359 1910 1912 1517 1557 1192 802 858 1255 1393 907 947 932 1062 1119 840 1003 1096 1053 833 755 631 455 264 175 72 7 0 0 0 0 0 0 0 36 28 10 12 11 11 16
1183 1199 1220 1406 2376 1519 1052 875 822 424 364 566 374 191 128 302 440 494 677 666 849 617 537 491 265 216 109 17 0 0 0 0 0 0 0 10 26 14 22 21 18 18 9
1036 1038 1221 1483 1714 1388 896 563 408 380 458 435 347 163 156 196 170 189 175 523 583 324 372 178 160 151 31 0 0 0 0 0 0 0 0 41 41 33 35 19 12 15 19
934 828 928 1204 1331 994 865 702 451 402 421 390 139 54 73 107 129 101 107 192 159 173 98 53 138 60 0 0 0 0 0 0 0 0 0 32 16 22 9 10 16 17 17
753 814 746 771 709 582 564 621 565 581 518 220 95 55 36 8 95 85 44 64 121 97 18 0 8 1 0 0 0 0 0 0 0 0 5 33 34 23 26 17 18 16 12
543 660 499 519 602 525 541 473 456 541 517 437 322 49 35 29 83 19 40 37 60 48 9 0 15 15 0 0 0 0 0 0 0 0 7 29 40 20 10 16 22 16 11
473 611 344 598 819 829 390 442 311 397 372 272 173 70 55 46 39 10 56 55 61 30 0 0 3 0 1 0 0 0 0 0 0 0 3 24 31 31 13 14 19 18 18
462 352 500 629 707 599 398 133 313 409 351 317 124 95 58 47 51 43 46 43 62 16 0 0 1 0 0 0 0 0 0 0 0 0 0 7 17 25 28 9 20 17 18
239 237 488 418 539 389 54 43 127 213 185 196 104 103 79 61 51 95 48 43 60 43 0 0 0 0 0 0 0 0 0 0 0 0 0 0 8 14 21 23 19 12 12
160 266 188 439 434 315 83 36 65 184 329 66 152 74 51 88 101 99 41 54 30 79 0 0 0 0 0 0 0 0 0 0 0 0 0 0 0 2 8 17 20 23 15
174 269 314 410 359 248 41 42 46 20 174 39 40 47 46 79 103 76 35 70 60 50 10 0 0 0 0 0 0 0 0 0 0 0 0 0 0 0 0 7 7 11 18
268 203 251 360 433 44 0 63 58 50 5 83 18 9 18 55 56 77 22 82 58 2 16 0 0 0 0 2 0 0 0 0 0 0 0 0 0 0 0 0 0 0 3
271 174 90 23 260 4 1 146 17 1 27 10 5 34 48 4 46 50 79 83 19 0 0 0 0 0 0 0 0 6 8 10 0 0 0 0 0 0 0 0 0 0 0
223 128 78 35 48 59 3 58 4 0 47 7 55 60 43 27 17 51 66 67 0 0 0 0 0 0 1 7 12 17 2 1 2 7 3 0 0 0 0 0 0 0 0
153 97 59 7 36 45 37 243 40 0 2 8 42 35 59 30 44 56 52 43 0 0 0 3 0 1 0 12 23 8 1 1 0 4 23 37 18 0 0 0 0 0 0
117 97 69 27 35 1 55 21 2 0 0 7 3 21 54 44 36 38 42 14 21 5 0 0 0 0 4 0 1 18 9 0 0 11 24 41 28 18 19 20 8 9 3
97 84 75 39 4 1 38 9 6 7 0 12 3 1 41 42 54 39 13 26 34 1 3 0 0 0 15 6 0 9 16 11 10 0 0 0 8 44 44 56 66 31 15
72 84 84 51 9 1 13 4 6 37 5 1 1 8 22 25 9 47 35 8 7 12 2 1 0 2 59 37 7 37 40 46 50 26 0 0 0 2 21 61 57 42 25

GFSSE_con_mucape_075.txt.gz
CAPE
968 1104 1088 1001 1019 1401 1512 1509 1611 1777 1757 1754 1811 1820 1814 1856 1815 1715 1570 1545 1774 1774 1611 1269 1515 1431 1106 1039 1323 1201 1100 984 888 971 963 1045 811 775 757 906 790 635 891
1053 1291 1108 1026 1063 1501 1548 1607 1718 1819 1877 1951 1940 1896 1903 1910 1816 1626 1601 1673 1741 1830 1556 1455 1724 1760 1251 1072 1185 1061 966 864 789 849 887 922 778 695 693 839 751 650 853
1313 1300 1312 999 1277 1565 1620 1647 1885 2117 2102 2114 2058 1998 1980 1967 1790 1681 1755 1723 1722 1740 1770 1484 1468 1317 1053 1187 1026 961 898 795 741 739 728 508 585 701 679 776 787 799 651
1462 1427 1524 1153 1320 1584 1627 1754 1752 2213 2321 2254 2184 2118 2073 1937 1838 1839 1824 1766 1805 1801 1610 1496 1502 1236 1210 1060 925 883 808 685 537 589 614 642 552 617 542 524 581 641 597
1464 1434 1465 1118 1242 1362 1633 1726 1712 1877 2061 2195 2156 2214 2137 2018 2023 2024 1826 1800 1780 1717 1835 1504 1363 1254 1080 862 749 641 491 251 148 407 556 521 612 566 568 520 439 483 545
1563 1448 1317 1241 1320 1306 1682 1696 1834 1509 1717 2013 2066 2133 2148 2148 2166 2001 1788 1832 1847 1868 1849 1643 1292 1080 818 637 489 344 184 68 73 224 295 252 246 211 172 192 288 167 306
1468 1589 1606 1436 1512 1535 1698 1667 1743 1688 1381 1840 1963 1958 1999 2043 2042 1612 1538 1692 1524 1732 1699 1462 1185 892 641 466 303 171 72 23 54 80 58 66 44 32 16 18 15 20 21
1748 1363 1424 1549 1498 1557 1524 1588 1467 1506 1383 1666 1744 1829 1832 1601 1540 1337 1175 1135 1398 1548 1366 1150 876 710 532 293 123 65 33 5 0 5 7 16 38 20 18 11 10 8 14
1838 1908 1630 1514 1687 1471 1393 1413 1196 995 998 1366 1294 1010 660 526 596 677 884 1072 1241 1142 1089 872 662 483 376 168 77 25 6 0 0 0 2 9 28 22 20 17 17 16 16
1638 1814 1643 1761 2030 1891 1870 1270 1091 878 615 624 472 355 228 138 156 330 510 909 830 941 695 655 473 366 221 89 22 3 0 0 0 0 6 18 37 13 20 28 17 17 17
1413 1486 1322 1915 1774 1924 1820 1134 814 613 634 404 451 196 139 183 98 102 159 301 620 466 397 424 349 210 116 39 5 0 0 0 0 2 4 14 39 25 31 23 28 19 16
1505 1358 1338 1345 1244 1869 1342 1020 1081 938 993 764 297 274 313 169 93 43 62 207 237 214 223 256 211 130 63 31 0 0 0 0 0 2 10 21 32 40 37 31 19 18 17
1434 1234 1117 1131 1659 1426 1036 896 694 831 983 583 369 269 250 256 110 109 64 110 84 148 276 252 180 98 49 12 0 0 0 0 0 1 12 20 56 31 23 20 18 16 16
1112 1187 962 930 1020 963 855 881 667 376 354 319 291 216 175 306 85 45 43 107 92 89 252 257 169 41 6 0 0 0 0 0 1 4 3 32 51 35 21 17 19 16 24
1010 979 815 722 559 432 597 852 574 383 354 259 167 57 96 178 183 79 34 166 54 55 168 122 28 5 0 0 0 0 0 0 0 6 18 26 38 21 24 26 21 26 17
760 838 687 797 604 568 366 739 823 414 238 312 237 96 78 175 201 57 100 135 68 64 63 32 21 17 0 0 0 0 0 0 1 14 9 23 17 33 49 22 24 17 17
653 713 574 371 520 630 634 332 319 176 199 274 212 88 120 123 74 40 132 64 44 66 102 74 59 20 0 0 0 0 0 0 1 9 13 19 10 14 23 33 27 17 18
630 456 337 507 633 696 398 280 35 193 240 185 152 65 64 74 126 47 65 38 45 50 101 78 53 4 0 0 0 0 0 0 2 2 6 14 21 19 12 19 21 27 18
508 436 262 511 275 524 594 443 42 77 113 191 155 53 65 29 63 91 42 31 37 7 74 48 29 1 2 0 0 0 0 0 1 0 5 14 25 23 21 13 8 8 25
414 340 208 204 327 497 333 205 48 22 25 136 71 40 57 18 36 57 36 35 36 63 79 47 0 0 8 0 0 0 0 0 0 3 5 9 18 22 23 24 22 14 7
314 199 232 117 343 360 139 5 31 27 19 18 48 95 15 25 69 37 37 42 42 48 64 15 0 0 0 0 0 0 0 9 0 1 2 5 8 6 12 18 20 19 10
202 229 265 117 93 131 10 2 53 29 0 36 15 25 83 50 50 20 32 33 21 42 66 31 1 0 2 1 10 12 13 4 0 0 0 0 3 1 0 0 3 6 6
196 255 248 134 127 50 18 17 91 50 4 38 7 29 11 42 20 25 35 13 19 33 7 0 0 0 0 1 0 26 14 47 6 6 7 0 1 0 6 0 0 0 0
278 216 228 111 85 29 16 66 7 23 6 50 3 38 25 13 23 27 17 35 51 22 0 3 1 0 0 1 1 5 43 22 61 14 7 7 1 5 20 16 24 20 9
203 216 209 94 90 25 16 45 9 11 28 3 69 57 55 39 42 37 24 26 39 0 0 0 0 0 3 30 10 17 24 11 42 80 48 10 21 4 46 50 45 44 56
123 168 200 105 93 33 14 14 21 8 3 0 26 1 30 71 33 11 25 10 12 1 0 0 0 0 6 23 37 68 37 28 9 10 0 17 42 8 33 58 80 62 43

GFSSE_con_mucape_078.txt.gz
CAPE
888 1196 1169 1415 1522 1573 1626 1639 1747 1803 1777 1759 1868 1902 1863 1896 1899 1886 1881 1832 1804 1801 1586 1427 1316 1152 1141 1087 1095 1370 1354 1264 1136 1189 1083 1144 1031 933 875 1017 913 839 967
1306 1412 972 1206 1513 1588 1658 1736 1840 1945 1933 1968 1944 2001 1959 1984 1974 1903 1902 1915 1842 1975 1682 1468 1340 1367 1293 1416 1446 1291 1199 1111 1063 1004 1055 1074 1031 891 808 958 938 866 988
1689 1947 1474 1143 1423 1719 1783 1826 2036 2184 2127 2100 2073 2049 2072 2089 2065 1847 1794 1960 1977 1976 1907 1582 1617 1552 1443 1348 1209 1174 1100 1046 999 953 996 859 867 907 860 943 884 929 952
1535 2040 1940 1227 1438 1797 1891 1986 2119 2296 2318 2212 2106 2131 2173 2158 2015 1844 1826 1932 2000 2108 2182 1822 1579 1547 1367 1240 1117 1056 1006 956 803 731 895 802 737 846 808 771 848 803 799
1647 1896 2001 1274 1359 1769 1900 1944 1961 2201 2232 2182 2194 2304 2301 2168 2050 1969 1862 1951 2093 2151 2227 1909 1594 1502 1265 1029 960 923 834 774 780 815 537 607 705 814 753 803 739 722 726
1762 1828 1624 1130 1184 1699 1826 1917 1835 1926 2026 2134 2133 2297 2324 2202 2115 1918 1865 1987 2177 2169 2050 1766 1437 1359 991 826 746 646 467 454 509 599 638 642 638 637 644 518 624 685 577
2010 2046 1989 1082 1177 1415 1842 1941 1882 1709 1921 2093 2142 2173 2165 2105 1982 1612 1795 1860 1924 1956 1833 1607 1455 1086 856 674 562 373 353 259 646 533 455 532 482 451 376 282 219 169 133
2226 2260 2228 1458 1400 1425 1582 1688 1771 1575 1532 1889 2035 1848 1842 1583 1652 1371 1295 1623 1664 1301 1241 1372 1115 920 699 512 362 306 190 175 308 249 249 127 200 209 91 40 32 101 23
2398 2386 2390 1888 1764 1335 1345 1463 1434 1601 1322 1167 1488 1169 922 646 862 703 688 820 1107 1038 1191 1126 923 721 532 349 319 213 96 54 228 143 118 35 61 23 14 7 10 11 15
2604 2680 1955 2092 1921 2099 2000 1207 1284 1110 996 972 920 532 353 351 335 260 221 429 554 972 1019 906 710 507 342 291 234 127 63 14 152 103 63 58 72 21 11 11 7 11 16
2394 2511 2283 2197 1936 2033 2196 1979 1270 1077 818 623 512 348 445 615 294 383 280 424 486 567 633 576 465 337 285 223 157 63 8 86 59 48 80 24 30 27 25 20 18 21 20
2250 2300 2341 1946 2279 1977 1931 2145 1991 1710 1243 1051 1047 881 1006 507 379 494 279 339 286 243 341 266 320 272 250 212 110 12 117 66 38 29 63 46 26 32 32 25 20 22 18
1948 2008 2142 2325 2209 2126 1877 1756 2042 1636 1394 1371 1173 842 859 555 328 78 151 396 296 195 298 246 282 386 335 250 172 146 78 65 35 24 10 29 50 39 32 28 25 18 19
1885 1886 1913 1717 1674 1724 1818 1530 1559 1605 1524 1481 1240 938 518 442 234 145 124 207 144 244 183 471 685 423 331 182 183 98 52 25 25 16 19 33 61 33 26 28 23 15 17
1796 1808 1853 1535 1258 1343 1478 1181 1372 1438 998 1068 1194 1102 574 382 424 328 334 233 98 137 117 590 350 291 250 225 173 100 23 19 14 6 28 26 47 48 31 23 20 17 22
1669 1854 1884 1540 1325 1369 1147 756 1137 1161 917 731 722 966 888 534 333 184 146 243 109 49 89 345 246 286 237 209 177 69 22 6 6 10 18 29 18 49 51 39 33 25 25
1591 1780 1812 1331 1052 1132 1132 570 900 573 810 691 542 568 325 246 319 125 105 158 90 44 71 234 244 201 181 165 136 67 7 3 3 9 18 29 17 19 48 58 42 24 22
1555 1695 1556 1022 1210 1211 730 611 626 778 640 397 255 273 179 189 258 200 115 78 45 51 57 185 172 161 154 162 124 37 16 12 3 10 18 47 25 14 18 33 40 40 29
1577 1720 1560 1141 1025 848 495 323 336 392 97 163 182 145 155 199 188 217 135 117 28 40 50 145 173 192 150 153 120 59 48 27 9 1 31 56 28 23 23 15 24 27 36
1516 1752 1470 840 851 652 440 151 317 151 56 57 119 121 35 70 91 75 161 28 33 26 6 125 194 173 180 165 54 76 76 53 32 21 31 26 27 18 24 35 25 21 13
1569 1699 1396 810 710 492 293 170 178 210 81 21 59 46 91 45 27 96 48 43 15 17 20 43 172 175 150 150 46 70 54 23 33 17 26 21 12 16 23 31 25 14 1
1508 1586 1278 926 512 392 264 210 179 19 50 107 75 49 85 185 90 3 40 12 34 15 23 97 169 154 148 134 96 81 35 40 27 27 33 40 17 6 11 18 19 14 10
1443 1516 1187 931 849 518 441 184 317 38 44 52 41 22 53 221 30 27 32 50 21 12 7 75 150 166 110 124 124 48 57 40 29 35 19 22 14 17 5 6 5 3 2
1265 1394 1165 1009 576 645 441 207 158 28 4 43 20 2 32 20 35 26 29 35 14 24 33 54 90 163 147 112 119 66 74 43 44 79 77 60 24 16 23 23 9 15 24
1139 1305 1210 981 514 519 290 133 116 31 38 54 17 0 10 7 8 14 5 47 11 12 90 161 118 138 117 109 85 123 123 109 118 77 72 74 70 23 47 87 42 86 88
1045 1214 975 719 341 392 305 150 62 12 43 111 26 30 34 18 11 17 39 38 22 9 51 76 26 38 80 81 73 72 104 107 108 108 84 117 113 113 78 87 159 210 167

GFSSE_con_mucape_081.txt.gz
CAPE
506 1563 1304 1586 1667 1729 1741 1868 1802 1773 1770 1785 1918 1941 1950 2002 1987 1988 2007 1946 1904 2044 2085 1823 1613 1219 1094 1118 1127 1528 1507 1355 1269 1331 1282 1338 1075 957 943 1078 951 892 1031
1006 1316 1188 1556 1689 1801 1824 1848 1942 1919 1900 1942 2019 2037 2028 2059 2081 2041 2029 1939 1960 2166 2097 1929 1556 1267 1330 1256 1602 1465 1352 1215 1122 1144 1186 1146 1055 948 833 972 1100 952 1188
1419 1347 1351 1459 1740 1852 1904 1916 2076 2167 2080 2047 2078 2105 2121 2147 2172 2097 2014 2001 2039 2280 2129 1647 1529 1522 1441 1553 1418 1362 1306 1175 1043 1046 892 851 929 1094 1011 936 1075 1058 946
1362 1815 1474 1256 1678 1897 1935 1984 2076 2356 2307 2184 2150 2163 1897 2220 2206 1767 2053 2013 2158 2150 1894 1732 1742 1761 1564 1417 1287 1252 1199 1063 981 1044 811 772 874 973 906 866 969 983 919
874 1527 1981 1257 1528 1904 1996 2044 2112 2335 2297 2178 2113 2277 2253 2292 2262 1872 1718 2085 2069 2292 1951 1758 1915 1645 1378 1161 1110 1107 1048 927 646 572 684 803 906 992 1014 912 862 797 835
922 1199 1810 1269 1449 1831 2021 2067 2180 2196 2252 2136 2094 2255 2360 2304 2171 1514 1416 2057 2132 2281 2094 1962 1654 1478 1140 1002 995 997 907 838 456 653 650 653 744 775 771 798 966 863 819
1285 1631 2147 1299 1209 1720 2003 2092 1993 2000 2109 2147 2137 2157 2190 2190 2037 1315 1587 1861 1991 1818 1880 1627 1648 1243 1029 926 889 803 719 622 649 620 776 678 771 770 746 624 558 651 584
1726 1965 2345 1302 1268 1446 1807 1941 1860 1746 1745 2010 2041 1861 2010 1449 1396 966 1186 1323 1270 1252 1108 1448 1260 1076 929 813 660 539 447 378 442 592 523 680 564 590 459 412 301 390 88
2083 2298 2625 2001 1618 1225 1403 1622 1774 1753 1647 1670 1856 1172 1258 727 642 500 721 748 889 699 1033 1100 1038 871 799 562 529 456 307 244 380 249 303 335 450 347 197 177 130 50 13
2294 2479 2684 2402 2338 2191 2016 1417 1427 1628 1562 1260 1359 994 869 643 447 352 317 222 254 543 678 927 724 688 520 412 375 307 194 105 231 79 83 98 323 47 22 27 30 17 16
2253 2556 2355 2310 2416 2398 2170 1891 1344 1288 1174 973 883 716 612 924 578 378 157 82 138 300 282 475 430 535 358 347 293 218 135 77 92 84 61 58 48 6 15 11 16 15 13
2082 2412 2831 2560 2521 2400 1888 2451 2091 2015 1627 1412 956 1107 1128 1168 604 135 39 0 219 276 370 291 273 311 231 204 182 148 159 188 64 83 24 3 4 19 18 8 14 16 16
1964 2244 2408 2414 2475 2389 1978 2411 2428 2048 1744 1852 1403 1423 1207 1266 508 540 121 274 424 426 546 177 143 495 458 349 204 155 145 48 56 78 3 0 37 29 23 20 24 22 20
1801 2053 2176 2480 2356 2180 1832 2403 2189 1934 1906 1705 1466 1289 1294 1160 715 481 520 502 485 574 308 211 291 670 297 246 205 124 104 39 51 70 0 0 52 40 32 25 23 26 18
1431 1941 2209 2252 2047 1913 1962 1952 2070 1956 1860 2001 1488 1341 1209 879 658 195 226 293 270 425 242 185 220 580 339 181 154 83 35 43 43 57 1 2 42 59 32 35 27 23 22
1168 1856 2168 2258 1876 1735 1624 1698 1871 1904 1724 1695 1435 1369 1094 1054 746 441 115 300 515 337 114 93 137 280 347 140 131 60 55 30 7 16 15 32 21 46 45 35 28 29 26
467 1660 2234 2350 2003 1891 1761 1432 1378 1327 1416 1142 1182 1240 984 934 859 663 506 400 232 122 63 69 100 266 253 132 130 97 48 11 2 13 23 25 23 19 34 49 66 35 35
395 1647 2227 2087 1887 1817 1570 1325 1027 1117 1324 939 1014 1029 853 628 706 186 133 142 150 70 69 70 85 272 149 140 35 69 33 9 7 10 16 17 19 19 15 45 67 49 42
790 1717 2245 2047 1755 1767 1529 908 1055 852 602 781 767 732 586 466 361 271 267 54 58 69 66 37 68 280 159 93 38 59 50 21 9 8 21 29 2 12 21 30 32 30 38
1065 1817 2221 1982 1856 1654 1234 1022 737 553 653 538 509 297 432 426 168 334 109 42 46 26 52 19 75 188 146 119 32 53 88 47 19 18 22 22 17 22 15 15 12 9 14
1369 1949 2211 1947 1772 1463 1125 888 656 688 414 273 161 74 84 169 344 353 62 38 39 33 31 25 58 143 137 106 79 45 98 81 68 29 25 8 22 17 38 45 11 2 0
1484 1942 2125 1805 1610 1334 1041 717 494 460 575 421 290 187 48 61 186 33 55 26 17 33 44 30 56 92 153 113 35 54 60 49 50 31 9 15 28 32 26 27 13 2 6
1390 1970 2029 1751 1448 1184 937 658 432 174 295 210 298 372 143 269 242 192 27 49 62 33 22 14 13 78 104 106 124 55 39 32 36 53 41 31 54 33 34 16 5 1 3
1318 1787 1955 1747 1430 1183 946 611 454 346 107 312 223 251 200 146 255 142 31 35 23 17 17 2 47 76 89 116 137 140 94 31 48 55 46 33 31 25 39 15 8 4 3
1254 1739 1890 1693 1464 1181 1030 848 534 298 285 274 130 149 48 30 0 12 18 2 37 43 27 19 38 80 114 120 161 211 174 131 85 88 42 72 80 19 17 43 11 24 22
1095 1856 1790 1688 1463 1239 1187 791 471 300 266 325 158 126 17 12 2 2 26 11 17 31 11 21 41 107 141 162 179 160 141 122 102 84 106 104 134 97 69 86 52 59 85

GFSSE_con_mucape_084.txt.gz
CAPE
1476 1265 1487 1606 1838 1961 1883 1726 1661 1704 1776 1837 1916 1934 1939 1986 1982 2016 1967 1923 2023 2235 2337 1999 1732 1356 1345 1299 1295 1572 1468 1376 1329 1350 1362 1446 1222 981 1111 1042 1011 812 1194
1671 1418 1446 1660 1765 1934 2050 1898 1758 1791 1874 1956 2004 2060 2088 2108 2081 2114 2042 2001 2079 2335 2223 1785 1543 1433 1373 1479 1543 1430 1310 1162 1119 1197 1267 1398 1291 1005 888 1037 1063 1025 1181
1575 1521 1477 1582 1841 1927 1991 2116 2020 2000 2009 2061 2113 2127 2163 2192 2166 2153 2031 2029 2214 2259 2150 1731 1734 1381 1373 1612 1455 1382 1250 1167 1090 1080 1055 681 912 1178 1114 1052 1177 1199 1043
1212 1385 1539 1547 1746 1925 1937 1992 2172 2228 2192 2146 2185 2207 2188 2277 2184 2126 2034 2004 2252 2087 1877 1759 1587 1667 1674 1474 1361 1289 1194 1081 921 1020 645 743 842 1076 1088 1106 1154 1069 980
1556 1261 1647 1483 1618 1883 1934 1965 2044 2283 2216 2150 2177 2277 2191 2095 2063 2050 1794 2023 2036 2184 1952 1771 1740 1772 1461 1204 1186 1151 1051 737 609 631 674 684 672 998 1139 1061 981 974 956
1427 1547 1364 1215 1489 1845 1956 2010 2072 2202 2241 2108 2099 2101 2329 2247 2032 1946 1671 1802 2099 2115 1767 1895 1856 1536 1157 1027 1056 1026 865 786 535 521 508 608 611 906 852 938 998 937 822
2102 2116 1585 1154 1457 1797 2015 2050 2073 2123 2252 2167 2101 2196 2203 2066 1836 1476 1644 1734 1964 1672 1832 1708 1717 1255 1046 972 1001 809 798 699 526 517 495 520 521 907 796 816 740 828 738
2618 2788 1820 1343 1475 1630 1817 1839 1764 1957 2145 2174 2083 2039 2179 2017 1500 1105 1210 1296 1238 1068 1035 1097 1123 1126 1006 934 864 670 600 400 519 428 443 389 619 808 685 532 449 517 439
3021 3155 2319 1677 1415 1364 1510 1600 1657 1692 1587 1907 1969 1888 1791 1383 984 831 611 372 205 368 639 759 997 937 942 775 666 527 417 327 285 401 333 238 527 513 495 359 217 90 58
3150 3319 2995 2340 1874 1693 1499 1374 1532 1687 1636 1697 1654 1582 1412 1012 785 547 423 35 162 232 315 636 651 824 637 548 516 375 230 159 151 237 189 203 638 502 430 298 123 26 9
2699 2959 3217 2804 2522 2439 2219 1555 1357 1463 1601 1332 1231 1132 961 990 621 527 233 224 255 117 141 372 390 463 476 462 395 284 160 103 167 76 127 297 523 282 284 132 69 33 27
2586 2670 2776 2531 2843 2751 1956 2026 1841 1760 1569 1437 1299 1081 1336 1147 691 473 239 127 152 90 135 201 212 280 251 250 296 190 155 137 61 62 36 95 250 11 8 31 31 29 35
2123 2419 2901 2407 2905 2784 2150 2510 2307 2048 1816 1606 1557 1358 1380 1203 675 332 75 7 67 162 178 184 150 165 240 187 203 161 165 117 43 49 31 29 65 6 9 18 22 25 25
1695 2221 3051 2403 2486 2532 2150 2169 2217 2282 2096 1741 1637 1297 1242 974 602 235 91 39 111 139 210 178 137 239 316 248 196 188 156 71 41 38 23 7 5 3 20 22 22 19 31
1245 1972 2391 2569 2524 2566 2540 2106 2349 2335 1787 1731 1695 1413 1147 1019 624 629 334 128 163 195 214 173 163 201 176 153 205 180 25 68 37 23 3 2 0 19 30 28 33 17 22
384 1745 2416 2568 2529 2371 2093 2091 2100 2110 2150 1898 1693 1373 1103 924 690 558 479 328 186 217 206 122 124 122 96 77 87 46 22 46 17 6 0 0 0 30 43 29 18 6 18
145 1147 2510 2589 2338 1981 1758 1813 1677 1866 1853 1762 1524 1310 1147 884 603 284 192 231 121 188 176 74 78 74 88 94 55 56 43 23 12 0 0 0 2 18 30 57 57 29 20
1 603 2435 2350 2086 1956 1711 1508 1309 1346 1563 1312 1359 1219 1082 776 589 352 147 165 271 146 67 41 40 75 83 70 56 27 8 4 0 1 8 0 0 6 14 36 50 57 54
0 572 2364 2370 2107 2143 1865 1371 1040 1336 1362 1154 1109 1293 902 685 447 369 248 229 80 48 56 42 45 70 70 54 35 21 10 0 0 11 2 0 0 2 7 18 27 38 52
2 1446 2542 2266 1962 1943 1604 1303 752 965 937 918 719 578 595 521 376 344 127 88 44 40 29 45 41 25 43 22 22 32 27 1 0 5 15 0 0 0 0 2 11 14 19
589 1879 2573 2149 1878 1802 1395 1003 741 527 725 398 312 195 366 341 321 146 102 58 10 31 39 41 40 39 49 28 7 34 34 25 9 10 26 11 0 0 0 0 0 0 0
1412 1824 2560 2153 1943 1777 1336 890 850 624 541 262 199 159 249 208 229 112 70 42 19 6 27 25 11 43 24 46 0 13 10 23 27 25 17 5 15 9 5 1 1 0 0
1556 2007 2416 2045 1971 1656 1247 1007 750 644 525 347 409 248 138 83 72 138 99 93 83 20 14 19 4 23 0 41 27 0 0 0 13 30 10 12 25 15 3 17 7 0 0
1242 2171 2282 2055 1819 1651 1304 936 636 400 396 215 279 232 185 167 131 142 31 24 27 29 26 31 4 14 43 3 44 21 20 10 0 8 13 16 13 10 10 13 4 7 14
1183 2153 2274 2009 1682 1461 1301 924 645 422 326 174 207 206 90 60 124 133 86 17 11 26 39 42 34 23 28 7 0 39 48 75 17 9 6 0 9 10 4 0 10 2 0
1044 2032 2257 1928 1604 1386 1300 926 802 502 291 201 131 79 175 51 0 23 15 12 15 1 28 42 23 21 24 39 47 55 72 86 81 38 16 25 8 1 0 0 0 0 0

GFSSE_con_mucape_087.txt.gz
CAPE
1086 1235 1617 1768 1697 1640 1557 1501 1493 1614 1742 1863 1895 1887 1928 2013 2040 1981 2007 2087 2103 2151 2262 2056 1892 1730 1534 1355 1599 1599 1383 1164 1148 1263 1316 1402 1358 1236 1424 1308 1136 974 1317
1139 1247 1529 1779 1847 1823 1717 1599 1578 1716 1882 2006 2008 2027 2048 2041 2060 2016 2000 2179 2223 2434 2040 1731 1661 1597 1468 1527 1559 1485 1416 1253 1127 1092 1218 1353 1494 1371 1224 1249 1133 1090 1269
1210 1318 1416 1662 1905 2000 1932 1816 1781 1931 2050 2106 2126 2142 2149 2128 2137 2048 1973 2089 2337 2475 2141 1808 1621 1619 1613 1503 1394 1368 1318 1265 1207 1099 1091 888 1006 1438 1196 1323 1254 1222 1117
1356 1396 1479 1577 1762 1961 2014 1923 1903 2092 2147 2198 2194 2265 2252 2228 2208 2066 1916 2029 2362 2466 2311 1745 1604 1653 1560 1438 1276 1252 1239 1184 1106 955 737 818 1027 1289 1228 1143 1080 1125 1107
1124 1401 1570 1624 1718 1810 1868 2028 1985 2093 2108 2129 2190 2373 2358 2290 2106 1983 1916 2075 2351 2391 2175 1816 1854 1778 1459 1187 1130 1135 1044 897 711 686 785 771 859 1088 1201 1006 1074 1109 1019
1023 1548 1418 1491 1627 1795 1858 1888 2057 2103 2014 2024 2081 2288 2389 2261 2175 1967 1762 1923 2409 2297 2075 1948 2148 1611 1128 1020 1004 920 730 639 500 654 649 762 758 960 1070 969 1054 1046 905
1436 1448 1296 1406 1635 1809 1921 1947 1956 2096 2127 2026 2090 2108 2271 2161 2034 1840 1699 1602 2073 2014 1462 1792 1785 1205 1057 1006 895 709 550 488 513 550 570 602 643 1028 960 986 935 995 897
1732 1621 1173 1403 1615 1757 1831 1800 1864 2052 2184 2141 2130 2141 2228 2045 1730 1407 1466 1224 1076 838 807 1104 1096 1067 999 991 719 536 480 477 494 486 487 491 831 961 970 741 735 719 668
2053 1702 1412 1394 1521 1609 1644 1590 1705 2010 2167 2153 2121 2086 2059 1875 1527 1041 874 596 337 299 268 418 885 929 958 745 537 480 464 383 356 352 336 405 824 835 819 589 476 370 353
2405 2143 1581 1230 1276 1427 1499 1510 1554 1634 1493 1547 1736 1818 1943 1678 1143 863 749 574 483 181 110 164 519 718 782 540 454 409 377 344 285 250 196 370 872 677 608 529 334 167 77
2597 2343 2195 1369 1306 1241 1237 1350 1504 1602 1550 1636 1717 1689 1370 1412 929 903 649 372 239 7 137 204 219 447 301 375 342 284 213 224 196 167 159 519 907 797 648 413 269 121 29
2322 2724 2424 2066 1800 1671 1656 1308 1263 1443 1514 1333 1211 1105 1053 1039 838 726 530 261 178 133 166 143 162 173 154 270 270 196 111 102 134 140 184 402 809 539 571 393 231 106 40
2202 2778 2546 2298 2398 2232 2075 1695 1264 1239 1176 1110 1047 928 1178 884 663 619 501 261 92 109 55 88 108 125 166 209 220 176 58 36 95 143 159 245 518 355 277 192 85 34 28
2234 2534 2494 2304 2399 2269 2233 1786 1724 1635 1370 1218 1094 1011 1216 960 644 521 565 248 75 75 98 56 51 145 133 185 177 130 65 17 73 71 92 68 135 98 45 76 56 38 27
1275 2436 2561 2515 2350 2204 2098 2067 1932 2059 1790 1491 1290 1148 1100 984 716 511 381 258 119 68 88 90 58 146 178 145 119 86 41 19 51 38 31 20 13 32 14 20 29 23 26
0 2084 2649 2661 2226 2081 1965 1903 1461 1967 2017 1659 1409 1133 1022 965 829 630 418 244 115 121 162 107 85 138 194 171 113 113 34 11 21 12 11 1 0 1 10 18 14 27 20
0 503 2559 2459 2229 1962 1952 1865 1776 1766 1696 1619 1394 1231 1087 1049 915 655 452 231 133 157 153 129 89 95 70 80 67 72 42 3 3 0 0 0 0 0 4 36 41 28 13
0 254 2492 2339 2315 2307 2031 1747 1499 1538 1720 1534 1327 1243 1072 943 876 748 619 346 185 190 130 107 72 57 34 42 37 36 27 2 1 2 0 0 0 0 2 29 43 45 41
0 230 2363 2304 2361 2159 1896 1579 1298 1311 1424 1545 1299 1166 1118 981 761 571 478 432 244 113 76 62 36 29 41 55 50 35 28 5 7 2 0 0 0 0 0 12 20 25 44
0 678 2124 2240 2211 1934 1784 1396 1152 792 1148 1223 1097 974 1025 850 710 550 386 283 193 92 84 39 11 20 49 26 84 26 32 17 3 5 0 0 0 0 0 6 11 16 18
0 1651 2010 2185 2132 1836 1530 1459 1178 608 1627 1068 818 849 828 736 594 434 323 167 82 48 63 51 35 31 39 23 30 20 11 2 1 0 0 3 0 0 0 0 3 0 2
20 1897 2046 2165 2123 1791 1519 1388 1239 787 534 577 752 606 562 493 431 374 254 158 103 74 29 34 8 26 37 27 0 18 0 0 17 7 9 3 0 0 0 0 0 0 0
907 1953 2142 2170 1996 1846 1543 1350 1279 416 443 435 387 186 202 270 286 253 194 107 80 39 6 18 27 26 28 35 27 0 0 0 16 22 13 9 9 4 0 0 0 0 0
1949 2125 2150 2065 2023 1766 1521 1350 859 554 517 389 236 208 115 103 220 232 137 66 64 46 40 39 28 11 10 0 26 0 0 4 0 8 8 8 8 9 6 0 0 0 0
2027 2233 2077 2050 1925 1607 1437 1293 765 667 648 437 197 254 214 114 99 80 111 74 116 78 61 46 13 15 30 2 0 0 0 20 0 0 0 0 0 0 0 0 0 0 0
1697 2115 2102 1999 1824 1635 1390 1187 1010 695 545 445 209 214 168 123 123 110 114 79 61 52 46 53 24 18 8 14 22 0 0 0 0 2 2 0 0 0 0 0 0 0 0

GFSSE_con_mucape_090.txt.gz
CAPE
994 1331 1548 1610 1664 1644 1563 1488 1489 1531 1639 1693 1768 1949 2075 2059 2011 1993 2102 2081 1980 2252 2441 1826 1958 1957 1791 1504 1785 1582 1519 1385 1228 1456 1507 1665 1438 1317 1307 1444 1367 1242 1549
1047 1440 1619 1640 1728 1799 1731 1613 1624 1733 1892 1931 1869 1932 2046 2083 2041 2097 2157 2197 2300 2300 2192 1804 1932 1895 1552 1610 1497 1444 1342 1266 1298 1354 1570 1394 1445 1275 1242 1326 1259 1283 1402
1179 1483 1693 1706 1798 1867 1890 1838 1899 2025 2108 2099 2057 2005 2060 2145 2117 2124 2193 2290 2342 2455 2094 1799 1774 1868 1696 1639 1503 1491 1399 1320 1274 1324 1337 1096 1168 1331 1286 1375 1386 1388 1225
1263 1493 1689 1778 1883 1931 1876 1885 1991 2168 2157 2232 2220 2174 2164 2229 2166 2087 2125 2233 2428 2487 2201 1944 1909 1889 1653 1495 1406 1387 1281 1136 1008 944 841 903 1225 1332 1262 1239 1266 1234 1237
1337 1465 1575 1831 1976 1970 1905 1897 1977 2120 2153 2181 2241 2341 2333 2350 2322 2172 2023 1988 2495 2536 2295 1984 1899 1663 1442 1198 1192 1203 1149 864 750 684 720 886 1086 1292 1301 1241 1278 1191 1203
1383 1439 1546 1688 1864 2005 2018 1959 1994 2025 1959 1978 2111 2390 2464 2469 2435 2152 1929 2051 2528 2376 2296 2197 2051 1243 1077 968 1021 1043 818 537 562 583 699 844 860 1145 1097 1168 1241 1123 1023
1297 1378 1537 1631 1710 1872 2058 2103 2029 1966 1921 1937 2057 2227 2375 2446 2247 2106 1807 1898 2200 1751 1565 1612 1377 923 1009 864 910 693 420 534 574 598 701 716 782 1133 1082 1098 1138 1125 1090
1277 1215 1364 1490 1658 1838 1909 1865 1973 2028 1947 1979 1992 2069 2267 2221 2119 1957 1731 1520 1444 1013 882 1030 926 816 828 856 673 382 375 501 499 568 617 618 987 1040 1068 914 969 1024 955
1350 1154 1332 1540 1653 1691 1749 1715 1779 1980 2049 2029 2031 2021 2086 2041 1856 1671 1534 1213 953 782 684 701 571 618 523 631 415 350 443 496 441 465 438 597 976 1055 1070 892 814 682 609
1523 1291 1234 1424 1588 1619 1595 1604 1778 1975 2085 2078 2048 1998 1979 1995 1813 1386 1144 930 724 684 596 533 333 338 385 307 310 374 428 412 397 346 422 449 1025 897 829 627 558 428 316
1601 1673 1442 1273 1388 1463 1423 1475 1696 1854 1970 1956 1809 1775 1843 1943 1558 1280 998 785 513 425 414 348 177 115 140 211 233 298 354 292 304 282 310 619 881 812 733 620 578 406 204
1956 1910 1663 1175 1242 1375 1376 1415 1546 1615 1531 1633 1705 1813 1742 1626 1304 1146 995 835 638 276 179 255 186 123 158 122 150 231 234 202 223 203 288 470 996 897 795 575 528 275 143
2088 2046 2145 1677 1221 1274 1394 1264 1348 1491 1493 1462 1650 1505 1343 1322 1054 1089 1022 736 553 222 177 178 89 102 112 86 97 114 121 108 154 154 294 410 848 776 708 486 304 213 127
2229 2334 2377 2144 1647 1607 1823 1423 1117 1209 1327 1241 1096 1102 1069 1051 924 879 769 499 260 195 167 36 62 31 94 87 73 87 84 76 141 143 218 306 460 659 603 487 261 152 61
2046 2513 2472 2508 2238 2065 2122 1916 1362 1185 1047 1006 1010 977 987 883 751 577 632 471 346 242 168 53 3 89 114 99 67 107 38 52 127 124 176 224 243 402 469 324 173 67 31
1907 2443 2591 2591 2457 2283 2323 2110 1773 1560 1413 1134 1021 998 1023 853 730 583 614 604 509 388 262 62 21 43 150 132 74 89 36 20 118 91 116 107 30 73 229 241 136 60 36
3 2078 2618 2590 2495 2185 2217 2180 1868 1918 1986 1594 1191 1137 1166 1017 891 790 613 571 456 496 262 178 26 64 110 111 67 46 50 32 68 45 44 13 0 0 3 43 41 40 26
0 1171 2530 2443 2616 2153 2047 2151 1665 1888 1921 2034 1544 1257 1134 994 948 889 720 593 487 362 235 275 75 34 76 98 64 33 37 46 42 21 2 0 0 0 0 12 32 49 39
0 4 2306 2446 2612 2421 1834 1972 1807 1862 1748 1909 1566 1308 1138 1044 1010 936 743 657 517 348 611 601 62 52 84 81 53 52 19 32 11 0 0 0 0 0 0 7 24 26 40
0 85 2132 2286 2458 2506 1853 1784 1563 1683 1717 1456 1425 1324 1173 1017 983 910 705 612 542 377 222 257 60 68 57 58 106 60 8 6 3 0 0 0 0 0 0 0 12 12 24
0 608 1761 2164 2214 2368 1777 1740 1338 1248 1417 1467 1811 1295 1056 1010 925 852 634 667 582 416 234 158 69 63 37 56 86 40 9 5 1 0 0 0 0 0 0 0 1 0 7
0 386 1868 2009 2099 2285 1864 1752 1458 1003 625 707 1126 1049 941 972 795 817 678 526 444 375 405 144 70 6 23 56 39 22 0 0 6 0 0 0 0 0 0 0 0 0 0
0 1330 1753 1804 1867 1833 1922 1565 1377 932 634 495 806 777 724 739 764 712 575 490 314 471 467 85 65 19 25 24 8 13 19 17 0 0 0 0 0 0 0 0 0 0 0
0 1050 1703 1754 1704 1724 1957 1657 1312 1030 546 282 370 626 552 559 552 482 428 277 122 279 105 119 96 59 30 14 0 24 1 0 0 0 0 0 0 0 0 0 0 0 0
509 1429 1698 1725 1649 1775 2001 1647 1358 1090 696 259 340 507 370 187 316 339 273 231 128 81 76 118 137 11 39 21 17 10 0 11 0 0 0 0 3 1 0 0 0 0 0
1689 1793 1694 1683 1605 1844 1827 1583 1429 1147 601 372 373 298 201 165 171 214 288 257 272 206 88 129 72 36 45 5 7 1 0 0 0 0 0 0 0 0 0 0 0 0 0

GFSSE_con_mucape_093.txt.gz
CAPE
852 1223 1459 1622 1706 1679 1576 1427 1429 1536 1751 1890 1941 2108 2181 2279 2182 2082 2008 2083 2206 2176 2138 1845 1894 2099 2107 1807 1991 1897 1837 1752 1534 1666 1733 1702 1493 1415 1496 1650 1492 1296 1529
990 1317 1439 1646 1814 1806 1719 1549 1554 1686 1840 2004 2049 2073 2110 2151 2208 2209 2165 2193 2174 2530 2025 1863 1918 2016 1724 1912 1724 1691 1591 1526 1452 1678 1750 1519 1385 1209 1427 1435 1482 1403 1572
1198 1465 1448 1643 1854 1881 1846 1782 1798 1917 1947 2009 2090 2114 2120 2141 2195 2218 2196 2150 2402 2590 2144 1884 1745 1697 1707 1758 1511 1529 1454 1463 1596 1600 1605 1094 1081 1276 1364 1434 1553 1437 1408
1355 1543 1541 1656 1865 1946 1873 1895 1940 2109 2062 2031 2089 2173 2204 2205 2228 2237 2207 2255 2470 2514 1944 1894 1951 1851 1733 1463 1207 1484 1430 1390 1357 1362 1134 1101 1020 1371 1213 1362 1334 1395 1347
1460 1600 1665 1733 1840 1937 1935 1991 2028 2117 2069 2042 2069 2237 2324 2316 2312 2319 2114 2139 2578 2502 2309 1590 1697 1448 1377 1192 1274 1332 1220 1079 1002 1011 1101 1050 1114 1410 1250 1357 1232 1388 1342
1456 1620 1782 1786 1800 1877 1955 2043 2094 2038 1958 1954 2064 2239 2396 2446 2388 2277 2115 2192 2666 2563 2251 2104 1971 1332 1090 1056 1194 1134 917 789 750 737 878 1046 893 1196 1268 1336 1345 1286 1358
1414 1548 1809 1856 1857 1925 2052 2084 2067 1960 1861 1933 2100 2214 2339 2463 2407 2112 1872 2306 2384 2054 1792 1400 1201 1140 1011 1053 1144 895 676 638 625 668 748 787 957 1315 1184 1239 1234 1242 1330
1292 1479 1748 1885 1911 1987 2067 2014 1970 1905 1853 1882 2042 2146 2332 2296 2219 1975 1861 1965 1790 1428 1169 1226 1083 956 987 931 915 708 623 543 577 600 560 700 1103 1251 1160 1081 1194 1155 1206
1201 1318 1509 1692 1783 1853 1963 1998 1998 1940 1919 1893 1944 2062 2170 2079 1969 1916 1839 1748 1632 1085 995 953 890 844 842 732 652 421 642 563 523 493 516 729 1164 1172 1003 861 987 995 1025
983 1207 1400 1542 1663 1714 1738 1776 1922 2049 1996 1955 1952 1967 2027 1918 1844 1752 1670 1548 1319 1063 957 930 740 597 507 362 378 240 454 503 485 475 514 586 1156 1170 1139 879 806 800 726
885 964 1107 1399 1413 1545 1614 1683 1766 1965 2079 2040 2018 2006 1942 1913 1756 1592 1434 1327 1047 782 717 722 448 395 180 152 191 122 289 403 388 406 427 746 1146 1086 1006 802 819 609 457
1140 890 1011 1216 1395 1515 1344 1571 1749 1940 2106 2100 2038 2024 1955 1895 1821 1559 1245 1132 981 637 571 456 228 181 82 60 131 124 199 307 277 350 367 655 1091 973 791 618 569 410 369
1553 1325 1273 1153 1248 1241 1301 1352 1560 1829 1943 1897 1709 1780 1837 1942 1714 1456 1299 1091 880 725 436 310 87 56 30 73 82 63 107 230 217 231 312 417 986 934 794 774 530 470 331
1940 1765 1667 1301 1120 1275 1238 1144 1270 1635 1608 1637 1702 1769 1850 1738 1380 1104 1074 1027 861 768 319 89 180 147 39 48 82 73 79 180 178 192 260 362 470 1069 768 682 592 454 279
1733 2114 1911 1675 1302 1156 1197 1071 1010 1196 1313 1425 1508 1705 1598 1445 1601 896 1049 996 768 635 321 161 216 220 70 53 95 83 78 142 145 162 203 210 288 666 655 535 468 321 189
414 1883 2278 2109 1941 1608 1409 1083 1007 1011 1094 1276 1230 1242 1151 984 1170 1162 796 968 497 287 144 144 156 90 28 61 96 88 60 89 144 152 167 137 185 269 453 485 383 240 119
0 1308 2384 2381 2313 2134 1749 1521 1250 1070 1024 1025 1146 991 1181 1034 950 713 566 859 641 290 310 262 173 71 92 55 80 83 56 71 134 138 158 184 182 126 210 346 342 311 111
0 508 2192 2463 2492 2502 2086 1915 1829 1565 1318 1163 999 1004 966 903 750 654 577 421 396 416 406 305 213 12 65 113 52 87 51 51 81 110 122 136 46 0 26 88 98 157 88
0 0 1579 2413 2534 2735 2506 2104 2023 1941 1541 1559 1439 1184 1092 1110 1028 842 734 503 665 781 716 586 229 94 11 21 58 54 46 47 50 86 92 45 0 0 0 0 3 10 44
0 0 652 2200 2418 2610 2569 2078 2032 1990 1853 1974 2092 1843 1376 1269 1125 933 829 638 522 574 426 429 262 73 5 4 44 52 40 30 47 46 62 1 0 0 0 0 7 17 35
0 0 84 1971 2202 2322 2355 2103 1911 1814 1815 1827 2052 2084 1647 1330 1130 995 901 627 515 520 484 371 213 147 10 38 60 39 39 44 37 48 20 2 0 0 0 0 0 3 19
0 0 25 1671 2043 2162 2109 2138 1759 1657 1672 1520 1729 1786 1496 1319 1112 1011 888 639 1025 465 500 395 253 294 57 63 44 67 33 12 42 30 8 1 2 0 0 0 0 0 2
0 0 653 1486 1918 1956 1943 1939 1774 1474 1277 990 1324 1331 1420 1225 1008 928 832 412 404 503 606 671 431 182 33 60 55 25 40 3 0 13 2 6 2 0 0 0 0 0 0
3 15 652 1575 1804 1864 1840 1777 1669 1337 1033 937 1235 1084 1257 1094 1012 927 703 650 573 413 502 592 507 298 71 37 39 33 34 32 0 0 1 1 0 0 0 0 0 0 0
88 344 465 1667 1702 1702 1648 1593 1662 1395 940 703 522 593 1048 923 835 786 690 610 543 394 392 711 593 141 54 51 15 27 25 22 8 0 0 0 0 0 0 0 0 0 0
260 1144 917 1648 1690 1487 1361 1445 1738 1447 970 773 520 409 723 666 629 625 570 358 313 288 81 387 337 174 209 58 59 23 14 0 30 19 0 0 0 0 0 0 0 0 0

GFSSE_con_mucape_096.txt.gz
CAPE
672 1108 1454 1662 1734 1685 1503 1469 1469 1512 1846 2114 2225 2298 2143 1955 1931 1891 1945 2213 2357 2577 2541 2004 2108 1956 2167 2000 2256 2116 1885 1701 1684 1585 1678 1781 1534 1501 1653 1726 1592 1270 1533
721 1198 1430 1663 1842 1839 1693 1542 1583 1662 1882 2163 2256 2347 2284 2135 2085 2014 2117 2318 2369 2598 2327 2014 2044 2189 2045 2190 1794 1875 1781 1512 1471 1478 1555 1893 1790 1586 1572 1572 1520 1364 1424
1050 1324 1456 1569 1868 1952 1883 1786 1796 1937 1969 2144 2256 2298 2345 2347 2224 2136 2161 2229 2368 2541 2205 1891 1827 1858 1886 1663 1449 1602 1594 1482 1417 1498 1662 1172 1086 1476 1542 1585 1638 1495 1397
1196 1355 1443 1656 1791 1984 1915 1943 1972 2147 2145 2145 2208 2287 2348 2389 2343 2235 2141 2158 2517 2529 2315 1887 1801 1828 1947 1438 1403 1465 1515 1560 1495 1514 1137 979 1116 1461 1321 1477 1470 1458 1468
1368 1408 1519 1804 1927 1993 1970 2001 2084 2090 2018 2088 2168 2296 2367 2415 2379 2323 2151 2339 2621 2591 2276 2010 1990 2046 1486 1190 1224 1350 1451 1417 1357 1120 1049 855 1506 1364 1356 1367 1458 1449 1471
1512 1556 1681 1815 1962 1987 2028 2078 2131 1993 1857 1912 2120 2333 2426 2485 2499 2354 2186 2359 2785 2608 2508 2332 1736 1729 1167 1103 1183 1242 1192 1237 1152 1080 1060 867 1442 1355 1413 1360 1465 1468 1382
1560 1661 1721 1848 1917 1962 2130 2166 2119 1930 1809 1889 2093 2261 2395 2481 2473 2243 2097 2328 2642 2522 2336 2202 1748 1327 1094 1113 1164 1017 937 1021 1012 1085 988 689 1149 1394 1263 1265 1380 1390 1354
1474 1630 1700 1872 1931 1969 2045 2056 2027 1866 1830 1887 2017 2142 2399 2387 2262 2153 2067 2234 2342 1972 1790 1638 1339 1144 1064 1115 1039 895 809 831 846 940 982 720 1009 1249 1326 1222 1304 1337 1349
1360 1576 1659 1830 1901 1918 1930 1913 1932 1824 1825 1900 1979 2049 2219 2235 2104 2005 2004 2161 1988 1541 1439 1375 1128 1029 1050 1017 824 718 664 719 696 812 738 623 1288 1503 1253 1176 1182 1275 1187
1330 1499 1668 2163 1930 1870 1832 1863 1875 1839 1848 1881 1932 1995 2056 2017 1988 1911 1864 1907 1701 1261 1250 1198 917 982 913 802 652 627 584 572 586 591 526 511 973 1397 1180 926 983 1079 1013
1216 1400 1911 2378 2262 2033 1813 1911 1911 1911 1929 1950 1954 1947 2016 1891 1891 1825 1765 1678 1547 1070 1030 931 770 669 562 591 509 322 256 216 210 328 435 527 1053 1312 1169 1037 976 975 866
918 1224 1427 1919 1984 2157 1636 1749 1880 1903 1911 1920 1960 1983 1938 1892 1765 1693 1660 1585 1417 907 887 777 634 502 287 369 314 101 78 112 114 270 421 620 1215 1200 1101 916 940 895 792
1259 905 975 1199 1636 2074 1833 2060 1792 2294 2102 1961 1935 2017 2003 1896 1867 1744 1518 1387 1224 917 716 618 518 347 188 203 97 64 61 65 87 175 334 524 880 1186 1065 800 663 581 491
1693 1589 1142 939 1249 1633 1512 1669 1903 1902 2079 1852 1956 2043 2011 1874 1764 1818 1625 1376 1126 952 788 530 462 260 130 73 109 53 29 40 76 109 274 445 719 1081 1013 870 623 580 437
674 1715 1821 1408 1174 1073 1126 1354 1268 1650 1943 1798 1824 1786 1779 1733 1995 1687 1491 1394 1203 956 828 478 312 102 98 96 114 36 26 22 41 68 233 370 385 817 1033 797 693 540 442
0 735 1813 1892 1784 1512 1092 1080 1113 1398 1489 1572 1512 1639 1777 1861 2155 2120 1026 887 949 900 767 508 259 184 74 93 85 40 26 45 38 76 210 247 221 262 636 689 525 370 367
0 0 1052 1954 2040 1858 1458 1150 1076 1052 1158 1246 1247 1681 1956 1935 1538 1656 1464 1096 747 1021 616 482 47 91 158 102 59 70 48 82 42 111 198 172 223 168 219 400 456 370 315
0 0 0 1621 1858 2046 1942 1621 1451 1155 966 929 1054 1472 1848 1666 1150 1083 1136 1201 926 1074 416 82 77 176 101 66 20 53 81 75 51 58 139 190 190 187 196 217 208 241 255
0 0 0 1005 1843 1775 2175 2066 1786 1306 1092 951 914 1106 1592 1409 989 800 871 533 662 961 319 141 188 170 146 10 7 48 32 44 50 50 87 145 163 116 62 86 74 42 63
0 0 0 266 1733 2064 2083 2121 2024 1680 1334 1193 993 972 1390 1405 965 785 835 716 746 700 615 229 281 165 148 19 32 21 23 23 66 60 44 63 85 36 3 1 24 0 3
0 0 0 13 1569 2065 2217 2213 1969 1973 1718 1481 1309 1170 1096 1545 978 1100 1022 830 853 520 924 784 318 40 125 97 53 38 59 44 43 42 73 43 55 7 0 0 0 0 2
0 0 0 0 885 2043 2026 2032 1905 1866 1859 1700 1554 1371 1445 1396 1216 1248 1123 854 742 803 791 643 425 105 148 63 24 10 23 44 46 23 27 57 37 1 0 0 0 0 0
7 0 0 0 266 1793 2018 1968 1825 1696 1557 1826 1581 1314 1111 1420 1487 1320 1167 915 937 414 592 460 478 447 129 98 32 33 18 8 6 11 16 45 22 5 0 0 0 0 0
52 3 0 13 0 1709 1994 1851 1559 1564 1286 1242 1328 838 524 790 1416 1382 1181 1112 863 207 505 186 570 328 359 108 45 41 13 1 24 3 20 41 4 2 5 0 0 0 0
21 42 1 115 45 1490 1918 1719 1503 1488 1372 1244 1176 342 185 509 1015 1332 1067 797 700 229 382 247 254 419 405 159 208 83 69 37 13 20 0 0 10 7 12 1 0 0 0
30 97 92 485 541 1628 1760 1591 1345 1307 1393 1302 1125 574 319 842 753 1047 1167 725 477 494 503 271 251 545 541 203 183 185 46 30 2 11 4 1 0 1 9 7 0 0 0

GFSSE_con_mucape_099.txt.gz
CAPE
701 1593 1536 1743 1778 1627 1535 1465 1547 1890 2016 2051 2040 1918 1932 2029 1933 1818 1863 2106 2234 2467 2389 2230 2229 1850 1807 1910 2220 2009 1814 1738 1777 1816 1743 1701 1571 1440 1571 1827 1625 1335 1575
905 1724 1533 1765 1853 1785 1727 1558 1529 1935 2288 2368 2211 2086 2071 2105 1992 1942 2096 2241 2375 2626 2641 2157 2054 2155 2288 2166 2277 1871 1721 1551 1422 1600 1766 1984 1846 1638 1664 1640 1420 1464 1659
1262 1744 1768 1750 1874 1875 1864 1790 1795 2055 2394 2502 2461 2270 2182 2210 2111 2076 2153 2241 2540 2788 2716 2094 1970 2231 2374 2033 1888 1773 1616 1458 1463 1577 1677 1416 1380 1720 1636 1595 1690 1723 1737
1488 1779 1853 1749 1877 1911 1860 1881 1979 2235 2378 2460 2523 2498 2336 2325 2250 2231 2245 2289 2626 2795 2584 2141 2059 2201 2024 1640 1624 1627 1517 1425 1376 1531 1435 1285 1157 1759 1579 1534 1519 1518 1561
1624 1779 1890 1746 1829 1939 1893 1935 2037 2198 2157 2250 2372 2602 2598 2532 2484 2438 2264 2359 2772 2800 2624 2231 2406 2329 1559 1354 1370 1438 1481 1406 1371 1319 1442 1307 1271 1518 1517 1642 1684 1578 1455
1675 1787 1733 1617 1809 1930 1940 2013 2076 2010 1916 2030 2212 2505 2689 2736 2651 2465 2268 2626 2907 2851 2714 2580 2521 2030 1279 1129 1206 1361 1374 1373 1217 1495 1340 1271 1213 1496 1465 1446 1541 1524 1324
1742 1869 2031 1847 1869 1946 2028 2066 2007 1848 1829 1941 2122 2284 2527 2656 2618 2344 2285 2474 2806 2599 2511 2524 2181 1585 1218 1139 1215 1244 1275 1234 1337 1510 1403 1283 1207 1612 1425 1469 1510 1500 1438
1754 1921 2107 1879 1922 1937 1993 1990 1902 1750 1754 1899 2063 2154 2372 2432 2382 2251 2259 2352 2580 2381 2134 2026 1640 1447 1251 1239 1125 1035 1139 1099 1161 1413 1487 1314 1198 1385 1482 1310 1416 1376 1342
1645 1906 2113 2295 2157 1942 1980 1927 1858 1701 1708 1853 1977 2119 2199 2137 2152 2165 2204 2133 2325 2114 1857 1732 1500 1272 1278 1246 1059 912 955 998 1110 1462 1487 1415 1303 1409 1362 1285 1289 1251 1243
1357 1553 1712 1877 2234 2232 2381 1973 1913 1741 1690 1759 1888 2026 2135 2017 1962 2022 2075 2088 2164 1826 1581 1507 1317 1156 1232 1210 1059 880 852 846 1072 1248 1525 1450 1034 1116 1280 1248 1160 1117 1144
1172 1315 1668 2062 2231 2095 1978 2221 1948 1800 1743 1790 1885 1926 2138 2249 2274 2179 2069 2066 2020 1535 1387 1304 1216 1047 1112 1086 888 814 773 873 626 683 1362 856 1066 1175 1230 1384 1097 969 1006
1303 1096 1814 2160 2480 2323 2154 1905 2301 2322 2254 2226 2254 2395 2400 2391 2322 2162 1911 1767 1738 1374 1150 1092 998 934 946 1341 1090 691 1207 783 511 447 1230 560 962 1068 1133 1055 979 950 864
1178 1255 1038 1488 2160 2437 2220 2018 2274 2102 2181 2031 1920 2101 2388 2472 2260 2203 2352 2112 2194 1333 1674 1124 1189 1271 1210 1239 1087 1041 598 461 283 340 531 323 561 1136 1090 931 845 842 730
1679 1353 1320 1132 1301 1625 2104 1240 2254 2294 2135 2635 2611 2408 2120 1980 2066 1955 1801 1892 2067 1612 1360 1614 1312 1308 1009 978 1038 789 339 274 167 217 299 205 230 1114 1059 904 899 690 588
103 985 1748 1333 1113 978 1398 1494 1998 1875 1808 1913 2436 2220 1984 2138 2262 1534 1520 1465 1599 1298 1103 1100 1009 1010 892 851 930 659 327 238 60 116 205 144 151 631 1141 979 809 693 569
0 92 782 1701 1487 1290 1418 1197 1430 1666 1461 2160 2262 2035 2135 2395 2190 2019 2297 1924 1484 1261 1186 1004 816 623 693 635 457 286 291 213 17 40 106 199 138 350 752 1262 889 798 596
0 0 0 697 1947 1626 1512 1596 1434 1315 1211 1310 1969 2230 2131 2341 2179 1939 2155 2042 1758 1229 1675 1153 711 503 343 616 584 202 258 47 22 11 67 79 112 176 312 366 503 649 496
0 0 0 0 984 1970 1884 1788 1721 1491 1247 1154 1722 2088 1797 2030 2056 2062 1993 1827 1162 800 1359 1250 743 516 274 106 90 111 425 49 14 45 35 30 708 465 142 178 232 390 375
0 0 0 0 0 1413 1922 2083 1927 1737 1472 1184 1255 1613 1543 1664 1790 1953 1680 1200 822 599 731 1245 617 337 68 163 170 211 130 65 35 63 35 76 356 430 539 132 160 161 183
0 0 0 0 0 257 1838 1998 2023 1762 1777 1754 1430 1129 1311 1328 1573 1739 1317 908 737 563 405 728 231 77 119 129 142 141 127 93 66 62 33 11 80 327 342 282 297 191 89
0 0 0 0 0 0 1807 1843 1485 1692 1559 1757 1601 1260 1213 1042 1187 1257 912 908 694 497 388 700 235 134 128 88 75 70 43 10 36 61 37 59 46 75 87 225 240 196 79
0 0 0 0 0 0 527 1860 1870 1472 1783 1826 1604 1273 1220 943 952 1086 1043 809 792 612 659 326 410 133 194 71 29 50 17 18 19 45 45 46 36 53 55 21 54 65 74
0 0 0 0 0 0 6 1657 2001 1804 1816 1997 1570 1423 1288 1060 1019 1370 1133 937 871 683 533 408 512 291 217 80 40 98 31 17 19 29 18 26 19 61 51 15 0 0 2
0 0 0 0 0 0 1 1186 1846 1508 1499 1750 1811 1450 1517 1149 939 951 1016 863 959 752 603 697 161 80 322 84 55 97 30 20 25 3 28 27 29 46 49 14 3 0 1
0 0 0 0 0 0 45 872 2113 1716 1990 2033 1890 1369 1373 1274 1035 433 1 353 790 824 738 302 110 259 201 198 72 67 31 54 36 11 6 25 30 12 48 22 16 0 0
0 0 0 21 25 57 357 953 1918 1802 1840 1843 1538 1324 1426 1100 619 98 57 346 849 962 757 393 208 202 186 368 167 148 21 46 87 17 30 34 17 5 24 3 8 1 6

GFSSE_con_mucape_102.txt.gz
CAPE
1199 2092 1564 1757 1726 1731 1699 1789 1950 1962 1919 1901 1935 1920 2009 2111 1996 1957 2091 2319 2331 2579 2654 2502 2568 2384 1969 1850 1986 2094 1998 1846 1890 1926 1918 1876 1555 1567 1605 1793 1624 1332 1657
1428 2405 1563 1752 1755 1804 1837 1775 1960 2084 2056 2154 2087 2070 2129 2182 2066 2044 2200 2428 2476 2725 2535 2538 2436 2213 2081 2407 2335 2012 1849 1690 1758 1795 1942 1980 1706 1666 1650 1692 1621 1435 1685
1545 2369 2008 1713 1769 1872 1950 1928 2171 2414 2487 2476 2296 2247 2319 2316 2189 2137 2268 2375 2639 2874 2837 2418 2043 2091 2662 2532 2061 1797 1836 1617 1620 1779 1911 1487 1487 1813 1639 1669 1700 1749 1672
1577 2254 2305 1715 1746 1870 1896 1939 2200 2652 2722 2631 2488 2398 2487 2432 2308 2341 2344 2388 2681 3063 2952 2295 2220 2741 2607 2194 1859 1721 1678 1560 1568 1701 1538 1183 1339 1748 1653 1630 1544 1610 1590
1761 2030 2090 1713 1708 1841 1864 1919 2106 2472 2568 2636 2613 2567 2585 2587 2510 2513 2386 2560 3020 3177 3068 2450 2627 2736 1960 1722 1682 1607 1571 1463 1519 1415 1309 1153 1292 1649 1652 1571 1606 1644 1496
1812 1910 1814 1713 1725 1816 1877 1921 2046 2109 2252 2429 2589 2698 2719 2703 2671 2618 2423 2746 3208 3136 3037 2942 2889 2110 1544 1455 1516 1517 1426 1401 1397 1497 1219 1237 1307 1654 1615 1736 1503 1409 1385
2075 2074 2307 1701 1737 1819 1938 1969 1976 1875 1997 2250 2503 2635 2700 2786 2746 2496 2393 2745 2900 3052 2975 2801 2581 1829 1400 1361 1477 1441 1407 1382 1482 1372 1096 1445 1371 1983 1629 1530 1563 1312 1314
2446 2363 2588 1728 1765 1786 1875 1903 1837 1732 1790 2048 2335 2510 2706 2700 2552 2339 2410 2464 2781 2789 2523 2401 2130 1601 1388 1367 1384 1367 1378 1342 1344 1196 994 1153 1596 1837 1664 1537 1280 1306 1499
2552 2530 2625 2662 2309 1814 1825 1852 1797 1650 1692 1810 2090 2385 2590 2542 2363 2261 2364 2426 2421 2380 2209 2187 1789 1440 1391 1360 1246 1283 1324 1227 1442 1209 1147 1179 1499 1704 1551 1417 1324 1467 1468
2439 2599 2651 2652 2545 2709 2526 1808 1794 1654 1635 1688 1854 2066 2233 2327 2290 2178 2235 2283 2315 2179 2051 1944 1683 1434 1328 1304 1176 1128 1239 1198 1435 1436 1427 1163 1298 1426 1377 1363 1338 1370 1329
2216 2389 2301 2219 2343 2314 2704 2463 1868 1693 1583 1640 1785 1881 2157 2429 2695 2607 2332 2178 2270 2036 1960 1737 1578 1375 1249 1263 1212 1061 1049 1607 1723 1646 1559 1063 1359 1287 1378 1337 1282 1300 1266
2172 2226 2349 2325 2165 2234 2520 2336 2598 2724 2453 2366 2286 2395 2431 2404 2574 2174 2114 2256 2165 1961 1751 1518 1415 1206 1202 1784 1483 826 1513 1251 1732 1262 1062 958 1250 1252 1048 1025 1199 1197 1030
1293 2040 2106 2412 2527 2470 2052 2121 2166 2546 2635 2763 2744 2753 2646 2634 2728 2548 2598 2564 2596 1882 2090 1498 1678 1690 1445 1542 1678 1305 1223 1240 1264 988 841 503 569 1138 819 865 867 749 888
97 671 1731 2095 2376 2416 2316 2040 1998 2159 2350 2314 2752 2678 2956 2791 2685 2643 2398 2421 2519 2314 2086 2030 1740 1690 1694 1491 1444 1398 1177 1232 902 614 472 174 245 758 853 837 1087 1012 933
0 390 421 1599 2170 2255 2315 2039 2104 2026 2237 2303 2258 2339 2683 2482 2618 2488 2243 2399 2466 2158 2270 2050 1936 1781 1786 1524 1397 1235 1076 1141 801 565 272 68 75 335 663 837 1144 964 708
0 0 143 218 1373 2010 2090 2071 1999 1931 2061 2018 1859 2056 2190 2348 2553 2249 2322 2238 2175 2158 2218 2058 1920 1879 1766 1498 1325 1141 1111 918 814 529 216 156 37 129 429 1057 1257 992 772
0 0 0 80 234 1324 1949 2020 1978 1800 1892 1948 1789 1996 2044 2485 2377 2268 1862 1834 2090 2053 2091 1925 1851 1722 1451 1210 1207 1055 962 763 612 570 201 113 127 68 187 363 691 942 835
0 0 0 0 0 89 1017 1595 2086 2093 2042 1908 1862 1829 1944 2226 2206 2215 1766 1827 1627 1706 1418 1242 1225 1089 924 1198 1109 1134 887 771 511 499 41 9 77 148 60 58 224 354 520
0 0 0 0 0 0 1 959 1584 2242 2401 2204 1956 1886 2115 2214 2178 2157 1836 1647 1569 1713 1613 1449 1267 1223 978 1110 943 743 655 527 443 178 11 13 24 68 88 138 126 129 159
0 0 0 0 0 0 0 60 1119 1461 2335 2335 2169 1950 2040 2386 2164 2036 1879 1702 1429 2102 1425 1156 1158 906 1146 573 307 170 298 485 317 111 30 46 53 37 117 151 57 43 107
0 0 0 0 0 0 0 0 567 1306 1934 1952 2259 2235 2087 2109 2123 1880 1729 1546 1748 1751 1143 1018 730 809 664 579 319 123 155 208 126 75 42 49 26 36 104 551 427 292 157
0 0 0 0 0 0 0 0 18 1027 1303 1596 1988 2631 2154 2087 2169 1831 1490 1294 1538 1228 1070 1113 758 436 643 468 135 104 135 96 135 91 82 68 88 16 37 150 249 190 246
0 0 0 0 0 0 0 1 0 726 1507 1762 1929 2402 2342 2214 1961 1702 1311 1273 1332 1464 1182 1141 775 492 265 241 211 209 94 148 28 30 72 106 34 24 21 53 48 125 119
0 0 0 0 0 0 0 0 6 159 1481 1703 1817 2146 2144 1834 1620 1438 1070 1078 1067 1218 955 1081 810 701 498 246 230 414 358 64 125 26 12 125 179 49 38 39 50 28 42
0 0 0 0 0 0 0 0 14 156 1833 1742 1921 1988 1969 1672 1504 1348 929 855 267 792 866 1040 1074 1132 908 382 240 237 277 204 312 100 21 14 8 24 77 17 36 28 14
0 0 0 0 0 0 0 11 0 481 1061 1979 1912 1850 1854 1775 1405 1314 1176 1180 809 661 705 589 800 1036 862 619 340 231 348 203 243 92 94 29 20 28 30 22 34 28 8

GFSSE_con_mucape_105.txt.gz
CAPE
982 2026 1621 1792 1859 1974 2014 2157 2194 1892 1968 2032 1990 2056 2135 2174 2217 2242 2292 2373 2361 2608 2751 2476 2530 2285 2077 1993 1896 1828 1812 1768 1819 2014 1932 1753 1489 1635 1641 1876 1681 1234 1650
1622 2302 1489 1724 1871 2024 2077 2157 2207 2134 2123 2166 2129 2202 2238 2267 2224 2293 2403 2529 2590 2789 2826 2351 2322 2220 2138 2423 2206 2106 1838 1740 1865 1935 1966 1932 1632 1674 1624 1824 1381 1381 1731
1797 2783 1895 1633 1863 2065 2146 2274 2342 2368 2286 2292 2314 2297 2395 2424 2314 2344 2493 2538 2712 2881 2807 2489 2465 2335 2471 2639 2229 1910 1836 1796 1809 1851 1991 1442 1449 1781 1551 1543 1613 1690 1824
1854 2247 2224 1642 1790 2022 2051 2251 2428 2557 2497 2481 2404 2490 2544 2519 2422 2429 2515 2529 2869 2968 3027 2762 2483 2576 2891 2521 2012 1813 1786 1713 1689 1800 1525 1491 1310 1757 1731 1568 1569 1697 1734
1470 2079 2575 1658 1650 1925 1988 2180 2475 2633 2629 2541 2483 2602 2685 2651 2582 2597 2525 2585 2851 3151 3066 2611 2456 2914 2475 2142 1774 1702 1685 1574 1581 1539 1454 1016 1382 1683 1807 1722 1619 1689 1459
1803 2088 2195 1875 1594 1783 1906 2087 2375 2543 2535 2515 2504 2696 2805 2753 2709 2654 2496 2693 3029 3450 3259 2911 3011 2592 1971 1748 1686 1619 1520 1464 1388 1438 1485 1311 1421 1909 1805 1922 1804 1479 1399
2399 2143 2515 1784 1638 1733 1933 2033 2121 2272 2409 2498 2530 2598 2733 2754 2715 2577 2432 2770 3101 3235 3171 2739 2700 2005 1595 1576 1621 1536 1382 1411 1570 1249 1119 1211 1628 1943 1805 1605 1627 1468 1170
2860 2446 2951 1957 1675 1689 1802 1808 1858 1985 2225 2446 2553 2572 2732 2690 2599 2483 2437 2758 2710 2802 2568 2689 2446 1812 1533 1487 1497 1424 1356 1330 1383 1466 1036 990 1705 1840 1822 1739 1416 1393 1433
2799 2990 2865 2979 2082 1647 1682 1655 1641 1673 1906 2180 2458 2573 2689 2647 2516 2357 2444 2580 2715 2596 2440 2428 2205 1821 1486 1390 1384 1337 1342 1327 1426 1163 971 1273 1692 1915 1844 1667 1479 1313 1443
2523 2913 3113 3053 2692 2577 2334 1661 1599 1522 1579 1799 2109 2401 2591 2612 2443 2234 2297 2427 2539 2441 2356 2327 2167 1573 1380 1262 1235 1245 1260 1231 1520 1395 877 841 1575 1765 1687 1636 1506 1348 1216
2293 2618 3194 2980 2966 2904 2804 2240 1688 1528 1485 1558 1742 1977 2408 2819 2913 2733 2377 2250 2331 2323 2190 2070 1910 1655 1305 1237 1171 1106 1126 1457 1215 1297 1107 1055 1190 1748 1647 1696 1478 1042 1287
1811 2395 2726 2937 2711 2859 2725 2960 2505 2278 2056 2009 1896 2134 2340 2311 2593 2433 2385 2196 2199 2198 2061 1928 1798 1664 1513 1733 1619 1106 1408 1285 1724 1391 1294 836 939 1613 1709 1214 905 1141 872
22 2272 2428 2851 2740 2591 2594 2670 2790 2918 2674 2684 2613 2662 2477 2573 2805 2420 2495 2527 2763 2095 2413 2065 2089 2049 1782 1552 1888 1658 1401 1613 1498 1431 940 670 836 1653 1305 890 1081 1257 820
0 0 1843 2288 2766 3085 2979 2724 2813 2831 2886 2739 2703 3310 3245 2935 2971 2820 2166 2637 2856 2557 2415 2523 2345 2170 1968 1902 1830 1784 1790 1562 1327 1202 614 245 221 991 1138 765 589 904 732
0 0 0 632 1871 2580 2797 2787 2718 2661 2629 2695 2732 2928 2669 2540 2927 2407 2379 2201 2545 2062 2613 2401 2123 2147 2117 1856 1855 1651 1585 1599 1456 743 831 194 113 161 843 735 780 707 763
0 0 0 15 354 1237 2128 2623 2575 2556 2476 2505 2437 2646 2707 2807 2871 2347 2351 2205 1965 2256 2840 2380 2332 2205 2215 2079 1954 1690 1657 1586 1327 1033 733 331 37 32 435 813 860 700 976
0 0 0 0 1 200 966 1790 2281 2304 2214 1987 2106 2523 2436 2591 3029 3008 2437 2531 2052 2223 2718 2600 2657 2404 2137 1803 1782 1873 1486 1631 1320 1041 1026 549 94 31 158 237 343 189 1084
0 0 0 0 0 0 15 207 1415 1590 2374 2107 2102 2435 2347 2410 2955 3130 2459 2259 2285 2189 2436 2466 2397 2392 2035 1965 1599 1454 1653 1457 1199 1035 965 720 180 208 151 175 159 86 731
0 0 0 0 0 0 0 0 213 1729 2096 2348 2402 2531 2644 2464 2432 2934 2619 2237 2411 2140 2266 2068 2126 2075 2015 1752 1523 1395 1411 1247 1196 830 619 442 152 152 315 139 61 46 48
0 0 0 0 0 0 0 0 0 113 1779 2181 2167 2759 2924 2867 2838 2932 2324 2359 2242 1806 2132 1653 1517 1611 1557 1623 1262 930 1035 1077 923 583 460 215 90 135 188 173 40 82 77
0 0 0 0 0 0 0 0 0 0 507 1539 1905 2363 2997 2824 2983 2687 2383 2443 2197 1651 2033 1542 1632 1760 1283 1337 1059 591 736 723 834 536 297 145 17 3 118 106 28 56 110
0 0 0 0 0 0 0 0 0 3 18 663 1683 2160 2644 2607 2678 2183 2308 2283 2157 1791 2059 1542 1828 1270 1217 975 892 741 339 141 175 389 206 53 30 8 38 86 93 95 107
0 0 0 0 0 0 0 1 0 0 17 218 1840 1971 2256 2785 2723 2176 2345 2381 2012 1849 1734 1505 1415 1046 932 810 816 495 388 144 51 127 229 139 51 10 9 29 31 145 222
0 0 0 0 0 0 0 0 0 6 0 14 1043 1675 2158 2448 2248 2326 2493 2120 1780 1810 1652 1509 1380 1224 1240 691 709 714 763 443 218 12 17 166 106 51 21 35 46 51 70
0 0 0 0 0 0 0 0 0 0 12 125 535 1823 2330 2565 2300 2347 2437 1943 1610 1694 1491 1311 1237 1359 1450 985 641 441 919 658 394 250 7 16 59 95 64 48 26 21 48
0 0 0 0 0 0 0 0 0 0 0 34 617 1616 2261 2636 2138 2064 1929 1732 1588 1802 1397 1280 1427 1672 1675 1362 1139 879 773 443 246 337 322 100 34 66 60 40 45 21 24

GFSSE_con_mucape_108.txt.gz
CAPE
1881 1492 1619 1842 2062 2185 2166 1988 1783 1865 1998 2043 1983 2007 2017 2151 2193 2156 2193 2268 2400 2615 2759 2674 2567 2453 2241 1971 1747 1778 1759 1724 1844 1910 1797 1794 1678 1689 1779 1774 1618 1211 1725
2317 1610 1534 1722 1979 2189 2302 2175 1874 1903 2128 2182 2147 2228 2236 2332 2318 2338 2404 2399 2582 2751 2694 2590 2596 2453 2252 2258 1904 1726 1622 1634 1689 1799 1860 1844 1926 1734 1660 1505 1464 1471 1660
2651 1986 1682 1622 1900 2128 2327 2370 2293 2127 2287 2308 2297 2335 2379 2401 2390 2445 2497 2517 2704 2918 2849 2423 2404 2369 2541 2439 2045 1797 1649 1642 1689 1714 1856 1175 1368 1950 1535 1474 1479 1707 1723
2066 2671 1904 1592 1807 2021 2140 2298 2392 2468 2438 2434 2424 2477 2510 2456 2417 2489 2532 2498 2786 3012 2979 2448 2433 2717 2698 2518 2031 1740 1645 1641 1607 1606 1379 1140 1028 2054 1721 1911 1791 1768 1799
1071 2999 2350 1570 1718 1934 2016 2230 2349 2501 2414 2434 2438 2623 2657 2558 2508 2557 2514 2574 2848 3018 3016 3043 2758 2767 2629 2266 1845 1586 1583 1477 1426 1443 986 774 927 1767 1768 1952 1741 1773 1545
2092 2186 2601 1905 1636 1877 1966 2208 2344 2402 2351 2300 2370 2633 2738 2662 2602 2577 2442 2662 2980 3233 3122 3085 2802 2716 2271 2021 1677 1547 1450 1291 1220 1208 846 702 513 1858 1865 1821 1597 1417 1418
2952 2609 2421 2122 1676 1806 1998 2167 2336 2385 2349 2244 2322 2511 2667 2692 2637 2519 2354 2582 2862 3191 3097 2938 2836 2376 2092 1615 1696 1501 1351 1170 1178 1128 863 692 746 1754 1933 2010 1663 1372 1326
2946 3257 2168 1985 1757 1677 1805 1891 2111 2270 2281 2253 2313 2440 2634 2595 2512 2426 2297 2456 2679 2911 2683 2480 2473 1981 1565 1518 1587 1478 1313 1123 1048 1043 860 560 995 1807 1802 1925 1513 1372 1408
2940 3702 3089 2394 1892 1570 1600 1659 1826 2042 2261 2330 2355 2407 2542 2452 2385 2307 2232 2427 2641 2619 2456 2346 2305 1979 1457 1390 1448 1427 1313 1193 982 1088 851 551 1116 1769 1680 1760 1596 1355 1361
3223 2997 3667 3164 2405 2081 1774 1494 1559 1701 1924 2217 2368 2411 2427 2368 2305 2246 2092 2271 2469 2486 2334 2332 2253 1988 1599 1280 1305 1325 1271 1195 1043 1003 1032 702 818 2279 1948 1828 1668 1570 1343
2730 2989 2973 3110 2686 2640 2361 1781 1403 1432 1505 1752 2045 2293 2440 2557 2371 2283 2149 2039 2307 2360 2258 2105 2087 1923 1555 1274 1195 1204 1195 1191 1180 951 935 903 1003 1799 1942 1708 1453 1153 1272
310 3246 2980 2707 2675 2750 2681 2347 1902 1777 1659 1705 1813 1997 2418 2539 2732 2535 2255 2010 2091 2197 2128 2014 1907 1839 1585 1428 1208 1152 1083 1278 1082 1047 1052 787 1381 1681 2211 1393 1130 1030 850
0 2498 2999 2841 2434 2670 2357 2717 2359 2102 1896 1932 1948 2095 2147 2213 2448 2244 2321 2030 2156 2013 2056 1903 1731 1627 1696 1748 1653 1374 1281 1333 1132 991 909 734 999 1670 1943 1633 1333 1028 652
0 0 2847 2836 2764 2481 2389 2422 2913 2901 2376 2319 2219 2401 2449 2243 2322 2528 2145 2348 2371 2276 2136 1931 1870 1920 1837 1743 1598 1682 1531 1312 1316 963 1050 592 716 1366 1497 1437 1303 1042 532
0 0 0 600 2079 2741 2200 2402 2501 2449 2603 2600 2740 2645 2427 2475 2490 2418 2254 2175 2348 2265 2182 1978 1948 1951 1855 1677 1653 1541 1527 1358 1260 953 731 465 297 184 1177 1034 1139 868 691
0 0 0 0 355 1224 2336 2216 2283 2403 2338 2709 2569 2587 2811 2792 2272 2269 2287 1800 2283 2010 2009 2000 1969 1886 1850 1658 1606 1524 1440 1386 1279 848 571 514 267 91 256 1208 902 764 657
0 0 0 0 0 239 906 928 1979 2134 2221 2185 2379 2550 2331 2457 2645 2525 2367 2076 1784 2058 1633 2022 2049 2027 1838 1769 1627 1553 1396 1394 1318 1030 757 422 308 89 0 348 715 311 231
0 0 0 0 0 0 0 568 941 1307 2158 2202 2019 2258 2460 2264 2144 2329 2338 1936 2187 1923 2032 2206 2013 2023 1904 1811 1609 1615 1461 1393 1336 923 757 526 292 216 94 4 99 343 345
0 0 0 0 0 0 0 0 0 639 841 1830 2097 1956 2309 2092 1966 2205 2279 2140 2001 1827 1879 2094 1948 1911 1928 1660 1591 1343 1300 1283 1153 937 705 510 283 192 148 174 58 150 110
0 0 0 0 0 0 0 0 0 0 3 410 1346 2136 2103 2169 2060 2128 2254 2163 2079 1899 1824 2177 1923 1909 1792 1706 1465 1447 1219 1115 920 705 652 513 254 98 67 185 59 18 5
0 0 0 0 0 0 0 0 0 0 0 0 325 1221 2012 2115 2123 2007 2105 2071 1914 1850 1772 2003 1723 1627 1426 1311 1229 1150 963 807 727 628 404 248 126 54 19 101 25 21 0
0 0 0 0 0 0 0 0 0 0 0 0 0 207 1166 1593 1781 2036 2113 2032 1792 1555 1507 1778 1402 1276 1179 1126 939 860 727 361 355 575 443 109 168 18 2 0 2 42 46
0 0 0 0 0 0 0 0 0 0 0 0 0 0 451 1369 1712 1845 2089 2033 1659 1103 512 1514 1351 1156 1055 1029 1474 544 238 80 55 138 337 157 8 3 5 1 0 62 64
0 0 0 0 0 0 0 0 0 0 0 0 0 0 4 1453 1478 1822 1908 1847 1507 1129 1127 855 1267 1238 855 833 896 1001 572 385 140 62 146 209 16 6 4 1 10 8 55
0 0 0 0 0 0 0 0 0 0 0 0 0 0 0 44 1349 1654 1700 1740 1778 1295 856 1265 1149 1058 880 638 926 941 634 713 628 283 57 21 55 2 1 0 0 1 21
0 0 0 0 0 0 0 0 0 0 0 0 0 0 0 4 508 1282 1584 1926 1741 1489 1337 1130 411 914 1037 883 881 853 599 633 721 415 242 90 4 6 7 0 2 2 24

GFSSE_con_mucape_111.txt.gz
CAPE
1439 1557 1785 1982 2011 1918 1798 1725 1698 1731 1896 1947 1899 1936 2075 2050 1962 2004 2124 2356 2529 2693 2671 2336 2551 2394 2105 1857 1619 1546 1648 1589 1701 1848 1746 1960 1727 1794 1879 1906 1637 1562 1713
1827 1594 1701 1911 2050 2100 1909 1712 1730 1858 2064 2087 2027 2075 2146 2069 2053 2106 2136 2334 2568 2826 2538 2304 2183 2065 2057 2098 1444 1321 1486 1516 1629 1732 1836 1777 1925 1861 1754 1860 1582 1743 1839
1986 1685 1626 1782 2028 2201 2180 1896 1866 2080 2225 2203 2200 2201 2243 2198 2208 2196 2121 2300 2631 2810 2514 2348 2228 2156 2303 2180 1639 1326 1339 1541 1596 1665 1822 1430 1744 2078 1616 1842 1842 1857 1913
2160 1813 1593 1650 1890 2073 2163 2120 1956 2268 2361 2289 2313 2320 2332 2273 2297 2298 2184 2216 2637 2990 2851 2334 2234 2404 2408 2126 1747 1465 1427 1512 1526 1570 1440 1175 1347 1807 1686 1825 1667 1850 1846
2470 2353 1896 1581 1757 1905 2022 2150 2135 2176 2223 2227 2294 2452 2417 2356 2430 2434 2218 2293 2668 3202 3091 2414 2610 2721 2270 2080 1780 1461 1437 1446 1465 1420 950 965 1146 1773 1771 1913 1907 1813 1793
2238 2692 2335 1934 1691 1788 1906 2053 2172 2192 2093 2091 2213 2448 2495 2446 2483 2435 2183 2392 2775 3019 3080 3326 2814 2343 2180 2065 1720 1385 1380 1358 1305 1197 689 707 416 1373 1575 1523 1654 1657 1582
2437 2621 2609 2232 1695 1748 1912 2046 2121 2188 2115 2080 2197 2344 2427 2439 2410 2264 2132 2350 2582 2905 2995 2829 2452 2363 2064 1700 1635 1373 1342 1286 1222 920 608 490 57 0 874 1573 1678 1520 1680
2642 2503 2394 2103 1775 1666 1760 1936 2122 2188 2149 2058 2137 2287 2411 2345 2233 2116 2044 2208 2392 2694 2677 2411 2384 2171 1873 1597 1429 1454 1279 1242 1210 862 531 435 131 250 886 1646 1614 1556 1651
2775 2813 2430 2213 1972 1652 1631 1716 2010 2167 2186 2081 2077 2212 2373 2292 2175 2072 2026 2122 2295 2415 2435 2311 2277 2023 1462 1242 1316 1388 1333 1223 1144 834 718 415 505 692 1513 1934 1641 1463 1205
2682 2821 2705 2660 2552 2205 1502 1547 1767 1996 2140 2144 2112 2179 2325 2275 2153 2097 1982 2028 2237 2290 2365 2238 2073 1961 1571 1118 1126 1243 1267 1233 1149 1021 738 696 796 1096 1799 1497 1622 1194 1149
2491 2716 2911 2907 2290 2166 1648 1400 1521 1707 1951 2160 2235 2239 2346 2271 2193 2122 1992 1907 2098 2167 2243 2174 2028 1934 1668 1275 1019 1086 1127 1114 1084 1071 786 708 889 411 1871 1545 1620 1539 1412
1847 2226 2193 2833 2512 2021 1984 1516 1291 1371 1534 1781 2062 2201 2260 2249 2202 2156 2022 1847 1882 2038 2190 2062 1932 1797 1582 1280 989 971 977 987 1091 1030 845 709 1060 1513 2301 1800 1517 1406 1309
1200 2365 2191 2515 2581 2431 2398 2149 1608 1250 1242 1323 1569 1832 2158 2298 2464 2225 2151 1864 1833 1892 2035 1986 1861 1715 1557 1324 1117 949 881 895 996 1003 951 802 1070 1495 1498 1518 1530 1431 1330
0 1708 2520 2368 2166 2176 1894 2476 2407 1946 1338 1329 1373 1658 1644 2103 2228 2570 2314 2183 1799 1869 1788 1824 1774 1666 1469 1400 1295 1326 1217 1031 1039 1065 945 813 702 1428 1450 1793 1797 1276 949
0 17 740 1472 1551 1696 1802 1980 2564 2355 2218 1835 1503 1554 1802 1618 1903 1912 2306 2261 2111 1914 1876 1739 1662 1558 1411 1489 1485 1264 1308 1258 1213 1102 1115 795 635 1027 1590 1384 1278 1393 987
0 0 0 0 44 794 1417 1651 1700 1964 2093 2256 2144 1926 1881 2030 1780 1968 2123 2109 2238 2101 1945 1795 1737 1631 1600 1530 1434 1454 1308 1168 1127 1120 951 678 458 379 443 1154 1566 1305 1009
0 0 0 0 0 272 313 1198 1228 1397 1493 1479 1747 2032 2069 2111 2363 1985 2175 2096 2046 2134 2002 1870 1643 1679 1801 1696 1571 1394 1229 1133 1065 1057 823 614 376 373 112 396 1176 1245 1054
0 0 0 0 0 0 294 917 859 841 913 1164 1286 1540 1619 2027 2167 2445 2037 2014 1878 1947 1980 1890 1651 1602 1619 1596 1529 1389 1257 1137 1114 1042 851 659 381 259 92 36 631 723 672
0 0 0 0 0 0 0 0 484 792 814 994 1048 1379 1571 1727 1890 1922 2151 2249 2020 1845 1826 1724 1526 1535 1652 1518 1461 1326 1298 1224 1167 1085 877 614 451 336 226 58 3 263 180
0 0 0 0 0 0 0 0 0 0 5 699 901 1062 1345 1682 1967 1750 1569 1866 2068 1962 1693 1734 1575 1550 1487 1583 1434 1286 1117 1104 1115 1025 821 631 464 295 110 10 0 0 112
0 0 0 0 0 0 0 0 0 0 0 0 0 33 815 1066 1488 1875 1862 1642 1573 1649 1774 1552 1672 1773 1654 1627 1449 1324 1128 955 1004 857 728 675 536 233 140 0 0 0 48
0 0 0 0 0 0 0 0 0 0 0 0 0 0 0 11 441 1273 1711 1712 1770 1539 1631 1569 1227 1416 1545 1652 1363 1184 987 1021 868 794 689 633 470 254 37 0 0 0 1
0 0 0 0 0 0 0 0 0 0 0 0 0 0 0 0 180 528 1125 1560 1764 1669 1332 1221 1229 818 789 1217 1104 759 644 503 367 435 582 454 657 145 14 0 0 1 6
0 0 0 0 0 0 0 0 0 0 0 0 0 0 0 0 0 324 573 919 1404 1596 1291 1020 908 258 25 241 511 681 381 116 93 58 220 562 408 385 43 0 0 0 8
0 0 0 0 0 0 0 0 0 0 0 0 0 0 0 0 0 0 47 540 766 1206 1094 1199 842 410 233 422 14 465 615 344 307 134 55 189 339 232 79 0 0 2 2
0 0 0 0 0 0 0 0 0 0 0 0 0 0 0 0 0 0 0 12 636 701 840 911 1017 614 497 462 473 576 511 462 520 450 295 280 159 151 173 65 0 3 0

GFSSE_con_mucape_114.txt.gz
CAPE
1413 1637 1810 1830 1872 1832 1746 1644 1581 1672 1727 1806 1947 1978 1960 2088 2137 2129 2175 2288 2563 2849 2923 2687 2714 2339 2155 1770 1656 1650 1417 1494 1562 1680 1837 2035 1836 1858 1918 1926 1687 1609 1980
1412 1648 1829 1841 1904 1968 1890 1736 1679 1837 1952 1916 1986 1981 1938 1976 2085 2215 2267 2358 2576 2798 2577 2489 2394 2276 2273 2035 1494 1547 1494 1493 1513 1532 1670 1904 1938 1835 1828 1890 1672 1821 2161
1615 1616 1825 1908 1951 2007 1970 1883 1913 2077 2131 2061 2066 2009 1978 1992 2069 2129 2239 2434 2713 2812 2428 2264 2219 2240 2375 2120 1372 1317 1503 1494 1477 1611 1529 1320 1666 2165 1838 1903 1886 1952 2051
1767 1580 1712 1912 2020 1989 1822 1789 1973 2258 2245 2185 2183 2162 2061 2077 2089 2060 2098 2253 2647 2834 2505 2292 2177 2288 2546 2013 1509 1238 1340 1430 1387 1506 1133 1285 1507 2099 1895 1778 1971 2011 2052
2054 1897 1684 1828 1997 2042 1924 1779 1890 2175 2141 2136 2173 2304 2222 2229 2273 2102 1932 2186 2745 2950 2622 2202 2315 2760 2218 1906 1534 1250 1253 1303 1328 1353 930 1070 1348 1776 2009 1981 1996 2028 1629
2357 2310 2055 1833 1806 1965 2036 1985 1866 1991 1964 1990 2106 2321 2348 2386 2441 2250 1944 2234 2706 3122 3100 2744 2789 2534 2083 1873 1644 1276 1198 1188 1255 956 736 857 1255 2122 1852 1886 1723 1743 1606
2419 2424 2423 2174 1988 1800 1970 2048 2044 1903 1863 1916 2082 2222 2283 2379 2409 2152 1941 2188 2592 2943 2990 3173 2639 2181 2093 2003 1661 1319 1155 1109 1092 749 542 594 282 1482 1654 1918 1838 1735 1555
2302 2384 2532 2288 1952 1695 1807 1883 2016 2050 1921 1903 2027 2173 2264 2211 2135 2011 1926 2038 2180 2422 2452 2503 2236 2183 2095 1789 1622 1375 1127 1094 1065 733 664 463 89 650 1499 2059 1792 1525 1614
2245 2286 2344 2135 1883 1667 1653 1783 1943 2057 2049 1985 1991 2115 2212 2069 1927 1870 1877 1934 2013 2178 2379 2334 2131 2098 1964 1760 1446 1429 1249 1069 977 772 605 506 119 486 1146 2132 1817 1559 1758
2412 2238 2179 2093 2017 1982 1616 1664 1897 2057 2116 2063 1980 2060 2147 2053 1904 1821 1749 1833 1956 2032 2352 2260 2055 2092 1746 1314 1227 1277 1247 1113 967 747 671 567 585 958 1339 2237 1919 1611 1719
2545 2434 2301 2252 2419 2324 2212 1730 1729 1990 2095 2107 2007 1992 2080 2046 1974 1886 1726 1688 1832 1931 2078 2129 2112 1946 1774 1430 1097 1113 1148 1101 1022 882 699 637 834 1143 1778 1791 1837 1510 1480
2449 2726 2606 2628 2593 2135 1923 1861 1542 1734 1975 2095 2071 1991 2040 2123 2031 1963 1867 1732 1713 1769 1841 1954 2077 1850 1769 1541 1275 1038 1036 998 927 882 779 635 1096 1655 1082 1887 1729 1476 1267
9 2226 2822 2606 2544 1978 1800 1583 1319 1416 1595 1805 1991 2328 2339 2542 2065 2072 1961 1835 1638 1662 1663 1793 1987 1831 1691 1542 1317 1056 964 921 877 884 793 737 1116 1476 1205 2261 1848 1545 986
90 1849 2118 2473 2506 2236 2265 2022 1574 1150 1252 1332 1552 1781 2099 2111 1997 2036 1965 1869 1708 1480 1493 1632 1831 1770 1643 1527 1332 1165 1013 877 854 843 830 708 712 1615 2056 1878 1821 1689 1255
152 1264 2173 2169 2109 2245 2255 2392 2458 2328 1583 1417 1126 1335 1546 1682 1756 1992 2058 1910 1748 1527 1493 1429 1570 1650 1603 1501 1412 1315 1203 1188 1102 942 914 829 756 1020 1500 1755 1834 1756 1621
5 458 863 1079 424 895 1642 1566 1796 1793 1805 1934 2036 1505 1387 1371 1443 1577 2059 2219 2031 1788 1536 1515 1429 1451 1462 1452 1318 1330 1294 1252 1217 1121 1035 1055 799 626 988 1393 1752 1682 1832
0 0 0 0 0 1 650 1105 1245 1255 1453 1767 1739 1781 1665 1561 1527 1392 1385 1863 2211 2091 1988 1742 1603 1518 1420 1390 1254 1192 1334 1215 1236 1138 1109 1074 961 595 527 664 1199 1497 1689
0 0 0 0 0 0 0 220 410 1018 829 894 1170 1244 1418 1665 1668 1542 1569 1405 1640 2172 2070 2019 1898 1687 1526 1464 1332 1387 1286 1348 1276 1100 986 918 834 666 464 350 271 934 1301
0 0 0 0 0 0 0 0 0 459 791 709 760 814 755 794 1091 1407 1342 1203 1466 1595 1955 1999 1853 1831 1413 1381 1410 1518 1510 1344 1114 1026 957 885 771 646 468 332 220 601 893
0 0 0 0 0 0 0 0 0 0 13 553 577 725 817 818 777 1105 1206 1195 1193 1082 1199 1510 1773 1754 1548 1265 1214 1406 1523 1294 1162 1070 1003 945 771 610 445 401 302 179 573
0 0 0 0 0 0 0 0 0 0 0 0 0 2 587 749 964 843 852 1133 1332 1083 1094 1075 1071 1323 1443 1337 1323 1443 1416 1287 1072 999 1053 967 744 588 491 333 237 120 5
0 0 0 0 0 0 0 0 0 0 0 0 0 0 0 0 306 752 733 515 874 1253 1317 1028 946 812 894 927 932 969 888 974 913 898 924 862 721 577 453 233 168 45 3
0 0 0 0 0 0 0 0 0 0 0 0 0 0 0 0 0 0 43 450 245 573 1169 1307 1006 805 601 603 790 690 269 393 625 734 779 669 609 576 390 217 97 18 0
9 6 5 0 0 0 0 0 0 0 0 0 0 0 0 0 0 0 0 0 29 119 297 979 1106 924 819 525 263 121 0 79 205 155 626 667 579 476 325 178 40 14 3
0 0 0 0 0 0 0 0 0 0 0 0 0 0 0 0 0 0 0 0 0 13 122 697 1049 1009 803 561 383 223 36 15 118 56 58 99 510 392 244 130 50 28 0
2 0 0 0 0 0 0 0 0 0 0 0 0 0 0 0 0 0 0 0 0 0 0 253 817 753 596 479 462 431 170 200 49 25 74 40 291 451 217 120 76 27 4

GFSSE_con_mucape_117.txt.gz
CAPE
1236 1591 1624 1802 1876 1819 1693 1566 1510 1604 1922 2052 2079 2239 2350 2381 2310 2254 2345 2490 2527 2631 2847 2473 2473 2195 1861 1321 1389 1483 1517 1459 1446 1640 1985 2170 1897 1920 1776 1883 1732 1275 1614
1229 1713 1679 1792 1924 1961 1826 1666 1680 1760 2008 2156 2096 2161 2243 2227 2231 2286 2448 2595 2766 2945 2585 2445 2309 2157 1976 1431 1514 1400 1405 1319 1338 1474 1923 2106 2091 1892 1674 1801 1724 1595 1603
1385 1759 1787 1792 1966 2037 1981 1859 1951 2029 2090 2205 2106 2040 2181 2249 2214 2228 2358 2584 2866 3052 2718 2380 2291 2233 2194 1608 1316 1414 1430 1372 1386 1453 1755 1532 1650 1772 1770 1823 1972 2142 1828
1504 1702 1858 1827 1957 1982 1909 1899 2028 2245 2194 2199 2135 2054 2116 2249 2321 2292 2288 2447 2736 2931 2710 2499 2417 2383 2392 1591 1191 1289 1390 1398 1387 1351 1136 1432 1593 1876 1859 1782 1887 1938 2040
1538 1638 1768 1884 1918 1900 1829 1848 1974 2166 2120 2107 2115 2167 2152 2215 2342 2377 2272 2468 2855 2989 2596 2227 2264 2684 2019 1544 1167 1101 1273 1304 1289 1124 964 1259 1440 1499 1702 1869 2002 2236 1982
1761 1647 1736 1920 1878 1845 1775 1771 1918 1950 1876 1904 2045 2194 2252 2297 2301 2250 2103 2513 2902 2946 2755 2616 2782 2308 1793 1501 1179 1091 1072 1157 1186 1161 766 1035 1189 1571 1768 1742 1791 2000 1777
2094 1981 1847 1857 1936 1953 1964 1838 1825 1859 1766 1814 1991 2129 2201 2336 2314 1983 1896 2318 2784 2905 2878 2731 2553 2097 1776 1512 1321 1059 969 1016 1024 814 704 813 1115 1863 1919 1778 1807 1795 1725
2273 2189 2095 2044 1981 1919 2005 1940 1752 1793 1762 1775 1887 2030 2163 2177 2149 1983 1866 2020 2386 2755 2737 2589 2390 2094 1863 1733 1454 1113 932 938 943 670 478 589 428 1300 2097 1836 1506 1649 1733
2143 2225 2293 2284 1996 1812 1824 1910 1963 1855 1763 1751 1816 1944 2039 1942 1903 1898 1892 1924 2038 2449 2316 2588 2213 1918 1807 1631 1445 1185 942 946 903 625 595 441 400 601 1820 1916 1661 1830 1751
2082 2132 2234 2262 2006 1826 1667 1723 1831 1972 1917 1810 1790 1913 1995 1889 1754 1755 1759 1811 1901 2049 2155 2305 2116 1906 1873 1681 1360 1200 1100 939 865 626 535 401 330 356 922 2087 1923 1884 1904
2216 2059 2109 2169 2044 1925 1913 1866 1740 1872 1968 1965 1902 1914 1993 1902 1751 1640 1607 1606 1767 1784 2031 2281 2158 1999 1781 1400 1104 1027 1050 976 874 694 607 535 712 971 1215 1887 2121 1899 1893
2322 2315 2215 2131 2077 2194 2233 2147 2051 1741 1951 2023 2017 1940 1923 1996 1769 1708 1626 1564 1619 1718 1787 2223 2227 2060 1876 1442 1118 938 946 945 918 836 684 590 788 1272 1380 1927 1987 1877 1828
1962 2380 2383 2335 2387 2500 2253 1929 1854 1815 1798 2030 2657 2378 1927 2544 2563 1844 1700 1671 1590 1595 1630 1827 2049 2116 1872 1596 1323 1047 864 829 833 826 768 698 667 1456 1636 1978 1948 2075 1760
1008 1005 2541 2653 2736 2558 2199 1911 1700 1434 1483 1645 2172 2649 2870 2615 2668 2742 2245 1859 1640 1540 1544 1562 1672 1900 1938 1646 1455 1207 929 773 754 781 750 691 668 1313 1785 1824 1972 1736 1791
5 1579 2192 2451 2453 2398 2229 2241 2201 2352 1348 1230 1372 1598 2073 2534 2703 2623 2466 2252 1735 1639 1549 1425 1446 1517 1868 1711 1481 1250 1033 885 729 706 719 700 666 888 1730 1774 2111 1780 1659
262 1704 2152 2204 1733 2003 2126 1980 1756 1850 1895 1973 1495 1494 1274 1535 1536 1542 1678 1929 1681 1587 1581 1489 1300 1272 1409 1623 1488 1320 1132 1013 839 800 787 728 717 648 878 1683 2085 1932 2018
37 628 1748 1568 1066 938 1095 1784 1460 1332 1308 1330 1491 1466 1342 1252 1262 1266 1344 1548 1640 1622 1575 1524 1475 1368 1261 1352 1422 1301 1160 1073 1029 1022 923 789 703 646 645 710 1093 1485 1576
0 226 746 676 313 4 138 958 1141 866 829 751 618 953 1187 1308 1492 1418 1305 1265 1282 1513 1311 1375 1454 1576 1477 1408 1327 1261 1213 986 1024 997 1025 892 805 791 637 453 636 866 1126
0 0 6 0 0 0 0 0 0 0 198 497 485 442 369 433 490 697 1291 1351 1281 1107 1003 1138 1257 1742 1401 1498 1572 1405 1262 1086 992 1090 1081 1014 898 823 719 465 339 251 443
0 0 0 0 0 0 0 0 0 0 0 0 86 404 404 388 356 299 300 487 829 862 700 534 869 1086 845 914 1189 1362 1193 1142 1286 1170 1209 1155 910 832 693 564 395 256 161
0 0 0 0 0 0 0 0 0 0 0 0 0 0 0 63 290 289 313 361 389 387 673 811 745 469 531 535 982 885 807 786 922 1036 1128 1011 951 884 782 651 475 308 252
0 0 0 0 0 0 0 0 0 0 0 0 0 0 0 0 0 0 0 260 487 403 404 625 903 994 769 686 537 485 417 339 536 608 714 744 786 927 872 693 429 268 247
3 0 0 0 0 0 0 0 0 0 0 0 0 0 0 0 0 0 0 0 0 134 269 179 738 1094 891 780 787 544 255 204 127 7 369 174 528 594 802 727 612 233 177
40 5 5 0 0 0 0 0 0 0 0 0 0 0 0 0 0 0 0 0 0 0 0 0 47 364 809 737 626 595 422 222 79 108 3 178 284 542 713 686 566 317 104
10 5 13 18 1 0 0 0 0 0 0 0 0 0 0 0 0 0 0 0 0 0 0 0 0 1 418 567 588 445 447 364 193 125 39 36 36 290 585 623 418 177 98
55 0 0 0 0 0 0 0 0 0 0 0 0 0 0 0 0 0 0 0 0 0 0 0 0 12 141 256 520 544 225 214 219 137 59 0 0 49 347 594 497 331 145

GFSSE_con_mucape_120.txt.gz
CAPE
1006 1173 1558 1817 1823 1724 1501 1423 1586 1701 2068 2320 2300 2259 2152 1961 1987 2070 2125 2362 2565 2677 2637 2400 2218 1851 1237 1236 1553 1608 1516 1350 1375 1873 2224 2224 1989 1849 1782 1712 1621 1418 1793
1286 1584 1588 1856 1932 1904 1695 1553 1654 1904 2132 2383 2469 2470 2321 2154 2138 2196 2318 2362 2653 2852 2753 2344 2361 2012 1473 1270 1330 1319 1332 1204 1255 1620 2227 2188 2124 1916 1725 1845 1541 1564 1740
1503 1696 1621 1848 1988 2032 1920 1841 1851 2135 2253 2310 2445 2483 2495 2466 2414 2358 2399 2429 2624 2939 2908 2267 2271 2214 1608 1394 1202 1271 1275 1258 1218 1585 2034 1706 1731 1936 1719 1922 1842 1808 1886
1515 1730 1696 1876 2017 2046 1917 1913 1987 2201 2345 2303 2338 2428 2459 2494 2479 2450 2431 2525 2799 2928 2868 2371 2199 2326 1920 1206 1106 1227 1271 1271 1242 1438 1406 1552 1590 2045 1766 1797 1906 1769 1924
1467 1698 1747 1862 1991 1985 1887 1907 1991 2125 2136 2165 2221 2405 2474 2499 2489 2467 2381 2565 2944 3098 2946 2395 2488 2652 1804 1131 946 1084 1275 1205 1235 916 1184 1411 1527 1834 1812 1931 2073 2049 1794
1468 1656 1815 1873 1979 1946 1908 1900 1978 1930 1824 1906 1997 2294 2462 2555 2539 2399 2265 2576 2972 3055 2994 2814 2715 2334 1602 1187 936 937 1128 1121 1187 771 1027 1247 1412 1643 1821 2091 1991 1875 1733
1557 1544 1715 1968 1959 1911 1956 1963 1939 1853 1735 1769 1930 2084 2258 2437 2484 2258 2201 2513 2763 2830 2722 2571 2542 1847 1499 1221 1005 904 907 1009 1004 1024 744 946 1165 1686 1719 1877 1641 1889 1799
2006 1741 1650 1946 1980 1923 1841 1777 1826 1840 1736 1720 1834 1958 2187 2212 2169 2059 2099 2405 2551 2529 2406 2331 2155 1719 1498 1225 1077 882 821 882 868 717 601 698 964 1522 1729 1367 1417 1546 1799
2169 2033 1953 1825 1997 2061 2054 1845 1719 1813 1757 1708 1741 1876 1989 1989 1923 1798 1903 2123 2344 2361 2377 2168 2021 1869 1628 1438 1242 979 797 786 793 616 450 359 679 507 1703 1850 1468 1425 1730
2025 2078 2042 1942 2017 1925 1921 2049 1954 1812 1785 1742 1729 1798 1890 1864 1834 1799 1711 1826 2008 2289 2328 2347 2167 1908 1667 1520 1334 1059 854 769 757 592 444 435 301 435 1573 2044 1780 1579 1378
1977 1973 2020 2054 2068 1945 1802 1690 1876 1966 1942 1831 1754 1766 1881 1856 1734 1722 1708 1692 1809 2072 2132 2189 2158 1841 1624 1515 1280 1107 1003 867 761 579 428 401 431 658 1127 2044 1969 1729 1548
1425 1983 1981 2056 2147 1988 1904 1913 1892 1791 1862 1932 1837 1805 1868 1941 1722 1671 1628 1615 1698 1702 1872 1969 2088 1933 1662 1497 1259 1005 958 914 812 661 510 430 676 1170 1056 1732 1943 1856 1566
114 1586 2140 2104 2121 2075 2137 2155 2012 1960 1898 2329 2476 1856 2163 2592 2708 1815 1670 1533 1527 1568 1559 1659 2070 2062 1856 1639 1189 880 845 870 862 823 718 603 530 1271 1593 1983 1963 1948 1554
0 257 1805 2270 2283 2355 2494 2290 1891 1777 1646 1724 2517 2103 1989 2677 2505 2536 2406 1536 1587 1331 1464 1489 1650 2001 1915 1862 1495 1105 861 786 788 798 793 735 627 1018 1539 1911 2156 2065 2002
0 315 1164 2255 2481 2768 2690 2353 2050 2005 1550 1444 1757 1692 1935 1880 1895 2093 2262 2590 2019 2142 1433 1295 1318 1383 1668 1770 1770 1379 1090 881 727 712 726 751 714 619 1347 1930 2111 1673 2290
0 44 1005 2290 2420 2469 2707 2360 2202 2067 1919 1821 1267 1119 1212 1523 1697 1892 1773 1959 2109 2224 2012 1630 1327 1298 1507 1813 1657 1579 1291 1032 842 749 667 655 699 657 736 1876 2261 2364 2338
0 65 658 1963 2116 2083 2071 1812 1865 1625 1525 1919 1986 1567 1217 1118 972 935 1272 1164 1409 1650 1331 1443 1362 1418 1290 1489 2105 1802 1373 1221 995 826 773 644 644 639 611 695 1385 1854 2031
0 190 542 1286 1257 1281 1238 1232 1449 1489 1376 1243 1114 1003 1009 959 1104 1112 1084 1095 1166 1314 1239 1086 1094 1149 1103 1011 1113 1581 1555 1211 1131 971 905 846 884 804 674 624 622 774 1257
0 77 370 982 1078 705 514 776 925 904 889 692 460 322 308 325 325 347 443 915 1234 1229 1237 1057 952 955 1008 994 1120 1121 934 1188 1010 1046 1012 884 955 966 832 721 663 632 637
0 0 49 536 726 643 284 10 0 0 0 0 0 0 11 42 81 148 109 99 130 196 364 994 680 728 615 680 955 611 730 867 673 598 843 804 894 985 915 833 794 692 568
0 0 1 251 536 182 33 0 0 0 0 0 0 0 0 0 0 0 32 133 119 38 82 153 417 496 276 206 341 195 267 223 176 485 567 667 753 707 723 645 666 750 583
0 0 0 0 1 0 0 7 0 0 0 0 0 0 0 0 0 0 0 0 0 0 25 86 188 483 555 768 293 197 44 2 3 245 258 280 495 427 544 593 597 642 610
3 6 52 74 44 31 22 7 0 0 0 0 0 0 0 0 0 0 0 0 0 0 0 0 7 113 393 530 710 493 232 237 99 98 58 155 330 349 307 465 431 552 580
28 55 132 124 149 5 9 0 0 0 0 0 0 0 0 0 0 0 0 0 0 0 0 0 0 0 0 98 429 518 616 298 256 117 77 248 107 283 283 65 60 279 521
16 61 61 88 68 0 0 0 0 0 0 0 0 0 0 0 0 0 0 0 0 0 0 0 0 0 0 1 21 173 243 731 302 150 52 69 85 195 86 10 27 155 442
25 66 69 42 5 5 0 0 0 0 0 0 0 0 0 0 0 0 0 0 0 0 0 0 0 0 0 2 16 35 220 45 140 244 136 4 0 4 8 15 26 63 363

GFSSE_con_mucape_123.txt.gz
CAPE
1336 1521 1624 1850 1821 1602 1469 1447 1539 2086 2253 2084 1965 1929 2039 2114 2011 1979 2182 2395 2354 2276 2422 1961 2002 2001 1666 1655 1931 1790 1610 1409 1738 2292 2264 2223 1905 1918 1672 1858 1753 1154 1667
1532 1838 1674 1849 1931 1803 1614 1564 1668 2072 2458 2376 2242 2077 2141 2124 2042 2078 2346 2472 2564 2486 2522 2065 2077 1617 1294 1391 1448 1424 1346 1201 1417 2045 2285 2109 2036 1931 1742 1589 1422 1385 1790
2075 2063 2040 1837 1961 1903 1841 1800 1907 2122 2585 2696 2547 2301 2233 2237 2176 2165 2313 2476 2650 2809 2804 2375 2211 1828 1366 1355 1183 1306 1275 1209 1377 1953 2227 1635 1797 2001 1752 1630 1803 1777 1938
2055 2094 2178 1900 2000 1944 1858 1842 1998 2289 2455 2700 2739 2584 2406 2326 2327 2310 2255 2423 2736 2909 2923 2445 2422 2190 1713 1180 1085 1228 1241 1186 1370 1742 1538 1490 1625 1941 1804 1567 1583 1723 1875
1951 2051 2026 1932 2009 1976 1901 1890 1951 2185 2230 2366 2627 2784 2725 2650 2617 2514 2287 2369 2814 3123 3079 2606 2619 2624 1581 977 926 1100 1185 1141 1191 1294 1584 1720 1729 1863 1807 1830 1687 1995 1900
1898 2099 1778 1872 2004 2011 1980 1989 1998 1980 1966 2012 2266 2694 2836 2864 2822 2587 2331 2574 2995 3077 3083 2764 2573 2459 1415 955 825 997 1100 1047 962 1358 1526 1639 1725 1866 1875 2121 1876 1743 1757
1973 2096 2200 1847 2005 2064 2127 2096 2008 1866 1813 1843 2011 2300 2609 2728 2700 2459 2342 2607 2917 2999 2901 2694 2254 2101 1482 1090 936 841 982 985 1383 1387 1454 1601 1867 1795 1910 1967 1993 1830 1835
2240 2141 2273 1954 2005 2076 2099 2053 2015 1920 1728 1765 1837 2049 2354 2488 2430 2271 2233 2481 2714 2768 2708 2525 2377 1977 1471 1181 973 743 792 918 1119 1527 1444 1397 1527 1700 1874 2127 1897 1857 1681
2398 2150 2257 2519 2388 2038 2009 1973 1964 1963 1827 1755 1770 1844 2044 2168 2278 2173 2168 2348 2505 2499 2421 2324 2255 1694 1414 1206 968 816 734 789 1218 1452 1207 1387 1109 1537 1846 2232 1878 1817 1780
2342 2348 2165 2121 2595 2729 2643 1904 1790 1831 1855 1784 1760 1805 1830 1888 1905 1973 2005 2178 2349 2283 2184 2133 2037 1626 1504 1324 1132 1039 806 711 1193 1328 1341 1193 463 1078 1198 2208 2031 1804 1648
1783 2493 2321 2142 2209 2467 2497 2335 2049 1880 1845 1839 1808 1760 1922 2235 2195 2107 1834 1828 2035 2114 2146 2158 1925 1874 1766 1579 1414 1195 936 1344 1448 1209 1249 733 463 763 1057 2246 1978 1805 1757
0 63 2275 2290 2280 2247 2060 2247 2430 2463 2539 2562 2426 2390 2332 2182 2167 1973 1814 1625 1601 1742 2074 2204 2235 2069 1773 2006 1751 1209 1502 1464 1464 1315 1289 564 613 1055 1100 2093 1964 1872 1756
0 0 29 2418 2334 2337 2335 2415 2256 2262 2259 2237 2311 2134 1999 2107 2188 1885 1727 1955 2153 1621 2109 2011 2316 2352 2300 2299 1986 1773 1561 1540 1425 1352 1062 590 528 1213 1417 1734 1946 2078 1821
0 0 0 1799 2412 2403 2415 2456 2147 2049 1956 1936 1887 2047 2229 2171 2054 2081 1785 1838 1526 1737 2009 2131 2069 2255 2402 2310 2302 1925 1696 1457 1337 1297 1224 729 637 961 1524 1977 2019 2136 1869
0 0 0 880 2543 2497 2460 2467 2424 2126 2089 1917 1905 2158 1953 1952 1984 1821 1771 1817 1886 1502 1410 1520 1831 1744 2002 1936 2074 2204 1831 1650 1514 1468 1442 739 637 635 1101 1538 1837 1861 2002
0 0 0 224 2063 2345 2061 2207 2070 2010 1880 1980 1863 1698 1869 1614 1348 1473 1712 1761 1804 1653 1644 1644 1362 1386 1429 1506 2208 1713 2087 1791 1587 1554 1448 1242 560 541 567 953 1568 2013 1727
0 0 0 33 237 1462 1586 1556 1692 1633 1804 1795 1502 1492 1169 1271 1116 985 1143 1301 1581 1562 1456 1593 1469 1495 1479 1492 1412 1322 1560 1574 1646 1539 1520 1399 956 506 442 475 756 1407 1719
0 0 0 41 213 1091 1128 829 1252 1236 1224 1435 1269 1223 1221 1126 952 855 714 706 743 1051 1598 1711 1131 1568 1425 1502 1520 1386 1195 1218 1094 1536 1497 1286 1261 1076 637 549 497 491 824
0 0 1 6 94 573 739 679 657 667 730 779 785 802 637 509 491 579 600 594 594 903 1148 1081 1390 1153 1155 1181 1325 1299 1324 1112 1012 922 861 886 1245 1203 1265 829 620 523 497
0 1 3 41 155 505 574 669 487 381 312 263 113 18 10 0 0 3 26 80 154 176 392 544 817 791 1097 1237 1061 1016 1151 800 1184 828 944 873 878 855 1065 909 860 726 517
0 0 4 20 60 263 449 491 311 179 50 0 0 0 0 0 0 0 0 0 0 0 52 56 40 233 613 790 708 353 173 256 329 357 719 941 819 628 685 681 692 1271 803
0 0 2 8 11 20 44 181 167 80 39 0 0 0 0 0 0 0 0 0 0 0 0 0 0 13 439 315 439 375 123 232 199 232 606 532 631 805 367 493 614 959 776
0 1 2 10 17 35 80 134 156 95 22 12 0 0 0 0 0 0 0 0 0 0 0 0 4 7 4 250 545 308 63 5 218 76 101 294 694 835 139 779 924 843 768
2 9 11 20 26 44 57 105 109 31 16 0 0 0 0 0 0 0 0 0 0 0 0 0 0 0 7 12 64 447 773 216 254 161 48 413 686 323 442 1034 959 909 909
2 11 2 2 9 34 98 86 130 26 0 0 0 0 0 0 0 0 0 0 0 0 0 0 0 0 0 1 13 25 349 494 225 44 91 126 246 266 441 846 994 948 795
2 1 2 1 1 1 13 34 65 0 0 0 0 0 0 0 0 0 0 0 0 0 0 0 0 0 0 0 0 14 5 111 57 39 11 56 107 371 348 690 679 847 1020

GFSSE_con_mucape_126.txt.gz
CAPE
1352 1846 1696 1810 1753 1750 1747 1760 2120 2204 2101 2079 2165 2244 2262 2255 2147 2160 2354 2377 2480 2921 2814 2146 2139 2052 2005 2183 2293 2052 1721 1842 2310 2417 2376 2106 1963 1809 1768 2073 1802 1126 1417
1830 2127 1701 1761 1790 1881 1912 1898 2179 2438 2431 2294 2242 2293 2350 2326 2183 2230 2491 2464 2541 2944 2778 2108 2088 2012 1859 1935 1874 1644 1481 1550 2061 2202 2356 2271 2044 1856 1781 1973 1880 1306 1731
1998 2200 2214 1762 1814 1935 2025 2099 2376 2753 2780 2555 2431 2420 2479 2346 2245 2295 2565 2511 2579 2835 2723 2053 1869 1696 1588 1665 1489 1420 1360 1469 1922 2156 2196 1816 1836 1966 1700 1668 1859 1971 1913
2468 2184 2499 1881 1886 1911 1943 2054 2346 2874 2999 2866 2602 2537 2532 2436 2313 2391 2539 2563 2755 2895 2960 2370 2150 1955 1821 1354 1328 1306 1293 1395 1709 2072 1769 1395 1583 1971 1750 1674 1780 1933 1908
2249 2215 2726 2015 1937 1940 1863 1974 2127 2525 2747 2870 2810 2749 2658 2560 2517 2470 2471 2554 2973 3196 3256 2822 2762 2607 1591 1094 1152 1216 1242 1288 1574 1534 1428 1540 1643 1907 1802 1557 1599 1867 2075
2461 2491 2239 2018 2043 2023 1965 1965 2088 2138 2240 2519 2704 2937 2879 2758 2722 2603 2381 2659 3107 3300 3318 3181 3048 2660 1525 1033 985 1153 1112 1161 1020 1499 1519 1620 1701 1990 1916 2020 1338 1619 1675
2638 2735 2781 1980 2103 2124 2218 2147 2032 1993 1931 2117 2458 2734 2897 2975 2903 2694 2372 2553 2981 3262 3274 3066 2701 2496 1727 1164 945 1022 1008 1002 1307 1334 1501 1649 1732 2126 2004 1927 2039 1921 1915
2955 2957 2925 2107 2031 2158 2180 2133 1998 1866 1825 1875 2070 2425 2764 2812 2764 2628 2417 2540 2863 2980 2941 2762 2446 2325 1957 1345 1036 802 864 841 1078 1343 1377 1547 1721 1962 1990 2323 2144 1844 1880
2529 3361 3360 3395 2890 2067 2212 2186 2089 1984 1760 1770 1791 1998 2320 2475 2499 2416 2357 2456 2742 2931 2898 2710 2456 2240 1960 1430 1081 724 687 863 1397 1280 1406 1528 1601 1790 2035 2363 2115 1814 1771
465 2383 3409 3507 3580 3536 3391 2174 2042 2016 1931 1772 1726 1757 1869 2069 2206 2230 2178 2262 2494 2618 2627 2629 2504 2327 1825 1398 1114 788 676 674 1212 1248 1410 1213 1449 1577 1892 2442 2150 1893 1681
0 0 1108 3192 3452 3619 3629 3243 2197 1843 1887 1894 1838 1745 1958 2239 2115 2271 2200 2043 2259 2367 2302 2283 2301 2126 1611 1410 1269 1038 896 1352 1307 1328 1214 932 760 1328 1660 1801 2216 1936 1799
0 0 0 357 2695 3531 3269 3279 3347 3270 2970 2855 2784 2888 2828 2755 2640 2102 1856 1835 1960 2147 2156 2072 2079 1960 1724 2082 1941 1330 1728 1341 1539 1381 1210 877 813 1118 1237 1635 2143 1909 1738
0 0 0 0 1074 3169 3183 3359 3445 3286 3241 3263 3272 3086 2760 2610 2651 2576 2427 2429 2370 1541 2252 1938 2417 2564 2424 2251 1847 1797 1593 1655 1576 1444 1088 874 702 1239 1381 1718 2051 1960 1785
0 0 0 41 242 2109 3215 3430 3423 3319 3194 3177 3009 2927 2933 2919 2752 2816 2412 2151 2248 2205 2213 2368 2389 2420 2432 2373 2343 2040 2056 1760 1428 1313 1172 887 611 1036 1434 1710 1956 2076 1917
0 0 0 8 406 1530 2862 3365 3558 3460 3144 3008 2908 2855 2501 2691 2856 2557 2315 2366 2172 2259 2045 2117 2385 2136 2275 2232 2323 2187 2300 2118 1764 1407 1300 916 676 677 1297 1583 1786 2010 2032
0 0 0 0 0 437 1623 2589 2892 3086 2834 2419 2113 2378 2395 2302 2469 2361 2375 2112 2204 2305 2327 2118 1718 2102 2139 1937 2171 2328 2207 2184 2048 1891 1576 1428 708 502 717 1308 1598 1772 2317
0 0 0 0 0 0 1461 1938 2373 1915 1671 1751 1911 1517 1534 1884 1824 1645 2231 2136 2126 2230 2065 2089 1904 2115 1890 1777 1778 2081 2282 2323 1967 1791 2037 1669 1114 585 388 420 956 1387 1614
0 0 0 0 0 0 1 966 1513 1451 1217 1422 1601 1253 972 1233 1671 1611 1287 1215 1239 983 1036 2130 2061 2076 1799 1743 1534 1474 1794 2222 2240 2018 1927 1960 1667 1448 704 407 341 554 915
0 0 0 0 1 1 155 553 738 853 942 930 981 897 983 921 806 843 748 822 772 852 847 852 1229 1763 1821 1568 1605 1413 1430 1594 2228 1767 1867 1884 1848 1820 1495 948 693 413 396
0 0 1 0 0 2 4 418 620 491 500 484 597 599 682 652 485 200 43 15 25 52 102 260 860 872 1058 1270 1115 975 902 1233 1630 1185 1275 1464 1711 1860 1836 1636 1179 1029 598
0 0 1 4 4 8 0 11 512 572 544 483 321 249 140 14 0 0 0 2 1 0 3 4 27 195 879 1203 778 649 762 1090 406 625 134 14 252 1182 1593 2005 1790 1776 974
0 0 0 1 3 4 17 19 20 66 240 139 158 102 33 0 0 0 0 0 0 0 11 9 10 6 12 747 826 542 382 297 347 216 9 0 84 481 1003 1527 1508 1451 1484
0 0 0 0 0 3 8 20 25 19 95 116 70 85 4 0 0 0 0 0 0 0 0 0 0 9 10 8 546 970 470 328 367 121 0 128 337 707 1040 1197 1408 1506 1717
0 0 0 0 0 0 3 1 4 9 1 38 52 14 0 0 0 0 0 0 0 0 0 0 0 0 0 14 13 285 914 686 310 293 641 680 814 1020 1368 1168 1159 1153 1128
0 0 3 4 0 0 0 0 7 0 1 2 2 23 0 0 0 0 0 0 0 0 0 0 0 0 0 0 16 14 10 482 769 832 352 639 716 719 892 1285 1360 1311 1304
0 0 0 0 0 0 0 1 2 5 10 0 3 3 0 0 0 0 0 0 0 0 0 0 0 0 0 0 0 0 16 10 88 333 537 375 353 573 806 849 1102 1204 1421

GFSSE_con_mucape_129.txt.gz
CAPE
1755 1791 1724 1941 2031 2079 2207 2325 2226 2111 2189 2261 2410 2413 2466 2554 2497 2490 2579 2570 2746 2854 2684 2289 2119 2222 2248 2043 2137 2138 2030 2370 2440 2392 2308 2013 1882 1849 1744 1926 1641 933 2054
1993 1963 1610 1835 2049 2174 2237 2366 2367 2340 2382 2415 2560 2564 2535 2507 2460 2552 2664 2695 2924 3021 2714 2236 2357 2262 2400 2578 2116 1794 1845 2107 2140 2296 2466 2214 1924 1852 1640 1762 1481 965 2041
2390 2533 1985 1661 2019 2195 2342 2528 2617 2679 2660 2559 2616 2640 2682 2599 2497 2606 2644 2671 2847 3359 2988 2290 2305 2213 2063 2009 1684 1541 1648 1922 2050 2077 2388 1680 1587 1842 1699 1631 1699 1845 1991
2610 2815 2220 1703 1925 2112 2211 2468 2745 3021 2956 2737 2697 2740 2761 2680 2539 2657 2672 2588 2814 3259 2950 2233 2159 2056 1905 1571 1412 1390 1523 1688 1934 1958 1767 1864 1602 1898 1662 1632 1757 1822 1856
2256 2235 2857 1941 1794 2001 2089 2322 2652 2984 2963 2829 2786 2890 2873 2748 2638 2714 2698 2651 2958 3280 2948 2320 2417 2477 1527 1252 1256 1238 1374 1454 1690 1563 1768 1625 1800 1882 1759 1683 1727 1804 2002
2149 2764 2501 1960 1880 1866 2009 2176 2412 2639 2669 2684 2738 2911 2969 2910 2790 2713 2610 2793 3265 3351 3480 3202 3218 2695 1450 1080 1149 1153 1196 1274 1246 1423 1208 1589 1996 2040 1834 2000 1785 1813 1823
2091 2817 3161 2005 2037 2072 2057 2067 2129 2163 2363 2543 2731 2902 2955 2987 2918 2748 2499 2688 3104 3369 3390 3324 3080 2748 1815 1174 1080 1102 1067 1115 1155 1462 996 1477 2061 2096 2046 1753 1907 1772 1894
2139 2797 3405 2393 2079 2149 2152 2081 1909 1847 1906 2168 2503 2751 3005 3001 2857 2765 2517 2493 2801 3086 3113 3004 2794 2585 2303 1456 1123 902 908 859 812 1414 920 1318 1998 2510 2076 2263 2104 1768 1901
1220 2581 3513 3855 3291 2052 2168 2159 2044 1944 1782 1843 1936 2253 2686 2795 2761 2701 2569 2469 2639 2841 2989 2950 2763 2400 2260 1874 1236 828 636 741 949 1051 941 1275 2139 2542 2120 2542 2256 1914 1819
0 114 1636 2876 3592 3877 3870 2182 2140 2052 1983 1778 1809 1780 1970 2305 2528 2537 2480 2332 2517 2711 2737 2728 2652 2436 2174 2008 1374 954 607 637 932 1215 931 1287 2045 2222 2232 2780 2323 2015 1733
0 0 0 364 1545 2951 3666 3558 2953 2021 2005 1929 1821 1684 1818 2064 2082 2357 2344 2193 2232 2398 2399 2520 2534 2500 2365 2042 1365 1046 703 987 1021 998 859 1077 1958 1961 2061 2606 2367 1965 1750
0 0 0 107 506 1689 2266 2688 3704 3615 3014 2887 2747 2777 2833 2620 2457 2110 1792 1841 1902 2102 2209 2191 2109 2172 2195 1616 1329 1154 1440 1206 1135 944 730 875 1600 1664 1904 2276 2103 2111 1797
0 0 0 100 1449 948 1652 2002 2514 2762 3079 3204 3746 3615 3613 3359 3102 3134 2811 2450 2373 1861 2475 1910 2032 2042 1696 1715 1583 2297 1851 1440 1311 938 626 734 1388 1482 1458 2004 1894 2306 1894
0 0 0 0 21 990 1793 2209 2087 2145 2269 2362 2639 3341 3528 3478 3066 3165 2981 2914 2684 2520 2414 2594 2541 2507 2476 2564 2227 2844 2320 1624 1398 903 808 724 876 1490 1545 1677 1987 2206 1932
0 0 0 0 0 0 1001 2019 2753 3237 3082 3067 3071 3044 2948 3180 3381 3246 2999 2888 2854 2905 2772 2418 2452 2282 2190 2161 2167 2350 2617 2403 2109 1609 1205 701 734 984 1518 1605 1913 1913 2102
0 0 0 0 0 0 47 1228 2004 2088 2354 2293 2016 2020 1990 1941 2260 2737 2729 2589 2544 2494 2467 2616 2644 2583 2666 2482 2315 2174 2225 2402 2589 2228 1462 1050 756 681 912 1680 2175 2392 2434
0 0 0 0 0 0 0 360 883 1365 1703 1799 2173 2152 1869 1719 1714 1813 1584 1730 1789 1847 2034 2380 2341 2341 2245 2289 2256 2578 2623 2476 2299 2432 2408 1431 912 778 547 707 1369 1847 2148
0 0 0 0 0 0 0 0 696 759 1367 1322 1516 1421 1358 1197 921 1061 1362 1590 1449 1547 1377 1421 1853 1242 1663 2198 2147 2153 2011 2537 2398 2314 2262 2306 2019 1530 920 643 452 875 1317
0 0 0 0 0 0 0 1 3 0 1054 924 1035 1231 1302 907 884 696 558 606 906 815 967 829 971 1181 1558 1294 901 1751 1478 1586 2108 2403 2059 1827 2087 1642 1818 1144 744 317 476
0 0 0 0 0 0 0 0 1 13 252 380 679 769 846 660 598 496 455 288 161 30 1 122 582 668 603 652 954 999 956 1470 1868 1716 1357 1287 955 670 757 1117 1087 924 707
0 0 0 0 0 0 0 0 0 0 0 97 226 296 368 466 360 370 363 107 0 0 4 6 11 15 24 613 823 1252 830 737 1107 555 540 32 132 16 197 718 1272 1598 1161
0 0 0 0 0 0 0 0 0 0 0 1 2 7 31 58 62 114 64 0 0 0 0 0 0 8 1 2 580 330 470 662 703 508 353 171 72 2 12 133 512 1519 1775
0 0 0 0 0 0 0 0 0 0 0 0 0 2 0 41 20 27 0 0 0 0 0 0 0 0 0 5 0 199 385 191 457 898 442 360 244 51 17 12 92 482 1021
0 0 0 0 0 0 0 0 0 0 0 0 0 0 1 1 13 7 0 0 0 0 0 0 0 0 0 0 2 3 36 247 125 523 893 672 508 311 132 56 46 177 536
0 0 0 0 0 0 0 0 0 0 0 0 0 1 0 0 0 0 0 0 0 0 0 0 0 0 0 0 0 0 21 6 10 268 283 693 842 714 481 561 839 963 1079
0 0 0 0 0 0 0 0 0 0 0 0 0 0 2 0 0 0 0 0 0 0 0 0 0 0 0 0 0 0 1 0 19 13 29 110 351 462 902 1055 1419 1368 1264